[[[{"header":{"parameterUnit":"kt","parameterCategory":2,"dx":1,"dy":1,"la1":29.587661999999998,"la2":31.0,"lo1":-88.76705300000003,"lo2":-86.6583820000003,"nx":115,"ny":88,"refTime":"2022-10-09T06:00:00:Z","depth":0,"parameterNumber":1,"parameterNumberName":"U-component_of_WINDS"},"data":[13.7824,13.7824,13.7824,13.7824,13.7824,13.7824,13.7824,13.7824,13.7824,13.7824,13.7824,13.7824,13.7824,13.7824,13.7824,13.7824,13.7824,13.7824,13.7824,13.7824,13.7824,13.7824,13.7824,13.7824,13.7824,13.7591,13.7448,13.7506,13.7157,13.6983,13.7041,13.6866,13.6924,13.6575,13.5734,13.5587,13.5296,13.4947,13.454,13.4629,13.4485,13.3786,13.367,13.362,13.3681,13.447,13.516,13.5578,13.62,13.673,13.6902,13.6782,13.6662,13.6543,13.6572,13.6452,13.6483,13.6483,13.6423,13.6423,13.6363,13.6483,13.6423,13.6543,13.6602,13.6602,13.6543,13.6303,13.5913,13.4657,13.4814,13.4694,13.631,14.0345,14.3288,14.5204,14.6823,14.7055,14.7102,14.7102,14.7102,14.7102,14.7102,14.7102,14.7102,14.7102,14.7102,14.7102,14.7102,14.7102,14.7102,14.7102,14.7102,14.7102,14.7102,14.7102,14.7102,14.7102,14.7102,14.7102,14.7102,14.7102,14.7102,14.7102,14.7102,14.7102,14.7102,14.7102,14.7102,14.7102,14.7102,14.7102,14.7102,14.7102,14.7102,13.7765,13.7824,13.7797,13.7824,13.7824,13.7824,13.7824,13.7824,13.7824,13.7824,13.7824,13.7824,13.7824,13.7824,13.7824,13.7824,13.7824,13.7824,13.7824,13.7824,13.7824,13.7681,13.7681,13.7649,13.7448,13.7157,13.6634,13.6374,13.6258,13.5618,13.5063,13.4656,13.4598,13.454,13.4423,13.4307,13.4074,13.3667,13.3551,13.3842,13.3116,13.2038,13.167,13.1739,13.2096,13.2741,13.3353,13.3816,13.4161,13.4568,13.4896,13.4956,13.4956,13.5076,13.4956,13.5016,13.5047,13.4956,13.4836,13.4956,13.4836,13.4657,13.4417,13.4417,13.4477,13.4537,13.4537,13.4477,13.4477,13.4286,13.4934,13.5627,13.7837,14.0645,14.2766,14.4795,14.6054,14.7078,14.7102,14.7102,14.7102,14.7102,14.7102,14.7102,14.7102,14.7102,14.7102,14.7102,14.7102,14.7102,14.7102,14.7102,14.7102,14.7102,14.7102,14.7102,14.7102,14.7102,14.7102,14.7102,14.7102,14.7102,14.7102,14.7102,14.7102,14.7102,14.7102,14.7102,14.7102,14.7102,14.7102,14.7102,14.7102,14.7102,14.7102,13.6808,13.6956,13.7564,13.7824,13.7824,13.7824,13.7824,13.7824,13.7824,13.7824,13.7824,13.7824,13.7824,13.7824,13.7824,13.7824,13.7824,13.7765,13.7622,13.7707,13.7765,13.7332,13.7014,13.6781,13.6607,13.5819,13.521,13.5036,13.4889,13.4249,13.3958,13.4249,13.4132,13.3842,13.3058,13.3,13.2709,13.2097,13.1806,13.2047,13.2143,13.1319,13.0679,13.1036,13.1537,13.1948,13.25,13.305,13.351,13.3824,13.391,13.3938,13.3938,13.3938,13.3938,13.3938,13.3938,13.3938,13.3998,13.4118,13.4118,13.4178,13.3998,13.4058,13.3938,13.3938,13.3938,13.3938,13.3938,13.4927,13.5538,13.6667,13.8732,14.1159,14.3362,14.5036,14.6331,14.7078,14.7102,14.7102,14.7102,14.7102,14.7102,14.7102,14.7102,14.7102,14.7102,14.7102,14.7102,14.7102,14.7102,14.7102,14.7102,14.7102,14.7102,14.7102,14.7102,14.7102,14.7102,14.7102,14.7102,14.7102,14.7102,14.7102,14.7102,14.7102,14.7102,14.7102,14.7102,14.7102,14.7102,14.7102,14.7102,14.7102,14.7102,13.5618,13.5645,13.6575,13.6924,13.6893,13.6924,13.7041,13.739,13.7099,13.6866,13.6924,13.6866,13.6777,13.6634,13.6575,13.6544,13.666,13.6401,13.6866,13.675,13.6602,13.6052,13.5734,13.5528,13.5121,13.4365,13.4016,13.4074,13.3609,13.3232,13.3116,13.3085,13.2911,13.2534,13.1778,13.172,13.1429,13.0817,13.0731,13.0881,13.112,13.0649,13.0533,13.1007,13.1302,13.1625,13.2151,13.2703,13.3251,13.3653,13.3736,13.3938,13.3938,13.3938,13.3938,13.3938,13.3938,13.3938,13.3938,13.3938,13.3938,13.3938,13.3938,13.3938,13.3938,13.3938,13.3938,13.3938,13.4333,13.5511,13.6551,13.791,13.9472,14.1973,14.4456,14.5698,14.6958,14.7121,14.7102,14.7102,14.7102,14.7102,14.7102,14.7102,14.7102,14.7102,14.7102,14.7102,14.7102,14.7102,14.7102,14.7102,14.7102,14.7102,14.7102,14.7102,14.7102,14.7102,14.7102,14.7102,14.7102,14.7102,14.7102,14.7102,14.7102,14.7102,14.7102,14.7102,14.7102,14.7102,14.7102,14.7102,14.7102,14.7102,14.7102,13.4249,13.4307,13.4365,13.4598,13.4393,13.4598,13.5179,13.6025,13.4947,13.4481,13.4598,13.4481,13.4714,13.5005,13.4947,13.4889,13.5005,13.5005,13.5063,13.4481,13.4947,13.4714,13.4423,13.4249,13.39,13.4016,13.3783,13.2969,13.2185,13.1631,13.1166,13.0526,13.0817,13.0933,13.0789,13.0731,13.0614,13.0235,13.0265,13.0415,13.0503,13.0503,13.0562,13.1184,13.142,13.1596,13.2151,13.2645,13.305,13.322,13.3479,13.391,13.3938,13.3938,13.3938,13.3938,13.3938,13.3938,13.3938,13.3938,13.3938,13.3938,13.3938,13.3938,13.3938,13.3938,13.3938,13.3938,13.4223,13.5175,13.7424,13.897,14.1133,14.3658,14.5276,14.6378,14.7121,14.7121,14.7102,14.7102,14.7102,14.7102,14.7102,14.7102,14.7102,14.7102,14.7102,14.7102,14.7102,14.7102,14.7102,14.7102,14.7102,14.7102,14.7102,14.7102,14.7102,14.7102,14.7102,14.7102,14.7102,14.7102,14.7102,14.7102,14.7102,14.7102,14.7102,14.7102,14.7102,14.7102,14.7102,14.7102,14.7102,14.7102,14.7102,13.2941,13.3058,13.3783,13.4132,13.4132,13.4132,13.3842,13.3581,13.3174,13.3465,13.4074,13.4074,13.4132,13.4016,13.3958,13.3958,13.3958,13.3842,13.39,13.3842,13.4249,13.3581,13.3116,13.2883,13.2592,13.1952,13.1661,13.1748,13.1138,13.041,13.0235,13.0235,13.0235,13.0235,13.0235,13.0235,13.0235,13.0265,13.0384,13.077,13.1007,13.1154,13.1537,13.2093,13.2326,13.2442,13.2732,13.328,13.3479,13.3593,13.371,13.3938,13.3938,13.3938,13.3938,13.3938,13.3938,13.3938,13.3938,13.3938,13.3938,13.3938,13.3938,13.3938,13.3938,13.3699,13.3699,13.3608,13.4068,13.4998,13.766,14.0256,14.2688,14.5187,14.6083,14.6943,14.7036,14.7036,14.7036,14.7036,14.7102,14.7102,14.7102,14.7102,14.7102,14.7102,14.7102,14.7102,14.7102,14.7102,14.7102,14.7102,14.7102,14.7102,14.7102,14.7102,14.7102,14.7102,14.7102,14.7102,14.7102,14.7102,14.7102,14.7102,14.7102,14.7102,14.7102,14.7102,14.7102,14.7102,14.7102,14.7102,14.7102,14.7102,14.7102,13.1603,13.172,13.265,13.3027,13.3058,13.2969,13.2504,13.172,13.1603,13.2069,13.3058,13.2969,13.2736,13.3027,13.3027,13.2941,13.2911,13.3027,13.3027,13.2911,13.2562,13.2301,13.1924,13.1545,13.108,13.0614,13.041,13.0468,13.0293,13.0235,13.0235,13.0235,13.0235,13.0235,13.0235,13.0235,13.0356,13.0475,13.0622,13.1184,13.1655,13.1713,13.1918,13.2297,13.2471,13.25,13.2703,13.3194,13.3421,13.3622,13.3824,13.3938,13.3938,13.3938,13.3938,13.3938,13.3879,13.3879,13.3938,13.3938,13.3938,13.3938,13.3938,13.3879,13.3431,13.3192,13.2953,13.2474,13.2403,13.361,13.5731,13.7986,14.024,14.25,14.4257,14.4923,14.526,14.5458,14.6092,14.6224,14.7036,14.7036,14.7102,14.7102,14.7102,14.7102,14.7102,14.7102,14.7102,14.7102,14.7102,14.7102,14.7102,14.7102,14.7102,14.7102,14.7102,14.7102,14.7102,14.7102,14.7102,14.7102,14.7102,14.7102,14.7102,14.7102,14.7102,14.7102,14.7102,14.7102,14.7102,14.7102,14.7102,14.7102,14.7102,13.0323,13.0323,13.0323,13.0468,13.044,13.0642,13.0526,13.0352,13.0352,13.041,13.0498,13.0642,13.0817,13.0584,13.0526,13.0642,13.0759,13.0759,13.0759,13.0759,13.105,13.0759,13.0526,13.0498,13.0468,13.0293,13.0235,13.0235,13.0235,13.0235,13.0235,13.0235,13.0235,13.0235,13.0295,13.0384,13.0652,13.0772,13.0891,13.1155,13.1591,13.1797,13.1675,13.1818,13.1964,13.1935,13.2079,13.2398,13.2629,13.2949,13.3326,13.3614,13.3819,13.3879,13.3938,13.3819,13.3639,13.352,13.346,13.3551,13.3639,13.322,13.346,13.3072,13.2505,13.2266,13.2087,13.1608,13.1573,13.2704,13.397,13.6165,13.8318,14.0688,14.2779,14.3299,14.3703,14.4405,14.5106,14.5763,14.651,14.7036,14.7102,14.7102,14.7102,14.7102,14.7102,14.7102,14.7102,14.7102,14.7102,14.7102,14.7102,14.7102,14.7102,14.7102,14.7102,14.7102,14.7102,14.7102,14.7102,14.7102,14.7102,14.7102,14.7102,14.7102,14.7102,14.7102,14.7102,14.7102,14.7102,14.7102,14.7102,14.7102,14.7102,13.0235,13.0235,13.0235,13.0235,13.0235,13.0235,13.0235,13.0235,13.0235,13.0235,13.0235,13.0235,13.0235,13.0235,13.0235,13.0235,13.0235,13.0235,13.0235,13.0235,13.0235,13.0235,13.0235,13.0235,13.0235,13.0235,13.0235,13.0235,13.0235,13.0235,13.0235,13.0235,13.0235,13.0177,13.018,13.0389,13.0714,13.0686,13.0538,13.0621,13.0991,13.0836,13.0416,13.0759,13.0872,13.0872,13.0866,13.092,13.1001,13.1057,13.1197,13.1309,13.1337,13.1337,13.1397,13.1397,13.1397,13.1429,13.1844,13.2111,13.2336,13.1944,13.1397,13.1158,13.095,13.1728,13.1552,13.1445,13.1548,13.3511,13.5998,13.5827,13.833,14.145,14.291,14.2932,14.3376,14.4405,14.5172,14.5566,14.6181,14.6773,14.7102,14.7102,14.7102,14.7102,14.7102,14.7102,14.7102,14.7102,14.7102,14.7102,14.7102,14.7102,14.7102,14.7102,14.7102,14.7102,14.7102,14.7102,14.7102,14.7102,14.7102,14.7102,14.7102,14.7102,14.7102,14.7102,14.7102,14.7102,14.7102,14.7102,14.7102,14.7102,14.7102,13.0235,13.0235,13.0235,13.0235,13.0235,13.0235,13.0235,13.0235,13.0235,13.0235,13.0235,13.0235,13.0235,13.0235,13.0235,13.0235,13.0235,13.0235,13.0235,13.0235,13.0235,13.0235,13.0235,13.0235,13.0235,13.0235,13.0235,13.0235,13.0235,13.0235,13.0235,13.0235,13.0177,13.0003,12.9773,12.9396,12.9924,13.0068,12.9683,12.9667,13.0399,12.9748,12.9504,13.0121,13.0121,13.0181,13.0241,13.0273,13.0328,13.0268,13.0356,13.0352,13.0292,13.0292,13.0232,13.0172,13.0113,13.0053,13.032,13.082,13.1132,13.1409,13.1659,13.2245,13.0749,13.1814,13.2062,13.2002,13.2306,13.4348,13.7277,13.7166,13.8208,14.1333,14.2827,14.285,14.3244,14.4274,14.504,14.5435,14.6181,14.6904,14.7102,14.7102,14.7102,14.7102,14.7102,14.7102,14.7102,14.7102,14.7102,14.7102,14.7102,14.7102,14.7102,14.7102,14.7102,14.7102,14.7102,14.7102,14.7102,14.7102,14.7102,14.7102,14.7102,14.7102,14.7102,14.7102,14.7102,14.7102,14.7102,14.7102,14.7102,14.7102,14.7102,13.0119,13.0207,13.0177,13.0119,12.9828,13.0061,13.0061,12.9944,13.0003,13.0061,13.0177,13.0235,13.0235,13.0235,13.0235,13.0235,13.0235,13.0235,13.0235,13.0235,13.0235,13.0235,13.0235,13.0235,13.0235,13.0235,13.0235,13.0235,13.0235,13.0235,13.0235,13.0235,12.9683,12.9278,12.8375,12.724,12.7205,12.8003,12.7806,12.848,12.9234,12.8992,12.8893,12.9165,12.9275,12.9155,12.9155,12.9155,12.9155,12.9155,12.9215,12.9275,12.9275,12.9395,12.9395,12.9455,12.9574,12.9694,12.9837,13.0552,13.0524,13.0349,13.1233,13.2048,13.1564,13.22,13.2649,13.1767,13.2669,13.4565,13.6704,13.8162,13.8966,14.0633,14.2244,14.2915,14.3376,14.4142,14.4711,14.5172,14.6224,14.7102,14.7102,14.7102,14.7102,14.7102,14.7102,14.7102,14.7102,14.7102,14.7102,14.7102,14.7102,14.7102,14.7102,14.7102,14.7102,14.7102,14.7102,14.7102,14.7102,14.7102,14.7102,14.7102,14.7102,14.7102,14.7102,14.7102,14.7102,14.7102,14.7102,14.7102,14.7102,14.7102,14.7102,12.8897,12.9014,12.9858,12.9188,12.7589,12.753,12.7996,12.8781,12.8897,12.9305,13.0235,13.0235,13.0235,13.0235,13.0177,13.0119,13.0061,13.0119,13.0177,13.0235,13.0235,13.0235,13.0235,13.0119,13.0003,13.0235,13.0235,13.0061,12.9944,13.0177,13.0003,12.9421,12.8607,12.8604,12.8582,12.9185,12.8702,12.7817,12.732,12.762,12.7833,12.7512,12.7421,12.7589,12.7785,12.7785,12.7899,12.7742,12.7682,12.7627,12.7508,12.7448,12.7388,12.7328,12.7355,12.7268,12.7268,12.7268,12.735,12.7602,12.7696,12.8438,12.9828,12.9453,12.8291,12.8961,13.1968,13.1541,13.2169,13.3563,13.7054,13.8274,13.9221,14.1133,14.2581,14.3507,14.3902,14.4537,14.4997,14.5303,14.6092,14.7102,14.7102,14.7102,14.7102,14.7102,14.7102,14.7102,14.7102,14.7102,14.7102,14.7102,14.7102,14.7102,14.7102,14.7102,14.7102,14.7102,14.7102,14.7102,14.7102,14.7102,14.7102,14.7102,14.7102,14.7102,14.7102,14.7102,14.7102,14.7102,14.7102,14.7102,14.7102,14.7102,14.7102,12.7589,12.7647,12.8345,12.7821,12.6338,12.6338,12.6804,12.7472,12.753,12.8054,12.8635,12.8752,12.8723,12.8723,12.8723,12.8956,12.9509,12.9479,12.9828,13.0061,13.0061,12.9886,12.9537,12.9363,12.9218,12.8723,12.8635,12.8693,12.8839,12.8461,12.8723,12.8199,12.6687,12.6928,12.7048,12.7088,12.7654,12.7113,12.678,12.6991,12.7218,12.7327,12.7105,12.735,12.7342,12.7342,12.7191,12.6614,12.6239,12.6278,12.6338,12.6398,12.6458,12.6398,12.6398,12.6398,12.6458,12.6458,12.6392,12.6305,12.664,12.7086,12.8769,13.02,13.1004,13.1702,13.2814,13.3301,13.4817,13.695,13.9076,13.9635,13.9973,14.1849,14.3222,14.4077,14.48,14.5589,14.6092,14.6158,14.6773,14.7102,14.7102,14.7102,14.7102,14.7102,14.7102,14.7102,14.7102,14.7102,14.7102,14.7102,14.7102,14.7102,14.7102,14.7102,14.7102,14.7102,14.7102,14.7102,14.7102,14.7102,14.7102,14.7102,14.7102,14.7102,14.7102,14.7102,14.7102,14.7102,14.7102,14.7102,14.7102,14.7102,14.7102,12.6193,12.6135,12.6048,12.6077,12.596,12.6106,12.6077,12.6251,12.6222,12.6338,12.6716,12.6513,12.6687,12.6571,12.6891,12.7298,12.8141,12.8112,12.8693,12.9421,12.9828,12.9014,12.849,12.7996,12.7647,12.6833,12.6949,12.6862,12.6513,12.6658,12.6135,12.6076,12.551,12.4901,12.5416,12.6481,12.7061,12.8259,12.6613,12.678,12.7876,12.8208,12.8008,12.8562,12.8873,12.8991,12.8924,12.7139,12.6158,12.6158,12.6158,12.6158,12.6158,12.6158,12.6158,12.6158,12.6158,12.6158,12.6158,12.6293,12.7165,12.935,13.1154,13.2126,13.1487,13.5432,13.7203,13.588,13.5975,13.8695,14.0859,14.2673,14.2005,14.2893,14.3222,14.4142,14.5129,14.5961,14.6289,14.6904,14.7102,14.7102,14.7102,14.7102,14.7102,14.7102,14.7102,14.7102,14.7102,14.7102,14.7102,14.7102,14.7102,14.7102,14.7102,14.7102,14.7102,14.7102,14.7102,14.7102,14.7102,14.7102,14.7102,14.7102,14.7102,14.7102,14.7102,14.7102,14.7102,14.7102,14.7102,14.7102,14.7102,14.7102,14.7102,12.436,12.3574,12.3546,12.3574,12.3574,12.3574,12.407,12.4826,12.4855,12.5437,12.6106,12.6222,12.628,12.6338,12.6222,12.6367,12.6833,12.6862,12.7094,12.7211,12.7269,12.7211,12.6949,12.6833,12.6629,12.6397,12.6018,12.599,12.5611,12.4826,12.3865,12.3573,12.4518,12.5841,12.7233,12.765,12.8241,13.0317,12.8129,12.7694,12.8164,12.7598,12.7369,12.7244,12.6979,12.6926,12.6873,12.6293,12.6158,12.6158,12.6158,12.6158,12.6158,12.6158,12.6158,12.6158,12.6158,12.6158,12.6158,12.6185,12.6453,12.7059,12.8277,12.9671,12.9376,12.8847,12.999,13.4519,13.5404,13.7036,13.8871,14.0789,14.1512,14.2235,14.2959,14.4142,14.5129,14.5172,14.5435,14.6092,14.6684,14.6838,14.6838,14.697,14.7036,14.7036,14.7102,14.7102,14.7102,14.7102,14.7102,14.7102,14.7102,14.7102,14.7102,14.7102,14.7102,14.7102,14.7102,14.7102,14.7102,14.7102,14.7102,14.7102,14.7102,14.7102,14.7102,14.7102,14.7102,14.7102,14.7102,14.7102,14.7102,14.7102,14.7102,12.3283,12.2672,12.2672,12.2672,12.2672,12.2672,12.3079,12.3574,12.3691,12.4098,12.4651,12.4709,12.4768,12.4651,12.4768,12.5058,12.5466,12.5495,12.5757,12.6367,12.6397,12.6106,12.5641,12.5495,12.5088,12.4768,12.4768,12.4914,12.4419,12.3342,12.2672,12.2898,12.3862,12.551,12.5365,12.7547,12.9191,13.018,13.0768,13.0743,13.0793,13.0543,13.0329,13.0391,12.9504,12.9222,12.8614,12.7527,12.6158,12.6158,12.6158,12.6158,12.6158,12.6158,12.6185,12.6185,12.6212,12.6266,12.6266,12.6158,12.6212,12.6319,12.7112,12.7342,12.7947,12.9606,13.231,13.4676,13.5043,13.6233,13.8442,13.9298,14.0,14.0723,14.1644,14.2761,14.3682,14.3922,14.4514,14.5435,14.6158,14.5961,14.5918,14.5895,14.5895,14.5895,14.5984,14.5984,14.6115,14.6444,14.6707,14.6904,14.697,14.7102,14.7102,14.7102,14.7102,14.7102,14.7102,14.7102,14.7102,14.7102,14.7102,14.7102,14.7102,14.7102,14.7102,14.7102,14.7102,14.7102,14.7102,14.7102,14.7102,14.7102,14.7102,12.2672,12.2672,12.2672,12.2672,12.2672,12.2672,12.2672,12.273,12.2788,12.2672,12.2962,12.2788,12.2904,12.2962,12.2904,12.3342,12.3895,12.4244,12.4709,12.5321,12.5495,12.5,12.436,12.4214,12.3749,12.337,12.3021,12.2672,12.2904,12.2962,12.2784,12.3478,12.3944,12.4078,12.642,12.8833,12.8094,12.9548,13.2974,13.4927,13.4839,13.4488,13.4324,13.3969,13.2902,13.1758,13.1203,12.9222,12.7606,12.7376,12.6953,12.6614,12.642,12.64,12.6266,12.674,12.6873,12.6926,12.7271,12.7139,12.69,12.7271,12.8069,12.8966,12.9707,13.187,13.4605,13.796,13.7872,13.796,13.8334,13.8641,13.9254,13.9912,14.0394,14.1183,14.2235,14.2696,14.3288,14.4142,14.4054,14.4185,14.4734,14.4777,14.4777,14.4777,14.4734,14.4711,14.4843,14.5392,14.5721,14.6312,14.6575,14.697,14.7102,14.7102,14.7102,14.7102,14.7102,14.7102,14.7102,14.7102,14.7102,14.7102,14.7102,14.7102,14.7102,14.7102,14.7102,14.7102,14.7102,14.7102,14.7102,14.7102,14.7102,12.2672,12.2672,12.2672,12.2672,12.2672,12.2672,12.2672,12.2672,12.2672,12.2672,12.2672,12.2672,12.2672,12.2672,12.273,12.276,12.2962,12.3079,12.3283,12.3633,12.3633,12.3486,12.3051,12.2934,12.2962,12.2672,12.2672,12.2672,12.2672,12.2728,12.3668,12.4653,12.695,12.8689,13.0456,13.2101,13.4582,13.5507,13.6733,13.6214,13.4927,13.3732,13.2998,13.2805,13.2651,13.2466,13.2564,13.1154,13.073,13.0253,12.9529,12.8666,12.8381,12.7086,12.7789,13.0404,13.1104,13.1154,13.063,12.9733,12.8666,12.864,12.9094,12.9248,13.0077,13.2042,13.4158,13.5599,13.6331,13.6983,13.84,13.8575,13.8794,13.9123,13.9254,13.9517,14.0657,14.1315,14.1907,14.2038,14.1841,14.2235,14.309,14.3288,14.3288,14.3288,14.3288,14.3288,14.3353,14.4011,14.4823,14.5523,14.6115,14.6575,14.7102,14.7036,14.7102,14.7102,14.7102,14.7102,14.7102,14.7102,14.7102,14.7102,14.7102,14.7102,14.7102,14.7102,14.7102,14.7102,14.7102,14.7102,14.7102,14.7102,14.7102,12.2672,12.2672,12.2672,12.2672,12.2672,12.2672,12.2672,12.2672,12.2672,12.2672,12.2672,12.2672,12.2672,12.2672,12.2672,12.2672,12.2672,12.2672,12.2672,12.2672,12.2672,12.2672,12.273,12.2672,12.2672,12.2672,12.2672,12.2672,12.27,12.2924,12.3561,12.5137,12.7101,12.8971,13.0917,13.4151,13.5574,13.6982,13.8044,13.8731,13.8634,13.8192,13.7146,13.6146,13.51,13.3969,13.3708,13.3118,13.2418,13.2223,13.1377,13.0905,13.0505,13.0026,13.0178,13.1734,13.2174,13.2248,13.2003,13.1599,13.078,13.078,13.0805,13.078,13.1303,13.2539,13.4441,13.5511,13.608,13.7473,13.8444,13.8553,13.8575,13.8575,13.8663,13.8991,13.9452,13.9649,14.0043,14.0372,14.0657,14.1183,14.1797,14.1797,14.1863,14.1863,14.1775,14.1841,14.1863,14.2652,14.3573,14.4297,14.4997,14.5852,14.6904,14.7036,14.7102,14.7102,14.7102,14.7102,14.7102,14.7102,14.7102,14.7102,14.7102,14.7102,14.7102,14.7102,14.7102,14.7102,14.7102,14.7102,14.7102,14.7102,14.7102,12.2672,12.2672,12.2672,12.2672,12.2672,12.2672,12.2672,12.2672,12.2672,12.2672,12.2672,12.2672,12.2672,12.2672,12.2672,12.2672,12.2672,12.2672,12.2672,12.2672,12.2672,12.2672,12.2672,12.2672,12.2756,12.2756,12.284,12.2979,12.3147,12.3536,12.4439,12.5251,12.7319,12.9652,13.1403,13.299,13.6625,13.8534,13.984,14.1044,14.1699,14.1806,14.1367,14.0358,13.7924,13.6727,13.6096,13.4609,13.3445,13.3334,13.3022,13.3158,13.3445,13.3565,13.3565,13.3969,13.404,13.4206,13.3969,13.3286,13.2878,13.2854,13.2854,13.2941,13.3398,13.4722,13.5943,13.6668,13.7562,13.8488,13.8575,13.8575,13.8575,13.8575,13.8575,13.8663,13.8663,13.8794,13.8926,13.9254,13.9802,14.0394,14.0394,14.0394,14.0394,14.0394,14.0372,14.0372,14.0394,14.1052,14.1995,14.2827,14.3659,14.4997,14.6312,14.6312,14.6904,14.6838,14.7102,14.7102,14.7102,14.7102,14.7102,14.7102,14.7102,14.697,14.7036,14.7102,14.7102,14.7102,14.7102,14.7102,14.7102,14.7102,14.7102,12.2672,12.2672,12.2672,12.2672,12.2672,12.2672,12.2672,12.2672,12.2672,12.2672,12.2672,12.2672,12.2672,12.2672,12.2672,12.2672,12.2672,12.2672,12.2672,12.2672,12.2672,12.2672,12.2672,12.2728,12.284,12.3286,12.323,12.3616,12.3948,12.4361,12.6006,12.911,13.0228,13.2484,13.6731,13.8893,13.9661,14.122,14.2093,14.276,14.3179,14.3179,14.3047,14.2301,14.0559,13.9661,13.9285,13.8365,13.7492,13.7518,13.5943,13.6126,13.7093,13.7607,13.7607,13.7408,13.6747,13.646,13.6103,13.5529,13.4722,13.5002,13.4938,13.4938,13.535,13.6603,13.7585,13.8071,13.8159,13.8575,13.8575,13.8575,13.8575,13.8575,13.8575,13.8575,13.8575,13.8575,13.8444,13.8531,13.8926,13.932,13.9254,13.9254,13.9057,13.8904,13.8904,13.8904,13.8926,13.932,14.0175,14.0964,14.1775,14.2959,14.4011,14.434,14.6092,14.6487,14.7102,14.7102,14.7102,14.6641,14.6115,14.651,14.6575,14.6707,14.6641,14.6247,14.6378,14.7102,14.6904,14.6181,14.6444,14.7036,14.6312,12.2672,12.2672,12.2672,12.2672,12.2672,12.2672,12.2672,12.2672,12.2672,12.2672,12.2672,12.2672,12.2672,12.2672,12.2672,12.2672,12.2672,12.2672,12.2672,12.2672,12.2672,12.2672,12.2672,12.2728,12.2756,12.2893,12.3063,12.3889,12.5007,12.5946,12.772,13.063,13.3383,13.6165,13.8358,14.0504,14.2317,14.3659,14.4011,14.4405,14.4997,14.5129,14.4931,14.3879,14.2696,14.1841,14.1863,14.1117,14.046,13.9341,13.7369,13.6453,13.7218,13.6734,13.6318,13.6296,13.6361,13.6296,13.6318,13.5451,13.4902,13.4816,13.562,13.5793,13.6386,13.7545,13.8509,13.8575,13.8531,13.8509,13.8575,13.8509,13.8575,13.8575,13.8575,13.8575,13.8465,13.7895,13.7435,13.7567,13.8005,13.8334,13.8575,13.8794,13.8641,13.8181,13.8181,13.8202,13.8202,13.8137,13.8794,13.9057,13.9868,14.0657,14.1644,14.2893,14.4383,14.4997,14.5655,14.6181,14.6049,14.5589,14.5086,14.4691,14.4428,14.4954,14.5392,14.4889,14.4625,14.5086,14.5217,14.4954,14.498,14.5516,14.5165,12.2672,12.2672,12.2672,12.2672,12.2672,12.2672,12.2672,12.2672,12.2672,12.2672,12.2672,12.2672,12.2672,12.2672,12.2672,12.2672,12.2672,12.2672,12.2672,12.2672,12.2672,12.2672,12.2672,12.2672,12.284,12.3147,12.3091,12.4357,12.6207,12.7634,12.9325,13.2347,13.5737,13.8124,13.9552,14.2304,14.4011,14.5172,14.5458,14.5984,14.6707,14.6838,14.6378,14.5523,14.4471,14.3748,14.3442,14.2718,14.1863,14.0526,13.8685,13.724,13.6624,13.5681,13.5068,13.4783,13.4542,13.441,13.4323,13.4457,13.4302,13.4482,13.5227,13.5988,13.6054,13.6953,13.7479,13.7676,13.7676,13.7348,13.7348,13.7545,13.7413,13.7282,13.7348,13.7479,13.7413,13.6646,13.6076,13.6186,13.6822,13.7589,13.7611,13.7348,13.7413,13.7611,13.7545,13.7611,13.7479,13.7282,13.7216,13.7019,13.7632,13.7895,13.8816,13.9737,14.1052,14.1907,14.3485,14.4471,14.4274,14.3879,14.3639,14.3179,14.2521,14.3047,14.3705,14.331,14.3244,14.3113,14.3113,14.3442,14.3819,14.4048,14.4027,12.2672,12.2672,12.2672,12.2672,12.2555,12.2613,12.2381,12.2613,12.2497,12.2555,12.2613,12.2613,12.2672,12.2672,12.2672,12.2672,12.2672,12.2672,12.2672,12.2672,12.2672,12.2672,12.27,12.2728,12.3203,12.381,12.42,12.5898,12.8138,12.8966,13.1765,13.5713,13.7204,13.9905,14.2907,14.4352,14.5566,14.6575,14.6641,14.6838,14.6838,14.6838,14.6575,14.6181,14.5721,14.526,14.4142,14.2564,14.0986,14.0701,14.046,13.8619,13.6602,13.6339,13.5549,13.4476,13.395,13.3884,13.4147,13.3884,13.4081,13.4016,13.4213,13.4542,13.4607,13.4936,13.5265,13.5331,13.4805,13.5133,13.5199,13.4936,13.5133,13.5199,13.487,13.4783,13.4718,13.4673,13.4542,13.4607,13.4673,13.4805,13.4739,13.4739,13.4936,13.5901,13.5704,13.5791,13.5791,13.5857,13.577,13.5572,13.5594,13.5528,13.612,13.6909,13.8246,13.9364,14.1271,14.1775,14.1578,14.092,14.1337,14.1469,14.0482,14.0548,14.1271,14.1863,14.2258,14.2106,14.1647,14.2153,14.279,14.318,14.3807,12.1538,12.148,12.0696,12.0405,12.0405,12.0405,12.0405,12.0521,12.1189,12.1538,12.1713,12.2294,12.2672,12.2672,12.2672,12.2672,12.2672,12.2672,12.2613,12.2613,12.2613,12.2555,12.2697,12.2977,12.3311,12.3896,12.4227,12.648,12.9508,13.0392,13.3661,13.8044,14.0114,14.2076,14.4843,14.5763,14.6575,14.697,14.7102,14.6684,14.5961,14.5895,14.5566,14.4757,14.4625,14.4494,14.3814,14.2652,14.1512,14.0526,13.9079,13.7764,13.647,13.4892,13.3642,13.3095,13.2154,13.1759,13.1693,13.1759,13.1759,13.1891,13.2635,13.2898,13.3095,13.3884,13.4279,13.4213,13.4279,13.4279,13.4279,13.4279,13.4279,13.4016,13.2745,13.1759,13.1693,13.2482,13.2898,13.3161,13.3687,13.4344,13.4344,13.4344,13.4344,13.4213,13.4016,13.4081,13.4081,13.4344,13.4476,13.4673,13.4739,13.4542,13.4849,13.5725,13.6843,13.7391,13.8619,13.8334,13.7545,13.623,13.7172,13.8246,13.7983,13.7786,13.772,13.7983,13.9035,13.9911,14.0241,14.0601,14.1705,14.2446,14.3229,12.1247,12.1131,12.0145,11.9591,11.9273,11.9273,11.9156,11.8924,11.9823,12.0172,12.0347,12.1247,12.148,12.1596,12.1538,12.1654,12.148,12.1538,12.1713,12.2004,12.1829,12.1654,12.1738,12.1985,12.2175,12.2419,12.2958,12.5643,12.9685,13.0013,13.3516,13.9444,14.0697,14.2388,14.4274,14.5326,14.6007,14.6007,14.5984,14.5392,14.4603,14.4448,14.3879,14.2915,14.2981,14.2915,14.285,14.285,14.2126,14.0263,13.8027,13.6909,13.6339,13.4629,13.3247,13.2306,13.1188,13.0444,13.0115,12.9984,12.9984,12.9963,13.097,13.1385,13.143,13.2482,13.3008,13.3161,13.314,13.3008,13.3095,13.3029,13.3029,13.2898,13.1365,13.0115,13.0247,13.0773,13.1451,13.1496,13.2372,13.2832,13.2898,13.2898,13.2877,13.2877,13.2898,13.2832,13.2569,13.2635,13.2417,13.2963,13.3292,13.3271,13.3534,13.441,13.5002,13.5418,13.5265,13.5046,13.3994,13.3206,13.4344,13.5484,13.5791,13.6054,13.5528,13.5068,13.5484,13.647,13.6933,13.7597,13.9121,14.1547,14.2358,12.2469,12.2555,12.2353,12.1219,12.0231,12.0114,11.9389,11.8749,11.8866,11.8924,11.8982,11.9273,11.9273,11.9156,11.9447,11.9389,11.904,11.9331,11.9882,12.0227,11.9707,11.9413,11.9498,11.9638,11.9961,12.0358,12.0997,12.3612,12.8114,12.8928,13.1843,13.8355,13.9408,14.0306,14.2784,14.3047,14.3442,14.3507,14.3376,14.3333,14.3047,14.2981,14.2784,14.2652,14.2521,14.2521,14.2389,14.2389,14.1403,13.9189,13.8597,13.7764,13.6712,13.6339,13.4694,13.2503,13.1977,13.1122,13.0247,12.9984,12.9852,12.9852,13.005,12.9984,13.0181,13.051,13.0707,13.0641,13.0576,13.0444,13.0444,13.051,13.0378,13.0181,12.9852,12.9766,12.9832,12.9984,13.0247,13.0181,13.005,13.0181,13.0576,13.051,13.051,13.051,13.0576,13.0707,13.0707,13.0904,13.0378,13.051,13.097,13.1102,13.1496,13.2219,13.2285,13.2503,13.2154,13.1825,13.1102,13.1628,13.2635,13.349,13.4147,13.4323,13.4192,13.3797,13.3884,13.4651,13.4933,13.4516,13.6312,13.9403,14.1108,11.8978,11.8862,11.8105,11.7439,11.709,11.7031,11.6799,11.6508,11.7148,11.802,11.8633,11.8749,11.9156,11.9707,11.9098,11.8807,11.8749,11.8749,11.8765,11.8568,11.7886,11.8263,11.9233,11.926,11.9691,12.0757,12.2443,12.5413,12.921,13.0864,13.4276,13.8989,13.9912,14.092,14.2652,14.285,14.285,14.285,14.2784,14.2389,14.1732,14.1512,14.114,14.0328,14.0197,14.0175,14.0175,14.0197,13.9671,13.8838,13.8575,13.84,13.7808,13.6843,13.601,13.4629,13.3182,13.178,13.1167,13.0181,12.9852,12.9852,12.9852,12.9852,12.9852,12.9852,12.9852,12.9852,12.9787,12.9852,12.9832,12.9832,12.9392,12.8644,12.8492,12.8932,12.9721,12.9852,12.9787,12.9721,12.9721,12.9852,12.9852,12.9852,12.9852,12.9852,12.9852,12.9852,12.9852,12.9852,12.9918,12.9984,12.9852,12.9852,12.9852,12.9852,12.9852,12.9589,12.9458,12.9261,12.9458,13.0333,13.0925,13.1846,13.2219,13.2351,13.2745,13.2417,13.2389,13.3792,13.4654,13.5094,13.611,13.8688,14.0051,11.7465,11.7322,11.645,11.5842,11.5461,11.5487,11.5228,11.5027,11.6275,11.709,11.7644,11.84,11.8776,11.8718,11.8486,11.7985,11.7913,11.8671,11.8451,11.7725,11.7284,11.7911,11.8891,11.8794,11.931,12.0651,12.2592,12.5303,12.8441,13.0811,13.4262,13.8006,13.9079,14.0131,14.1337,14.1534,14.1512,14.1512,14.1512,14.1117,14.0197,14.0043,13.9649,13.8728,13.8575,13.8334,13.7939,13.7479,13.7282,13.7238,13.7282,13.7282,13.7085,13.6317,13.5615,13.4957,13.3029,13.1714,13.0793,12.9696,12.8932,12.8537,12.8472,12.8537,12.8558,12.8406,12.8406,12.8472,12.8537,12.8537,12.8537,12.8537,12.8011,12.7111,12.7065,12.744,12.8077,12.834,12.8537,12.8537,12.8472,12.8537,12.8472,12.8406,12.8274,12.8274,12.834,12.8669,12.8998,12.8998,12.9195,12.9787,12.9852,12.9852,12.9852,12.9852,12.9063,12.8143,12.79,12.7703,12.8426,12.9236,12.961,13.007,13.0181,13.0444,13.0904,13.097,13.0904,13.1767,13.3133,13.4771,13.6623,13.8021,13.9121,11.8633,11.8458,11.8691,11.7555,11.6508,11.6418,11.5953,11.5144,11.6186,11.6186,11.5953,11.7582,11.7461,11.5979,11.6869,11.6589,11.6549,11.8182,11.8555,11.75,11.7357,11.7705,11.8485,11.7488,11.7736,11.8842,11.9926,12.2278,12.596,12.8717,13.1754,13.4507,13.6514,13.7961,13.8728,13.9057,13.886,13.8991,13.9057,13.886,13.8575,13.8772,13.8728,13.8597,13.8334,13.7676,13.6536,13.5265,13.4739,13.4607,13.4607,13.441,13.4673,13.4607,13.3839,13.2766,13.2109,13.0682,12.8578,12.8052,12.7374,12.6585,12.5862,12.6059,12.619,12.6059,12.6059,12.6125,12.6059,12.5927,12.5993,12.573,12.5533,12.5599,12.5579,12.5664,12.5862,12.573,12.5664,12.5907,12.6059,12.573,12.573,12.6059,12.6256,12.619,12.619,12.6519,12.7506,12.7723,12.8295,12.9129,12.9129,12.88,12.9326,12.9589,12.7986,12.671,12.6573,12.6585,12.744,12.7789,12.8032,12.8481,12.8613,12.9214,12.9717,13.0756,13.0519,12.994,13.0963,13.2378,13.4587,13.6715,13.7928,11.6915,11.619,11.6159,11.5842,11.5519,11.5546,11.5286,11.4996,11.5345,11.5752,11.618,11.6472,11.6747,11.6885,11.7573,11.7392,11.6529,11.7143,11.7379,11.6882,11.5915,11.6282,11.7472,11.7345,11.7575,11.8391,11.9586,12.2726,12.7129,13.0432,13.3743,13.6911,13.7611,13.8137,13.8465,13.8575,13.8575,13.8575,13.8575,13.8597,13.8575,13.8575,13.8575,13.8334,13.6712,13.5462,13.5002,13.4607,13.4279,13.4279,13.4279,13.4279,13.4279,13.4279,13.4081,13.3555,13.2569,13.1517,13.053,12.8775,12.746,12.6999,12.6144,12.5599,12.5599,12.5599,12.5599,12.5599,12.5599,12.5599,12.527,12.3823,12.31,12.3916,12.4132,12.4461,12.5381,12.5533,12.5533,12.5401,12.5401,12.5467,12.5599,12.5533,12.5467,12.5599,12.5599,12.5664,12.619,12.6256,12.6519,12.6848,12.7177,12.7242,12.7371,12.7502,12.6332,12.6075,12.5962,12.5928,12.6256,12.6276,12.6447,12.6955,12.7436,12.8098,12.9055,13.0357,13.0057,12.8916,12.9865,13.1744,13.3592,13.5449,13.6916,11.3858,11.3509,11.3483,11.3483,11.3483,11.3483,11.3483,11.3541,11.3981,11.4414,11.4842,11.5713,11.6151,11.6328,11.7256,11.731,11.6662,11.7315,11.7466,11.7167,11.6555,11.6752,11.7583,11.7157,11.7393,11.8334,11.9793,12.3276,12.83,13.0872,13.3492,13.5882,13.6756,13.7085,13.7019,13.7085,13.7019,13.7019,13.7019,13.7019,13.6953,13.7106,13.6756,13.6164,13.3929,13.268,13.268,13.27,13.2745,13.268,13.27,13.268,13.268,13.268,13.268,13.2614,13.178,13.0991,13.0267,12.8229,12.6736,12.6125,12.4829,12.3955,12.402,12.402,12.402,12.3955,12.402,12.402,12.3626,12.2461,12.1672,12.2508,12.2686,12.3015,12.3757,12.402,12.402,12.402,12.404,12.402,12.3823,12.3955,12.404,12.404,12.402,12.4218,12.4593,12.4809,12.5053,12.5401,12.5572,12.5577,12.5621,12.5551,12.5569,12.5551,12.5647,12.5751,12.6067,12.6303,12.6836,12.7471,12.6744,12.7215,12.792,12.9036,12.8606,12.8107,13.0001,13.1875,13.3713,13.3841,13.5324,11.0018,11.0982,11.1066,11.1157,11.104,11.1098,11.1098,11.1357,11.2404,11.2229,11.1931,11.4914,11.5585,11.4012,11.5462,11.6147,11.6521,11.7938,11.8328,11.7828,11.8387,11.8596,11.8029,11.6942,11.7037,11.8264,11.9998,12.3448,12.8138,12.9563,13.0625,13.2285,13.3884,13.4476,13.4542,13.4607,13.4389,13.4607,13.4607,13.4476,13.441,13.4257,13.3424,13.2174,13.0641,13.0115,13.0029,12.9918,12.9984,12.9918,12.9918,12.9852,12.9787,12.9721,12.9655,12.9655,12.9655,12.9063,12.7723,12.6322,12.4987,12.3653,12.2311,12.1278,12.1409,12.1212,12.1212,12.1212,12.1212,12.1061,12.1061,12.0686,12.0817,12.0949,12.1061,12.1212,12.1278,12.1606,12.1343,12.1475,12.1672,12.1804,12.1541,12.1343,12.1606,12.1672,12.1475,12.2031,12.3266,12.3595,12.423,12.5119,12.5588,12.5574,12.5609,12.556,12.5595,12.5578,12.5673,12.5901,12.646,12.6946,12.7624,12.7932,12.7121,12.6814,12.7179,12.7331,12.7338,12.8735,13.0679,13.143,13.27,13.2451,13.3537,11.1596,11.104,11.0982,11.0982,11.0982,11.0982,11.0982,11.1091,11.1745,11.1897,11.1765,11.351,11.3607,11.2563,11.3644,11.4253,11.4387,11.525,11.5404,11.4921,11.5454,11.605,11.6797,11.7276,11.7814,11.8369,11.9693,12.1855,12.4728,12.8601,13.1777,13.3452,13.406,13.4279,13.4279,13.4279,13.4279,13.4279,13.4279,13.4279,13.4016,13.2219,13.0839,13.051,13.0029,12.9852,12.9852,12.9852,12.9852,12.9852,12.8821,12.8295,12.8229,12.7308,12.6716,12.6782,12.6762,12.6519,12.619,12.4856,12.3804,12.3324,12.1108,11.9727,11.9549,11.8694,11.8562,11.9417,11.8713,11.8102,11.8036,11.8055,11.8055,11.8102,11.9154,11.9746,11.9812,12.0751,12.1212,12.1343,12.1014,12.1343,12.1278,12.1278,12.1278,12.1278,12.1297,12.1826,12.3046,12.3437,12.3924,12.532,12.5528,12.5575,12.5611,12.567,12.559,12.559,12.579,12.5976,12.5866,12.5952,12.6395,12.7835,12.7488,12.7306,12.7517,12.7713,12.7856,13.0245,13.2088,13.3112,13.1881,13.3112,13.3864,10.9121,10.7924,10.7866,10.8338,10.9027,10.9176,10.9592,11.0118,11.0218,11.0342,11.0604,11.0539,11.0185,10.947,11.0244,11.1078,11.1861,11.2476,11.3204,11.4278,11.4328,11.4967,11.6164,11.6498,11.6942,11.753,11.9842,12.1532,12.3358,12.8015,13.1275,13.2378,13.2482,13.2503,13.2503,13.2482,13.2482,13.2482,13.2482,13.2503,13.224,13.0202,12.9296,12.9763,12.9293,12.9028,12.9047,12.9028,12.8692,12.8138,12.7308,12.6868,12.6802,12.6059,12.5599,12.5599,12.5599,12.5599,12.5533,12.4264,12.3455,12.3455,12.1305,11.9746,11.9154,11.8299,11.7839,11.8018,11.6834,11.6243,11.6787,11.6853,11.6787,11.6918,11.7642,11.8234,11.8234,11.8957,11.9502,11.9483,11.9483,11.9436,11.9568,12.0028,12.0601,12.1212,12.1343,12.1525,12.2377,12.3098,12.373,12.4505,12.5133,12.5398,12.5454,12.5877,12.6338,12.6461,12.6845,12.7345,12.7414,12.6959,12.6688,12.7414,12.6995,12.683,12.7534,12.7587,12.7467,12.914,13.1214,13.1475,13.0497,13.1544,13.2409,10.4854,10.3644,10.3808,10.4488,10.6085,10.643,10.7267,10.8294,10.8051,10.8148,10.8438,10.698,10.6392,10.6318,10.6438,10.75,10.9151,10.9788,11.158,11.4079,11.397,11.4428,11.535,11.4608,11.4787,11.6392,11.9597,12.1159,12.1814,12.6662,12.9379,12.9606,12.9791,12.9984,12.9918,12.9918,12.9898,12.9852,12.9569,12.9437,12.9326,12.8163,12.8208,12.9796,12.8485,12.7822,12.8226,12.7988,12.7272,12.5926,12.5743,12.5513,12.5355,12.5204,12.5138,12.5072,12.5138,12.5204,12.5072,12.4001,12.3192,12.3127,12.1785,12.0423,11.9267,11.9154,11.8497,11.705,11.5585,11.5322,11.6458,11.6327,11.6129,11.6082,11.6392,11.6655,11.6655,11.6721,11.6787,11.6787,11.7181,11.6853,11.7313,11.8168,11.9351,12.0291,12.0518,12.1041,12.1764,12.2665,12.3484,12.3625,12.4484,12.515,12.5319,12.6415,12.6751,12.7132,12.8329,12.855,12.8261,12.7759,12.7708,12.7355,12.7249,12.664,12.7024,12.7007,12.6752,12.8613,12.8522,12.7944,12.779,12.8611,12.9103,10.619,10.4489,10.4512,10.4676,10.5064,10.518,10.5404,10.571,10.6048,10.6396,10.6788,10.6078,10.594,10.6318,10.6341,10.6571,10.7018,10.7192,10.767,10.8474,10.9271,11.0382,11.1663,11.2537,11.3495,11.4838,11.6615,11.8342,12.0033,12.3477,12.6113,12.7629,12.9127,12.9852,12.9852,12.9852,12.9852,12.9721,12.7617,12.6519,12.6519,12.6256,12.6779,12.8086,12.7882,12.8214,12.931,12.9363,12.8704,12.7337,12.6186,12.5042,12.3967,12.2902,12.2264,12.2264,12.2264,12.2264,12.2198,12.1935,12.1804,12.1719,12.0469,11.9483,11.922,11.9154,11.8497,11.6966,11.5585,11.4796,11.5059,11.4288,11.3517,11.3583,11.4485,11.5125,11.5274,11.6195,11.6787,11.6787,11.6787,11.6721,11.6853,11.7181,11.751,11.8024,11.8816,12.0405,12.2223,12.2862,12.3114,12.3449,12.4303,12.4952,12.5189,12.5541,12.5682,12.5682,12.609,12.6442,12.6415,12.6134,12.6036,12.6303,12.6535,12.7061,12.749,12.793,12.8516,12.8409,12.7714,12.7312,12.7175,12.6794,12.5963,10.4641,10.3185,10.3044,10.3204,10.3385,10.3977,10.4683,10.541,10.453,10.4323,10.4524,10.4241,10.4323,10.4546,10.4546,10.4905,10.5444,10.5421,10.6101,10.7261,10.7942,10.9364,11.1184,11.1423,11.2501,11.4359,11.6157,11.7902,11.97,12.307,12.5286,12.6316,12.7328,12.79,12.79,12.788,12.788,12.79,12.7686,12.7631,12.765,12.8254,12.9328,13.0788,12.9409,12.9089,12.995,12.928,12.82,12.6765,12.5379,12.4282,12.3479,12.2072,12.1343,12.1343,12.1343,12.1343,12.1343,12.1343,12.1343,12.1278,12.062,11.9878,11.922,11.8497,11.8018,11.7839,11.5914,11.4665,11.4665,11.3367,11.2548,11.2548,11.3236,11.3678,11.3828,11.4485,11.4898,11.488,11.4898,11.4832,11.4832,11.5472,11.5848,11.5976,11.7756,11.9702,12.1696,12.1927,12.1867,12.1938,12.2527,12.3009,12.3063,12.357,12.4062,12.4133,12.4696,12.5119,12.5189,12.5175,12.5175,12.5259,12.5795,12.6372,12.6428,12.6654,12.6583,12.6513,12.5386,12.488,12.5034,12.4119,12.2852,10.2422,10.1284,10.1225,10.1447,10.1823,10.2953,10.4367,10.5541,10.341,10.2475,10.2475,10.2475,10.2475,10.2475,10.2475,10.3073,10.4068,10.4068,10.5287,0.0,10.7486,10.8803,11.116,11.0262,11.1219,11.3903,11.6379,11.8297,11.9892,12.3378,12.5156,12.5221,12.5414,12.5599,12.5599,12.5599,12.5335,12.5026,12.754,12.889,12.9114,13.0345,13.1877,13.3641,13.1007,12.9747,13.0307,12.8862,12.7461,12.6213,12.5031,12.4144,12.3779,12.2587,12.1648,12.1026,12.0941,12.0913,12.0639,12.0686,12.0686,12.0686,12.0686,12.0028,11.8628,11.7492,11.7379,11.8562,11.6243,11.4665,11.4599,11.3367,11.2548,11.2548,11.2548,11.2548,11.2614,11.268,11.2745,11.2745,11.2548,11.268,11.2895,11.3946,11.4783,11.5142,11.7191,11.9242,12.0278,12.0517,12.0566,12.0572,12.0572,12.0572,12.0995,12.1725,12.2373,12.2527,12.357,12.4119,12.4119,12.4133,12.4119,12.4401,12.4626,12.4696,12.4401,12.3499,12.3288,12.2781,12.1642,12.1065,12.2429,12.0867,11.9517,10.2968,10.2234,10.2234,10.2218,10.2344,10.2545,10.2806,10.3073,0.0,0.0,0.0,10.2475,10.2475,10.2475,10.2475,10.2595,10.2774,10.2752,10.3013,10.3454,10.3492,10.427,10.5825,10.6662,10.8621,11.1635,11.434,11.649,11.8302,12.1547,12.315,12.3295,12.4835,12.5599,12.5599,12.5599,12.4415,12.2218,12.2571,12.3412,12.4579,12.4818,12.6836,13.0756,12.9053,12.927,13.1693,13.0263,12.9421,12.9286,12.9036,12.7768,12.5356,12.4949,12.3197,11.976,11.9352,11.8837,11.7687,11.7642,11.7576,11.7595,11.7576,11.6984,11.5567,11.6327,11.6918,11.7181,11.5698,11.4665,11.4665,11.3367,11.2548,11.2548,11.2548,11.2548,11.2548,11.2548,11.2482,11.2548,11.2548,11.2548,11.2566,11.3742,11.4544,11.4829,11.6891,11.8783,11.9052,11.9884,12.0572,12.0572,12.0572,12.0572,12.0572,12.0867,12.0924,12.1078,12.129,12.1347,12.1347,12.1347,12.1347,12.1642,12.2429,12.2584,12.1725,12.1937,12.2429,12.1149,11.9728,11.9107,12.0163,11.77,11.5517,10.2771,0.0,10.2475,10.2475,0.0,10.2475,10.3415,10.5025,10.4983,10.5004,10.4942,10.4121,10.3718,10.3654,10.2829,10.2475,10.2475,10.2475,10.2475,10.2519,10.3994,10.4571,10.4471,10.6607,10.881,11.1087,11.337,11.5798,11.8235,12.0715,12.1951,12.1951,12.2933,12.3382,12.3382,12.3448,12.2705,12.1343,12.2808,12.3873,12.4657,12.6035,12.7843,12.987,0.0,0.0,0.0,0.0,0.0,0.0,0.0,0.0,0.0,0.0,0.0,12.1272,12.1137,12.0832,12.0162,12.0092,11.9158,11.7003,11.6799,11.5604,11.2565,11.3116,11.4808,11.7507,11.5246,11.3631,11.3565,11.2991,11.2267,11.1526,11.146,11.1807,11.2351,11.1938,11.1741,11.2333,11.2548,11.2548,11.2548,11.3685,11.446,11.4659,11.6836,11.8617,11.8691,11.9715,12.0502,12.0572,12.0572,12.0572,12.0572,12.0572,12.0572,12.0572,12.0572,12.0572,12.0572,12.0572,12.0572,12.0572,12.0445,12.0317,11.9459,11.8628,11.7937,11.7066,11.5729,11.5236,11.649,11.5165,11.3969,10.3394,10.3394,10.3394,10.3394,10.3333,10.2829,10.4184,10.6661,10.668,10.6661,10.6625,10.5536,10.5069,10.4925,10.3894,10.3222,10.2898,10.3243,10.32,10.3023,10.5752,10.6324,10.5217,10.7981,11.0155,11.168,11.3729,11.6255,11.907,12.0577,12.1343,12.1343,12.1343,12.1343,12.1343,0.0,0.0,0.0,12.3711,12.5219,12.5799,12.7985,12.9567,13.0416,13.0072,0.0,12.9807,12.9611,12.8836,12.7541,12.6087,0.0,0.0,0.0,0.0,0.0,0.0,0.0,0.0,0.0,0.0,0.0,11.4819,11.3318,10.9533,10.9326,11.1572,11.6539,11.4321,11.2354,11.2112,11.1879,11.123,11.0114,10.9751,11.0266,11.1779,11.1087,11.0877,11.2274,11.2708,11.2907,11.3029,11.4293,11.5278,11.5552,11.7366,11.8834,11.8961,11.9879,12.0489,12.0572,12.0572,12.0572,12.0572,12.0572,12.0572,12.0572,12.0572,12.0572,12.0572,12.0572,12.0572,12.0502,11.9517,11.8602,11.7827,11.5786,11.425,11.3277,11.2163,11.1612,11.2846,11.3103,11.3418,10.6799,10.6861,10.6861,10.6861,10.6611,10.4159,10.3373,10.3777,10.3796,10.3796,10.3777,10.484,10.5326,10.5369,10.6378,10.6053,10.4796,10.6175,10.6053,10.4734,10.6585,10.7312,10.7237,10.9903,11.2164,11.3971,11.6666,11.9021,12.0952,12.1182,12.1343,12.1343,12.1343,12.1343,12.1343,12.1343,12.1343,12.1278,12.1638,12.3092,12.5527,12.5947,12.799,13.1623,13.0566,12.9878,12.9807,12.8554,12.771,12.7498,12.6021,12.4447,12.2915,12.1389,11.8948,0.0,11.5101,0.0,0.0,0.0,0.0,0.0,0.0,0.0,0.0,10.5781,10.7191,11.056,11.1541,11.1574,11.0463,10.9213,10.8545,10.8506,10.7449,10.7623,10.9987,11.0216,11.0583,11.19,11.3207,11.4069,11.4074,11.6454,11.8028,11.793,11.9005,11.9886,12.0204,12.0325,12.0432,12.0572,12.0572,12.0572,12.0572,12.0572,12.0572,12.0572,12.0572,12.0572,12.0572,12.0572,12.0572,12.0502,12.0137,11.9165,11.6573,11.5812,11.4544,11.2105,11.1389,11.1379,11.1761,11.1759,11.1529,10.5092,10.5155,10.5112,10.6166,10.7867,10.6541,10.6025,10.6043,10.6025,10.6025,10.6107,10.6652,10.6454,10.5565,10.5245,10.4746,10.4096,10.4762,10.5142,10.5297,10.6905,10.7639,10.7621,11.0431,11.2233,11.3178,11.5116,11.7009,11.8769,11.968,12.0075,12.0159,12.0883,12.0488,11.891,11.968,12.0094,12.0094,12.1682,12.348,12.5507,12.6365,12.7254,12.8373,12.8464,12.8132,12.7287,12.5752,12.4542,12.3669,12.2134,12.0599,11.905,11.825,11.703,0.0,0.0,0.0,0.0,0.0,0.0,0.0,0.0,0.0,0.0,0.0,10.6876,10.6081,10.7302,10.7939,10.7407,10.8256,10.8568,10.793,10.8029,10.8598,10.9682,10.9857,11.01,11.0649,11.2048,11.3017,11.3047,11.5523,11.7285,11.7299,11.7672,11.8596,12.0207,11.982,11.9503,12.0361,12.0572,12.0572,12.0572,12.0572,12.0572,12.0572,12.0572,12.0572,12.0572,12.0572,12.0572,12.0432,11.9094,11.7405,11.6151,11.4645,11.3135,11.1713,11.1275,11.1287,11.1505,11.1469,11.1433,10.4443,10.4379,10.3661,10.4868,10.7218,10.7284,10.7218,10.7235,10.7218,10.7218,10.7235,10.7218,10.6522,10.5288,10.434,10.3902,10.3799,10.4256,10.4809,10.5576,10.717,10.7877,10.7793,11.0386,11.1827,11.2309,11.3268,11.482,11.6816,11.7708,11.8299,11.8628,11.9351,11.8562,11.644,11.7839,11.8628,11.8628,12.108,12.29,12.3981,12.575,12.6192,12.5336,12.637,12.609,12.419,12.2922,12.1373,11.9517,11.7546,11.594,11.4826,11.4109,0.0,0.0,0.0,0.0,0.0,0.0,0.0,0.0,0.0,10.1532,10.2951,0.0,10.5581,0.0,10.4457,10.5419,10.5131,10.6841,0.0,0.0,10.7557,10.8519,10.9061,10.9215,10.9329,10.9456,11.0789,11.178,11.1765,11.4301,11.5871,11.5119,11.5172,11.6368,11.9112,11.8463,11.8109,11.9094,11.9305,11.9402,11.9384,11.9538,11.9424,11.9546,11.9559,11.963,11.9559,11.9643,11.9533,11.934,11.7508,11.5933,11.5319,11.3567,11.2128,11.1755,11.1601,11.1517,11.1696,11.1684,11.1708,10.7844,10.763,10.501,10.4046,10.4342,10.4342,10.4276,10.4342,10.4359,10.4342,10.4359,10.4342,10.4276,10.4226,10.5373,0.0,10.5581,10.7154,10.6978,10.5792,10.7437,10.821,10.8303,10.9801,11.1201,11.255,11.2615,11.4114,11.659,11.5585,11.5717,11.6918,11.5782,11.5107,11.4928,11.6261,11.6984,11.7021,11.8567,11.9421,11.9577,12.2034,12.3977,12.5136,12.5345,12.3978,12.1052,12.0784,11.9305,11.6292,11.3348,11.167,11.1529,0.0,0.0,0.0,0.0,0.0,0.0,0.0,0.0,0.0,0.0,0.0,0.0,0.0,0.0,0.0,10.4854,0.0,10.4893,10.3803,0.0,0.0,0.0,10.4866,10.7401,10.7657,10.8034,10.8796,0.0,0.0,11.1257,11.392,11.4827,11.1956,11.2863,11.4333,11.6036,11.6106,11.6068,11.6388,11.6304,11.6381,11.6892,11.693,11.7076,11.7193,11.6925,11.7018,11.7076,11.7005,11.6872,11.6801,11.6423,11.5725,11.4006,11.3468,11.3172,11.2237,11.2128,11.2128,11.1986,11.1907,11.179,10.4654,10.2879,10.1778,10.1302,10.1302,10.1302,10.1318,10.1302,10.1252,10.1302,10.1318,10.1318,10.1318,10.1302,10.1909,0.0,0.0,0.0,10.3619,10.4716,10.5373,10.6643,10.827,10.8796,10.9405,10.9948,10.9948,11.0522,11.1623,11.1969,11.1526,11.0426,0.0,0.0,11.1854,11.3463,11.501,11.6639,11.9025,12.0615,12.1421,12.3319,12.4126,12.3767,12.2852,12.136,11.9165,11.7264,11.5306,11.3136,11.0966,10.9417,0.0,0.0,0.0,0.0,0.0,0.0,0.0,0.0,0.0,0.0,0.0,9.6032,9.6249,0.0,0.0,0.0,10.0488,10.1349,10.1895,10.297,0.0,0.0,0.0,0.0,0.0,0.0,0.0,10.5188,10.8727,11.0761,10.8915,10.9691,11.0749,11.1326,11.0288,11.0782,11.4391,0.0,11.3985,11.6029,11.6336,11.6373,11.6473,11.7288,11.7609,11.6762,11.651,11.6361,11.6211,11.6173,11.6148,11.5919,11.5247,11.4438,11.3853,11.1517,10.9691,10.9389,10.9315,10.9372,10.9507,11.0232,11.0838,10.1433,0.0,0.0,0.0,0.0,9.9527,9.9527,9.9527,9.9527,9.9527,9.9527,9.9527,0.0,0.0,0.0,0.0,0.0,0.0,10.066,10.2698,10.2698,10.38,10.5706,10.5772,10.5986,10.638,10.6364,10.6561,10.7021,10.7235,10.6266,10.4309,0.0,0.0,0.0,0.0,11.3287,11.5242,11.8174,12.0208,12.1095,12.285,12.3077,12.1528,12.0023,11.8461,11.6912,11.4263,11.2163,11.0614,10.8643,0.0,0.0,0.0,0.0,0.0,0.0,0.0,0.0,0.0,0.0,0.0,0.0,0.0,0.0,0.0,0.0,0.0,0.0,0.0,9.8041,10.0022,10.1901,0.0,0.0,0.0,0.0,0.0,0.0,0.0,0.0,0.0,10.5564,10.5449,10.6687,0.0,0.0,10.7691,11.1732,11.1555,11.1708,11.3633,11.4731,0.0,0.0,11.5786,11.659,11.5077,11.5087,11.5201,11.5018,11.413,11.3657,11.4093,11.2881,11.1894,11.1873,10.9499,10.7649,10.7514,10.7525,10.7592,10.7817,10.906,11.0079,0.0,0.0,0.0,0.0,0.0,0.0,0.0,0.0,9.9461,9.9395,0.0,9.933,0.0,0.0,0.0,0.0,0.0,9.9395,0.0,0.0,9.9724,9.9724,9.9921,9.9921,10.0594,10.1794,10.1925,10.2649,10.3832,10.1318,0.0,0.0,0.0,0.0,0.0,0.0,11.2026,11.2259,11.4961,11.6437,11.6605,11.9208,11.9939,11.8403,11.6855,11.5319,11.37,11.2151,11.0532,10.8995,10.6108,0.0,0.0,0.0,0.0,0.0,0.0,0.0,0.0,0.0,0.0,0.0,0.0,0.0,0.0,0.0,0.0,0.0,0.0,0.0,0.0,9.3574,0.0,0.0,0.0,0.0,0.0,0.0,0.0,0.0,0.0,0.0,10.1338,10.2033,10.3382,10.5001,0.0,0.0,0.0,0.0,10.9192,10.7951,11.016,11.1174,10.8489,11.0596,11.2169,11.0864,0.0,0.0,11.2823,11.015,10.8538,10.9959,10.9013,10.7871,10.7931,10.7658,10.7603,10.788,10.7841,10.8016,10.8109,10.9065,10.9778,0.0,0.0,0.0,0.0,0.0,0.0,0.0,0.0,0.0,9.4809,0.0,9.3984,0.0,0.0,0.0,0.0,0.0,0.0,0.0,0.0,9.8112,9.8622,9.9527,9.9527,9.979,0.0,10.025,9.9148,0.0,0.0,0.0,0.0,0.0,0.0,0.0,0.0,10.9575,11.2852,11.4163,11.512,11.5946,11.6999,11.7194,11.6644,11.6151,11.4673,11.208,11.0473,10.8995,0.0,0.0,0.0,0.0,0.0,0.0,0.0,0.0,0.0,0.0,0.0,0.0,0.0,0.0,0.0,0.0,0.0,0.0,0.0,0.0,0.0,0.0,0.0,9.4687,0.0,0.0,0.0,0.0,0.0,0.0,0.0,0.0,0.0,9.9511,10.0475,10.1873,10.3273,10.3475,10.4025,10.581,0.0,0.0,0.0,0.0,0.0,0.0,0.0,11.1421,11.0519,11.1147,11.158,11.1094,10.816,10.6432,10.8004,0.0,0.0,10.5055,10.4905,10.4926,10.5009,10.5897,10.6243,10.5244,10.7099,10.8455,0.0,0.0,0.0,0.0,0.0,0.0,0.0,0.0,0.0,9.0404,8.9591,0.0,0.0,0.0,0.0,0.0,0.0,0.0,0.0,0.0,0.0,0.0,9.665,9.716,0.0,0.0,0.0,0.0,0.0,0.0,0.0,0.0,0.0,0.0,0.0,0.0,10.8481,11.1861,11.3156,11.4178,11.507,11.5575,11.5588,11.5095,11.5108,11.3828,11.1236,0.0,0.0,0.0,0.0,0.0,0.0,0.0,0.0,0.0,0.0,0.0,0.0,0.0,0.0,0.0,0.0,0.0,0.0,0.0,0.0,0.0,0.0,0.0,0.0,0.0,9.0826,0.0,0.0,0.0,0.0,0.0,0.0,0.0,0.0,0.0,0.0,0.0,9.9978,10.1886,10.2159,10.277,10.4482,10.5144,10.5707,0.0,0.0,0.0,0.0,0.0,0.0,0.0,0.0,0.0,0.0,0.0,0.0,0.0,0.0,10.3655,10.3439,10.343,10.343,10.343,0.0,0.0,0.0,0.0,0.0,0.0,0.0,0.0,0.0,0.0,0.0,0.0,0.0,0.0,0.0,0.0,0.0,0.0,8.6647,0.0,0.0,0.0,0.0,0.0,0.0,0.0,0.0,0.0,0.0,0.0,0.0,0.0,0.0,0.0,0.0,0.0,0.0,0.0,0.0,0.0,0.0,10.8711,10.8924,11.1774,11.3323,11.3476,11.4884,11.4954,11.3559,11.3418,11.2726,11.1177,0.0,0.0,0.0,0.0,0.0,0.0,0.0,0.0,0.0,0.0,0.0,0.0,0.0,0.0,0.0,0.0,0.0,0.0,0.0,0.0,0.0,0.0,0.0,0.0,0.0,0.0,8.2823,8.5115,8.8744,0.0,0.0,0.0,0.0,0.0,0.0,0.0,0.0,0.0,0.0,10.1075,10.1646,10.3196,10.4694,10.5154,10.3716,10.6103,10.6981,10.4042,10.4869,10.5953,0.0,0.0,0.0,0.0,0.0,0.0,0.0,0.0,0.0,0.0,0.0,0.0,0.0,0.0,0.0,0.0,0.0,0.0,0.0,0.0,0.0,0.0,0.0,0.0,0.0,0.0,0.0,0.0,0.0,0.0,0.0,0.0,0.0,0.0,0.0,0.0,0.0,0.0,0.0,0.0,0.0,0.0,0.0,0.0,0.0,0.0,0.0,0.0,0.0,0.0,0.0,0.0,0.0,0.0,10.5895,10.8842,10.8771,10.9757,11.1869,11.1318,11.1248,11.1869,11.0825,10.998,0.0,0.0,0.0,0.0,0.0,0.0,0.0,0.0,0.0,0.0,0.0,0.0,0.0,0.0,0.0,0.0,0.0,0.0,0.0,0.0,0.0,0.0,0.0,0.0,0.0,0.0,0.0,0.0,8.4703,8.6273,8.8682,0.0,0.0,0.0,0.0,0.0,0.0,0.0,0.0,0.0,0.0,10.1913,10.2416,10.3802,10.4603,10.4171,10.5373,10.6027,10.5084,10.5673,10.6167,10.5789,0.0,0.0,0.0,0.0,0.0,0.0,0.0,0.0,0.0,0.0,0.0,0.0,0.0,0.0,0.0,0.0,0.0,0.0,0.0,0.0,0.0,0.0,0.0,0.0,0.0,0.0,0.0,0.0,0.0,0.0,0.0,0.0,0.0,0.0,0.0,0.0,0.0,0.0,0.0,0.0,0.0,0.0,0.0,0.0,0.0,0.0,0.0,0.0,0.0,0.0,0.0,0.0,0.0,10.3658,10.6178,10.6519,10.7645,10.9335,10.9161,10.915,10.9537,10.922,10.8762,0.0,0.0,0.0,0.0,0.0,0.0,0.0,0.0,0.0,0.0,0.0,0.0,0.0,0.0,0.0,0.0,0.0,0.0,0.0,0.0,0.0,0.0,0.0,0.0,0.0,0.0,0.0,0.0,8.344,8.4383,8.6197,0.0,0.0,0.0,0.0,0.0,0.0,0.0,0.0,0.0,0.0,10.101,10.225,10.3219,0.0,0.0,10.5241,10.5527,10.5527,10.5386,10.5383,10.5768,10.5747,0.0,0.0,0.0,0.0,0.0,0.0,0.0,0.0,0.0,0.0,0.0,0.0,0.0,0.0,0.0,0.0,0.0,0.0,0.0,0.0,0.0,0.0,0.0,0.0,0.0,0.0,0.0,0.0,0.0,0.0,0.0,0.0,0.0,0.0,0.0,0.0,0.0,0.0,0.0,0.0,0.0,0.0,0.0,0.0,0.0,0.0,0.0,0.0,0.0,0.0,0.0,0.0,0.0,10.2187,10.484,10.6307,10.6577,10.8045,10.8173,10.6785,10.8173,10.8394,0.0,0.0,0.0,0.0,0.0,0.0,0.0,0.0,0.0,0.0,0.0,0.0,0.0,0.0,0.0,0.0,0.0,0.0,0.0,0.0,0.0,0.0,0.0,0.0,0.0,0.0,0.0,0.0,0.0,0.0,0.0,0.0,0.0,0.0,0.0,0.0,0.0,0.0,0.0,0.0,0.0,9.942,10.2494,10.3078,10.367,0.0,0.0,10.5739,10.5682,10.4488,10.4188,10.6131,0.0,0.0,0.0,0.0,0.0,0.0,0.0,0.0,0.0,0.0,0.0,0.0,0.0,0.0,0.0,0.0,0.0,0.0,0.0,0.0,0.0,0.0,0.0,0.0,0.0,0.0,0.0,0.0,0.0,0.0,0.0,0.0,0.0,0.0,0.0,0.0,0.0,0.0,0.0,0.0,0.0,0.0,0.0,0.0,0.0,0.0,0.0,0.0,0.0,0.0,0.0,0.0,0.0,0.0,10.2177,10.1813,10.2734,10.484,10.4341,10.4384,10.5113,10.5548,0.0,0.0,0.0,0.0,0.0,0.0,0.0,0.0,0.0,0.0,0.0,0.0,0.0,0.0,0.0,0.0,0.0,0.0,0.0,0.0,0.0,0.0,0.0,0.0,0.0,0.0,0.0,7.6986,0.0,0.0,0.0,0.0,0.0,0.0,0.0,0.0,0.0,0.0,0.0,0.0,0.0,0.0,9.9686,10.1706,10.2955,10.4358,0.0,0.0,10.7124,10.7198,10.6841,10.6296,0.0,0.0,0.0,0.0,0.0,0.0,0.0,0.0,0.0,0.0,0.0,0.0,0.0,0.0,0.0,0.0,0.0,0.0,0.0,0.0,0.0,0.0,0.0,0.0,0.0,0.0,0.0,0.0,0.0,0.0,0.0,0.0,0.0,0.0,0.0,0.0,0.0,0.0,0.0,0.0,0.0,0.0,0.0,0.0,0.0,0.0,0.0,0.0,0.0,0.0,0.0,0.0,0.0,0.0,10.0281,10.0346,10.0226,10.1233,10.3514,10.3583,10.3704,10.3938,10.4565,10.5094,0.0,0.0,0.0,0.0,0.0,0.0,0.0,0.0,0.0,0.0,0.0,0.0,0.0,0.0,0.0,0.0,0.0,0.0,0.0,0.0,0.0,0.0,0.0,0.0,0.0,0.0,0.0,0.0,0.0,0.0,0.0,0.0,0.0,0.0,0.0,0.0,0.0,0.0,0.0,0.0,0.0,0.0,10.0826,10.1794,0.0,0.0,0.0,10.554,10.5466,0.0,0.0,0.0,0.0,0.0,0.0,0.0,0.0,0.0,0.0,0.0,0.0,0.0,0.0,0.0,0.0,0.0,0.0,0.0,0.0,0.0,0.0,0.0,0.0,0.0,0.0,0.0,0.0,0.0,0.0,0.0,0.0,0.0,0.0,0.0,0.0,0.0,0.0,0.0,0.0,0.0,0.0,0.0,0.0,0.0,0.0,0.0,0.0,0.0,0.0,0.0,0.0,0.0,0.0,0.0,0.0,0.0,9.7825,9.9132,10.053,10.2079,10.369,10.3971,10.2854,10.4255,10.488,0.0,0.0,0.0,0.0,0.0,0.0,0.0,0.0,0.0,0.0,0.0,0.0,0.0,0.0,0.0,0.0,0.0,0.0,0.0,0.0,0.0,0.0,0.0,0.0,0.0,0.0,0.0,0.0,0.0,0.0,0.0,0.0,0.0,0.0,0.0,0.0,0.0,0.0,0.0,0.0,0.0,9.8405,10.0107,10.0336,10.0855,0.0,0.0,10.265,10.265,10.265,0.0,0.0,0.0,0.0,0.0,0.0,0.0,0.0,0.0,0.0,0.0,0.0,0.0,0.0,0.0,0.0,0.0,0.0,0.0,0.0,0.0,0.0,0.0,0.0,0.0,0.0,0.0,0.0,0.0,0.0,0.0,0.0,0.0,0.0,0.0,0.0,0.0,0.0,0.0,0.0,0.0,0.0,0.0,0.0,0.0,0.0,0.0,0.0,0.0,0.0,0.0,0.0,0.0,0.0,0.0,0.0,9.6506,9.6709,9.7552,9.8878,9.9449,10.0232,10.1167,10.263,10.4036,0.0,0.0,0.0,0.0,0.0,0.0,0.0,0.0,0.0,0.0,0.0,0.0,0.0,0.0,0.0,0.0,0.0,0.0,0.0,0.0,0.0,0.0,0.0,0.0,0.0,0.0,0.0,0.0,0.0,0.0,0.0,0.0,0.0,0.0,0.0,0.0,0.0,0.0,0.0,0.0,0.0,9.8405,10.0039,10.0336,0.0,0.0,0.0,0.0,10.265,10.265,0.0,0.0,0.0,0.0,0.0,0.0,0.0,0.0,0.0,0.0,0.0,0.0,0.0,0.0,0.0,0.0,0.0,0.0,0.0,0.0,0.0,0.0,0.0,0.0,0.0,0.0,0.0,0.0,0.0,0.0,0.0,0.0,0.0,0.0,0.0,0.0,0.0,0.0,0.0,0.0,0.0,0.0,0.0,0.0,0.0,0.0,0.0,0.0,0.0,0.0,0.0,0.0,0.0,0.0,0.0,0.0,9.7353,9.6528,9.7252,9.9348,9.9602,10.0028,10.0903,10.244,10.3997,0.0,0.0,0.0,0.0,0.0,0.0,0.0,0.0,0.0,0.0,0.0,0.0,0.0,0.0,0.0,0.0,0.0,0.0,0.0,0.0,0.0,0.0,0.0,0.0,0.0,0.0,0.0,0.0,0.0,0.0,0.0,0.0,0.0,0.0,0.0,0.0,0.0,0.0,0.0,0.0,9.6633,9.7228,9.885,0.0,0.0,0.0,0.0,0.0,0.0,9.9822,10.005,0.0,0.0,0.0,0.0,0.0,0.0,0.0,0.0,0.0,0.0,0.0,0.0,0.0,0.0,0.0,0.0,0.0,0.0,0.0,0.0,0.0,0.0,0.0,0.0,0.0,0.0,0.0,0.0,0.0,0.0,0.0,0.0,0.0,0.0,0.0,0.0,0.0,0.0,0.0,0.0,0.0,0.0,0.0,0.0,0.0,0.0,0.0,0.0,0.0,0.0,0.0,0.0,0.0,0.0,0.0,9.8323,9.6816,9.7397,10.0198,10.0341,10.0555,10.1116,10.2319,10.3601,10.4471,0.0,0.0,0.0,0.0,0.0,0.0,0.0,0.0,0.0,0.0,0.0,0.0,0.0,0.0,0.0,0.0,0.0,0.0,0.0,0.0,0.0,0.0,0.0,0.0,0.0,0.0,0.0,0.0,0.0,0.0,0.0,0.0,0.0,0.0,0.0,0.0,0.0,0.0,0.0,9.5302,9.5902,0.0,0.0,0.0,0.0,0.0,0.0,0.0,0.0,9.7073,0.0,0.0,0.0,0.0,0.0,0.0,0.0,0.0,0.0,0.0,0.0,0.0,0.0,0.0,0.0,0.0,0.0,0.0,0.0,0.0,0.0,0.0,0.0,0.0,0.0,0.0,0.0,0.0,0.0,0.0,0.0,0.0,0.0,0.0,0.0,0.0,0.0,0.0,0.0,0.0,0.0,0.0,0.0,0.0,0.0,0.0,0.0,0.0,0.0,0.0,0.0,0.0,0.0,0.0,0.0,0.0,9.5684,9.5774,9.7035,9.7139,9.8424,10.0983,10.133,10.1444,10.136,0.0,0.0,0.0,0.0,0.0,0.0,0.0,0.0,0.0,0.0,0.0,0.0,0.0,0.0,0.0,0.0,0.0,0.0,0.0,0.0,0.0,0.0,0.0,0.0,0.0,0.0,0.0,0.0,0.0,0.0,0.0,0.0,0.0,0.0,0.0,0.0,0.0,0.0,9.3275,9.4554,0.0,0.0,0.0,0.0,0.0,0.0,0.0,0.0,9.7593,0.0,0.0,0.0,0.0,0.0,0.0,0.0,0.0,0.0,0.0,0.0,0.0,0.0,0.0,0.0,0.0,0.0,0.0,0.0,0.0,0.0,0.0,0.0,0.0,0.0,0.0,0.0,0.0,0.0,0.0,0.0,0.0,0.0,0.0,0.0,0.0,0.0,0.0,0.0,0.0,0.0,0.0,0.0,0.0,0.0,0.0,0.0,0.0,0.0,0.0,0.0,0.0,0.0,0.0,0.0,0.0,0.0,0.0,9.5932,9.6373,9.6425,9.7139,9.8505,9.8879,9.892,0.0,0.0,0.0,0.0,0.0,0.0,0.0,0.0,0.0,0.0,0.0,0.0,0.0,0.0,0.0,0.0,0.0,0.0,0.0,0.0,0.0,0.0,0.0,0.0,0.0,0.0,0.0,0.0,0.0,0.0,0.0,0.0,0.0,0.0,0.0,0.0,0.0,0.0,0.0,0.0,0.0,0.0,0.0,0.0,0.0,0.0,0.0,0.0,0.0,0.0,0.0,0.0,0.0,0.0,0.0,0.0,0.0,0.0,0.0,0.0,0.0,0.0,0.0,0.0,0.0,0.0,0.0,0.0,0.0,0.0,0.0,0.0,0.0,0.0,0.0,0.0,0.0,0.0,0.0,0.0,0.0,0.0,0.0,0.0,0.0,0.0,0.0,0.0,0.0,0.0,0.0,0.0,0.0,0.0,0.0,0.0,0.0,0.0,0.0,0.0,0.0,0.0,0.0,0.0,0.0,0.0,0.0,0.0,9.6015,9.5935,9.5845,9.6073,9.659,9.6811,9.6726,0.0,0.0,0.0,0.0,0.0,0.0,0.0,0.0,0.0,0.0,0.0,0.0,0.0,0.0,0.0,0.0,0.0,0.0,0.0,0.0,0.0,0.0,0.0,0.0,0.0,0.0,0.0,0.0,0.0,0.0,0.0,0.0,0.0,0.0,0.0,0.0,0.0,0.0,0.0,0.0,0.0,0.0,0.0,0.0,0.0,0.0,0.0,0.0,9.3344,0.0,0.0,0.0,0.0,0.0,0.0,0.0,0.0,0.0,0.0,0.0,0.0,0.0,0.0,0.0,0.0,0.0,0.0,0.0,0.0,0.0,0.0,0.0,0.0,0.0,0.0,0.0,0.0,0.0,0.0,0.0,0.0,0.0,0.0,0.0,0.0,0.0,0.0,0.0,0.0,0.0,0.0,0.0,0.0,0.0,0.0,0.0,0.0,0.0,0.0,0.0,0.0,0.0,0.0,0.0,0.0,0.0,0.0,0.0,9.4722,9.4203,9.4175,9.509,9.6982,9.6398,9.5545,0.0,0.0,0.0,0.0,0.0,0.0,0.0,0.0,0.0,0.0,0.0,0.0,0.0,0.0,0.0,0.0,0.0,0.0,0.0,0.0,0.0,0.0,0.0,0.0,0.0,0.0,0.0,0.0,0.0,0.0,0.0,0.0,0.0,0.0,0.0,0.0,0.0,0.0,0.0,0.0,0.0,0.0,0.0,0.0,0.0,0.0,0.0,0.0,0.0,0.0,0.0,0.0,0.0,0.0,0.0,0.0,0.0,0.0,0.0,0.0,0.0,0.0,0.0,0.0,0.0,0.0,0.0,0.0,0.0,0.0,0.0,0.0,0.0,0.0,0.0,0.0,0.0,0.0,0.0,0.0,0.0,0.0,0.0,0.0,0.0,0.0,0.0,0.0,0.0,0.0,0.0,0.0,0.0,0.0,0.0,0.0,0.0,0.0,0.0,0.0,0.0,0.0,0.0,0.0,0.0,0.0,0.0,0.0,9.5863,9.5057,9.4635,9.5246,9.6897,9.6611,9.5533,0.0,0.0,0.0,0.0,0.0,0.0,0.0,0.0,0.0,0.0,0.0,0.0,0.0,0.0,0.0,0.0,0.0,0.0,0.0,0.0,0.0,0.0,0.0,0.0,0.0,0.0,0.0,0.0,0.0,0.0,0.0,0.0,0.0,0.0,0.0,0.0,0.0,0.0,0.0,0.0,0.0,0.0,0.0,0.0,0.0,0.0,0.0,0.0,0.0,0.0,0.0,0.0,0.0,0.0,0.0,0.0,0.0,0.0,0.0,0.0,0.0,0.0,0.0,0.0,0.0,0.0,0.0,0.0,0.0,0.0,0.0,0.0,0.0,0.0,0.0,0.0,0.0,0.0,0.0,0.0,0.0,0.0,0.0,0.0,0.0,0.0,0.0,0.0,0.0,0.0,0.0,0.0,0.0,0.0,0.0,0.0,0.0,0.0,0.0,0.0,0.0,0.0,0.0,0.0,0.0,0.0,0.0,0.0,0.0,9.5821,9.5538,9.591,9.6991,9.703,9.5947,0.0,0.0,0.0,0.0,0.0,0.0,0.0,0.0,0.0,0.0,0.0,0.0,0.0,0.0,0.0,0.0,0.0,0.0,0.0,0.0,0.0,0.0,0.0,0.0,0.0,0.0,0.0,0.0,0.0,0.0,0.0,0.0,0.0,0.0,0.0,0.0,0.0,0.0,0.0,0.0,0.0,0.0,0.0,0.0,0.0,0.0,0.0,0.0,0.0,0.0,0.0,0.0,0.0,0.0,0.0,0.0,0.0,0.0,0.0,0.0,0.0,0.0,0.0,0.0,0.0,0.0,0.0,0.0,0.0,0.0,0.0,0.0,0.0,0.0,0.0,0.0,0.0,0.0,0.0,0.0,0.0,0.0,0.0,0.0,0.0,0.0,0.0,0.0,0.0,0.0,0.0,0.0,0.0,0.0,0.0,0.0,0.0,0.0,0.0,0.0,0.0,0.0,0.0,0.0,0.0,0.0,0.0,0.0,0.0,9.5778,9.6385,9.6998,9.7673,9.7691,9.6971,0.0,0.0,0.0,0.0,0.0,0.0,0.0,0.0,0.0,0.0,0.0,0.0,0.0,0.0,0.0,0.0,0.0,0.0,0.0,0.0,0.0,0.0,0.0,0.0,0.0,0.0,0.0,0.0,0.0,0.0,0.0,0.0,0.0,0.0,0.0,0.0,0.0,0.0,0.0,0.0,0.0,0.0,0.0,0.0,0.0,0.0,0.0,0.0,0.0,0.0,0.0,0.0,0.0,0.0,0.0,0.0,0.0,0.0,0.0,0.0,0.0,0.0,0.0,0.0,0.0,0.0,0.0,0.0,0.0,0.0,0.0,0.0,0.0,0.0,0.0,0.0,0.0,0.0,0.0,0.0,0.0,0.0,0.0,0.0,0.0,0.0,0.0,0.0,0.0,0.0,0.0,0.0,0.0,0.0,0.0,0.0,0.0,0.0,0.0,0.0,0.0,0.0,0.0,0.0,0.0,0.0,0.0,0.0,0.0,9.7091,9.729,9.7557,9.7731,9.7736,9.7005,9.5525,0.0,0.0,0.0,0.0,0.0,0.0,0.0,0.0,0.0,0.0,0.0,0.0,0.0,0.0,0.0,0.0,0.0,0.0,0.0,0.0,0.0,0.0,0.0,0.0,0.0,0.0,0.0,0.0,0.0,0.0,0.0,0.0,0.0,0.0,0.0,0.0,0.0,0.0,0.0,0.0,0.0,0.0,0.0,0.0,0.0,0.0,0.0,0.0,0.0,0.0,0.0,0.0,0.0,0.0,0.0,0.0,0.0,0.0,0.0,0.0,0.0,0.0,0.0,0.0,0.0,0.0,0.0,0.0,0.0,0.0,0.0,0.0,0.0,0.0,0.0,0.0,0.0,0.0,0.0,0.0,0.0,0.0,0.0,0.0,0.0,0.0,0.0,0.0,0.0,0.0,0.0,0.0,0.0,0.0,0.0,0.0,0.0,0.0,0.0,0.0,0.0,0.0,0.0,0.0,0.0,0.0,0.0,0.0,9.7799,9.7736,9.7736,9.7811,9.8262,9.7593,0.0,0.0,0.0,0.0,0.0,0.0,0.0,0.0,0.0,0.0,0.0,0.0,0.0,0.0,0.0,0.0,0.0,0.0,0.0,0.0,0.0,0.0,0.0,0.0,0.0,0.0,0.0,0.0,0.0,0.0,0.0,0.0,0.0,0.0,0.0,0.0,0.0,0.0,0.0,0.0,0.0,0.0,0.0,0.0,0.0,0.0,0.0,0.0,0.0,0.0,0.0,0.0,0.0,0.0,0.0,0.0,0.0,0.0,0.0,0.0,0.0,0.0,0.0,0.0,0.0,0.0,0.0,0.0,0.0,0.0,0.0,0.0,0.0,0.0,0.0,0.0,0.0,0.0,0.0,0.0,0.0,0.0,0.0,0.0,0.0,0.0,0.0,0.0,0.0,0.0,0.0,0.0,0.0,0.0,0.0,0.0,0.0,0.0,0.0,0.0,0.0,0.0,0.0,0.0,0.0,0.0,0.0,0.0,9.7873,9.7736,9.7736,9.7811,9.7811,9.9296,9.8702,0.0,0.0,0.0,0.0,0.0,0.0,0.0,0.0,0.0,0.0,0.0,0.0,0.0,0.0,0.0,0.0,0.0,0.0,0.0,0.0,0.0,0.0,0.0,0.0,0.0,0.0,0.0,0.0,0.0,0.0,0.0,0.0,0.0,0.0,0.0,0.0,0.0,0.0,0.0,0.0,0.0,0.0,0.0,0.0,0.0,0.0,0.0,0.0,0.0,0.0,0.0,0.0,0.0,0.0,0.0,0.0,0.0,0.0,0.0,0.0,0.0,0.0,0.0,0.0,0.0,0.0,0.0,0.0,0.0,0.0,0.0,0.0,0.0,0.0,0.0,0.0,0.0,0.0,0.0,0.0,0.0,0.0,0.0,0.0,0.0,0.0,0.0,0.0,0.0,0.0,0.0,0.0,0.0,0.0,0.0,0.0,0.0,0.0,0.0,0.0,0.0,0.0,0.0,0.0,0.0,0.0,0.0,0.0,0.0,9.7811,0.0,9.8336,0.0,9.8925,9.8113,0.0,0.0,0.0,0.0,0.0,0.0,0.0,0.0,0.0,0.0,0.0,0.0,0.0,0.0,0.0,0.0,0.0,0.0,0.0,0.0,0.0,0.0,0.0,0.0,0.0,0.0,0.0,0.0,0.0,0.0,0.0,0.0,0.0,0.0,0.0,0.0,0.0,0.0,0.0,0.0,0.0,0.0,0.0,0.0,0.0,0.0,0.0,0.0,0.0,0.0,0.0,0.0,0.0,0.0,0.0,0.0,0.0,0.0,0.0,0.0,0.0,0.0,0.0,0.0,0.0,0.0,0.0,0.0,0.0,0.0,0.0,0.0,0.0,0.0,0.0,0.0,0.0,0.0,0.0,0.0,0.0,0.0,0.0,0.0,0.0,0.0,0.0,0.0,0.0,0.0,0.0,0.0,0.0,0.0,0.0,0.0,0.0,0.0,0.0,0.0,0.0,0.0,0.0,0.0,0.0,0.0,0.0,0.0,0.0,9.7811,9.7736,9.833,0.0,9.9524,9.8405,0.0,0.0,0.0,0.0,0.0,0.0,0.0,0.0,0.0,0.0,0.0,0.0,0.0,0.0,0.0,0.0,0.0,0.0,0.0,0.0,0.0,0.0,0.0,0.0,0.0,0.0,0.0,0.0,0.0,0.0,0.0,0.0,0.0,0.0,0.0,0.0,0.0,0.0,0.0,0.0,0.0,0.0,0.0,0.0,0.0,0.0,0.0,0.0,0.0,0.0,0.0,0.0,0.0,0.0,0.0,0.0,0.0,0.0,0.0,0.0,0.0,0.0,0.0,0.0,0.0,0.0,0.0,0.0,0.0,0.0,0.0,0.0,0.0,0.0,0.0,0.0,0.0,0.0,0.0,0.0,0.0,0.0,0.0,0.0,0.0,0.0,0.0,0.0,0.0,0.0,0.0,0.0,0.0,0.0,0.0,0.0,0.0,0.0,0.0,0.0,0.0,0.0,0.0,0.0,0.0,0.0,0.0,0.0,0.0,0.0,9.7885,9.7885,9.8033,10.0947,9.9524,0.0,0.0,0.0,0.0,0.0,0.0,0.0,0.0,0.0,0.0,0.0,0.0,0.0,0.0,0.0,0.0,0.0,0.0,0.0,0.0,0.0,0.0,0.0,0.0,0.0,0.0,0.0,0.0,0.0,0.0,0.0,0.0,0.0,0.0,0.0,0.0,0.0,0.0,0.0,0.0,0.0,0.0,0.0,0.0,0.0,0.0,0.0,0.0,0.0,0.0,0.0,0.0,0.0,0.0,0.0,0.0,0.0,0.0,0.0,0.0,0.0,0.0,0.0,0.0,0.0,0.0,0.0,0.0,0.0,0.0,0.0,0.0,0.0,0.0,0.0,0.0,0.0,0.0,0.0,0.0,0.0,0.0,0.0,0.0,0.0,0.0,0.0,0.0,0.0,0.0,0.0,0.0,0.0,0.0,0.0,0.0,0.0,0.0,0.0,0.0,0.0,0.0,0.0,0.0,0.0,0.0,0.0,0.0,0.0,0.0,9.8993,0.0,9.9661,10.0484,9.8999,9.4925,0.0,0.0,0.0,0.0,0.0,0.0,0.0,0.0,0.0,0.0,0.0,0.0,0.0,0.0,0.0,0.0,0.0,0.0,0.0,0.0,0.0,0.0,0.0,0.0,0.0,0.0,0.0,0.0,0.0,0.0,0.0,0.0,0.0,0.0,0.0,0.0,0.0,0.0,0.0,0.0,0.0,0.0,0.0,0.0,0.0,0.0,0.0,0.0,0.0,0.0,0.0,0.0,0.0,0.0,0.0,0.0,0.0,0.0,0.0,0.0,0.0,0.0,0.0,0.0,0.0,0.0,0.0,0.0,0.0,0.0,0.0,0.0,0.0,0.0,0.0,0.0,0.0,0.0,0.0,0.0,0.0,0.0,0.0,0.0,0.0,0.0,0.0,0.0,0.0,0.0,0.0,0.0,0.0,0.0,0.0,0.0,0.0,0.0,0.0,0.0,0.0,0.0,0.0,0.0,0.0,0.0,0.0,0.0,0.0,0.0,0.0,9.929,9.929,9.7736,0.0,0.0,0.0,0.0,0.0,0.0,0.0,0.0,0.0,0.0,0.0,0.0,0.0,0.0,0.0,0.0,0.0,0.0,0.0,0.0,0.0,0.0,0.0,0.0,0.0,0.0,0.0,0.0,0.0,0.0,0.0,0.0,0.0,0.0,0.0,0.0,0.0,0.0,0.0,0.0,0.0,0.0,0.0,0.0,0.0,0.0,0.0,0.0,0.0,0.0,0.0,0.0,0.0,0.0,0.0,0.0,0.0,0.0,0.0,0.0,0.0,0.0,0.0,0.0,0.0,0.0,0.0,0.0,0.0,0.0,0.0,0.0,0.0,0.0,0.0,0.0,0.0,0.0,0.0,0.0,0.0,0.0,0.0,0.0,0.0,0.0,0.0,0.0,0.0,0.0,0.0,0.0,0.0,0.0,0.0,0.0,0.0,0.0,0.0,0.0,0.0,0.0,0.0,0.0,0.0,0.0,0.0,0.0,0.0,0.0,0.0,9.8033,9.8033,9.8182,0.0,9.3863,0.0,0.0,0.0,0.0,0.0,0.0,0.0,0.0,0.0,0.0,0.0,0.0,0.0,0.0,0.0,0.0,0.0,0.0,0.0,0.0,0.0,0.0,0.0,0.0,0.0,0.0,0.0,0.0,0.0,0.0,0.0,0.0,0.0,0.0,0.0,0.0,0.0,0.0,0.0,0.0,0.0,0.0,0.0,0.0,0.0,0.0,0.0,0.0,0.0,0.0,0.0,0.0,0.0,0.0,0.0,0.0,0.0,0.0,0.0,0.0,0.0,0.0,0.0,0.0,0.0,0.0,0.0,0.0,0.0,0.0,0.0,0.0,0.0,0.0,0.0,0.0,0.0,0.0,0.0,0.0,0.0,0.0,0.0,0.0,0.0,0.0,0.0,0.0,0.0,0.0,0.0,0.0,0.0,0.0,0.0,0.0,0.0,0.0,0.0,0.0,0.0,0.0,0.0,0.0,0.0,0.0,0.0,0.0,0.0,0.0,0.0,0.0,10.0936,10.0639,9.8622,0.0,0.0,0.0,0.0,0.0,0.0,0.0,0.0,0.0,0.0,0.0,0.0,0.0,0.0,0.0,0.0,0.0,0.0,0.0,0.0,0.0,0.0,0.0,0.0,0.0,0.0,0.0,0.0,0.0,0.0,0.0,0.0,0.0,0.0,0.0,0.0,0.0,0.0,0.0,0.0,0.0,0.0,0.0,0.0,0.0,0.0,0.0,0.0,0.0,0.0,0.0,0.0,0.0,0.0,0.0,0.0,0.0,0.0,0.0,0.0,0.0,0.0,0.0,0.0,0.0,0.0,0.0,0.0,0.0,0.0,0.0,0.0,0.0,0.0,0.0,0.0,0.0,0.0,0.0,0.0,0.0,0.0,0.0,0.0,0.0,0.0,0.0,0.0,0.0,0.0,0.0,0.0,0.0,0.0,0.0,0.0,0.0,0.0,0.0,0.0,0.0,0.0,0.0,0.0,0.0,0.0,0.0,0.0,0.0,0.0,9.9147,9.9142,9.9964,10.0039,9.9147,0.0,0.0,0.0,0.0,0.0,0.0,0.0,0.0,0.0,0.0,0.0,0.0,0.0,0.0,0.0,0.0,0.0,0.0,0.0,0.0,0.0,0.0,0.0,0.0,0.0,0.0,0.0,0.0,0.0,0.0,0.0,0.0,0.0,0.0,0.0,0.0,0.0,0.0,0.0,0.0,0.0,0.0,0.0,0.0,0.0,0.0,0.0,0.0,0.0,0.0,0.0,0.0,0.0,0.0,0.0,0.0,0.0,0.0,0.0,0.0,0.0,0.0,0.0,0.0,0.0,0.0,0.0,0.0,0.0,0.0,0.0,0.0,0.0,0.0,0.0,0.0,0.0,0.0,0.0,0.0,0.0,0.0,0.0,0.0,0.0,0.0,0.0,0.0,0.0,0.0,0.0,0.0,0.0,0.0,0.0,0.0,0.0,0.0,0.0,0.0,0.0,0.0,0.0,0.0,0.0,0.0,0.0,0.0,0.0,0.0,0.0,0.0,0.0,0.0,9.7445,0.0,0.0,0.0,0.0,0.0,0.0,0.0,0.0,0.0,0.0,0.0,0.0,0.0,0.0,0.0,0.0,0.0,0.0,0.0,0.0,0.0,0.0,0.0,0.0,0.0,0.0,0.0,0.0,0.0,0.0,0.0,0.0,0.0,0.0,0.0,0.0,0.0,0.0,0.0,0.0,0.0,0.0,0.0,0.0,0.0,0.0,0.0,0.0,0.0,0.0,0.0,0.0,0.0,0.0,0.0,0.0,0.0,0.0,0.0,0.0,0.0,0.0,0.0,0.0,0.0,0.0,0.0,0.0,0.0,0.0,0.0,0.0,0.0,0.0,0.0,0.0,0.0,0.0,0.0,0.0,0.0,0.0,0.0,0.0,0.0,0.0,0.0,0.0,0.0,0.0,0.0,0.0,0.0,0.0,0.0,0.0,0.0,0.0,0.0,0.0,0.0,0.0,0.0,0.0,0.0,0.0,0.0,0.0,0.0,0.0,0.0,0.0,0.0,0.0,0.0,0.0,0.0,0.0,0.0,0.0,0.0,0.0,0.0,0.0,0.0,0.0,0.0,0.0,0.0,0.0,0.0,0.0,0.0,0.0,0.0,0.0,0.0,0.0,0.0,0.0,0.0,0.0,0.0,0.0,0.0,0.0,0.0,0.0,0.0,0.0,0.0,0.0,0.0,0.0,0.0,0.0,0.0,0.0,0.0,0.0,0.0,0.0,0.0,0.0,0.0,0.0,0.0,0.0,0.0,0.0,0.0,0.0,0.0,0.0,0.0,0.0,0.0,0.0,0.0,0.0,0.0,0.0,0.0,0.0,0.0,0.0,0.0,0.0,0.0,0.0,0.0,0.0,0.0,0.0,0.0,0.0,0.0,0.0,0.0,0.0,0.0,0.0,0.0,0.0,0.0,0.0,0.0,0.0,0.0,0.0,0.0,0.0,0.0,0.0,0.0,0.0,0.0,0.0,0.0,0.0,0.0,0.0,0.0,0.0,0.0,0.0,0.0,0.0,0.0,0.0,0.0,0.0,0.0,0.0,0.0,0.0,0.0,0.0,0.0,0.0,0.0,0.0,0.0,0.0,0.0,0.0,0.0,0.0,0.0,0.0,0.0,0.0,0.0,0.0,0.0,0.0,0.0,0.0,0.0,0.0,0.0,0.0,0.0,0.0,0.0,0.0,0.0,0.0,0.0,0.0,0.0,0.0,0.0,0.0,0.0,0.0,0.0,0.0,0.0,0.0,0.0,0.0,0.0,0.0,0.0,0.0,0.0,0.0,0.0,0.0,0.0,0.0,0.0,0.0,0.0,0.0,0.0,0.0,0.0,0.0,0.0,0.0,0.0,0.0,0.0,0.0,0.0,0.0,0.0,0.0,0.0,0.0,0.0,0.0,0.0,0.0,0.0,0.0,0.0,0.0,0.0,0.0,0.0,0.0,0.0,0.0,0.0,0.0,0.0,0.0,0.0,0.0,0.0,0.0,0.0,0.0,0.0,0.0,0.0,0.0,0.0,0.0,0.0,0.0,0.0,0.0,0.0,0.0,0.0,0.0,0.0,0.0,0.0,0.0,0.0,0.0,0.0,0.0,0.0,0.0,0.0,0.0,0.0,0.0,0.0,0.0,0.0,0.0,0.0,0.0,0.0,0.0,0.0,0.0,0.0,0.0,0.0,0.0,0.0,0.0,0.0,0.0,0.0,0.0,0.0,0.0,0.0,0.0,0.0,0.0,0.0,0.0,0.0,0.0,0.0,0.0,0.0,0.0,0.0,0.0,0.0,0.0,0.0,0.0,0.0,0.0,0.0,0.0,0.0,0.0,0.0,0.0,0.0,0.0,0.0,0.0,0.0,0.0,0.0,0.0,0.0,0.0,0.0,0.0,0.0,0.0,0.0,0.0,0.0,0.0,0.0,0.0,0.0,0.0,0.0,0.0,0.0,0.0,0.0,0.0,0.0,0.0,0.0,0.0,0.0,0.0,0.0,0.0,0.0,0.0,0.0,0.0,0.0,0.0,0.0,0.0,0.0,0.0,0.0,0.0,0.0,0.0,0.0,0.0,0.0,0.0,0.0,0.0,0.0,0.0,0.0,0.0,0.0,0.0,0.0,0.0,0.0,0.0,0.0,0.0,0.0,0.0,0.0,0.0,0.0,0.0,0.0,0.0,0.0,0.0,0.0,0.0,0.0,0.0,0.0,0.0,0.0,0.0,0.0,0.0,0.0,0.0,0.0,0.0,0.0,0.0,0.0,0.0,0.0,0.0,0.0,0.0,0.0,0.0,0.0,0.0,0.0,0.0,0.0,0.0,0.0,0.0,0.0,0.0,0.0,0.0,0.0,0.0,0.0,0.0,0.0,0.0,0.0,0.0,0.0,0.0,0.0,0.0,0.0,0.0,0.0,0.0,0.0,0.0,0.0,0.0,0.0,0.0,0.0,0.0,0.0,0.0,0.0,0.0,0.0,0.0,0.0,0.0,0.0,0.0,0.0,0.0,0.0,0.0,0.0,0.0,0.0,0.0,0.0,0.0,0.0,0.0,0.0,0.0,0.0,0.0,0.0,0.0,0.0,0.0,0.0,0.0,0.0,0.0,0.0,0.0,0.0,0.0,0.0,0.0,0.0,0.0,0.0,0.0,0.0,0.0,0.0,0.0,0.0,0.0,0.0,0.0,0.0,0.0,0.0,0.0,0.0,0.0,0.0,0.0,0.0,0.0,0.0,0.0,0.0,0.0,0.0,0.0,0.0,0.0,0.0,0.0,0.0,0.0,0.0,0.0,0.0,0.0,0.0,0.0,0.0,0.0,0.0,0.0,0.0,0.0,0.0,0.0,0.0,0.0,0.0,0.0,0.0,0.0,0.0,0.0,0.0,0.0,0.0,0.0,0.0,0.0,0.0,0.0,0.0,0.0,0.0,0.0,0.0,0.0,0.0,0.0,0.0,0.0,0.0,0.0,0.0,0.0,0.0,0.0,0.0,0.0,0.0,0.0,0.0,0.0,0.0,0.0,0.0,0.0,0.0,0.0,0.0,0.0,0.0,0.0,0.0,0.0,0.0,0.0,0.0,0.0,0.0,0.0,0.0,0.0,0.0,0.0,0.0,0.0,0.0,0.0,0.0,0.0,0.0,0.0,0.0,0.0,0.0,0.0,0.0,0.0,0.0,0.0,0.0,0.0,0.0,0.0,0.0,0.0,0.0,0.0,0.0,0.0,0.0,0.0,0.0,0.0,0.0,0.0,0.0,0.0,0.0,0.0,0.0,0.0,0.0,0.0,0.0,0.0,0.0,0.0,0.0,0.0,0.0,0.0,0.0,0.0,0.0,0.0,0.0,0.0,0.0,0.0,0.0,0.0,0.0,0.0,0.0,0.0,0.0,0.0,0.0,0.0,0.0,0.0,0.0,0.0,0.0,0.0,0.0,0.0,0.0,0.0,0.0,0.0,0.0,0.0,0.0,0.0,0.0,0.0,0.0,0.0,0.0,0.0,0.0,0.0,0.0,0.0,0.0,0.0,0.0,0.0,0.0,0.0,0.0,0.0,0.0,0.0,0.0,0.0,0.0,0.0,0.0,0.0,0.0,0.0,0.0,0.0,0.0,0.0,0.0,0.0,0.0,0.0,0.0,0.0,0.0,0.0,0.0,0.0,0.0,0.0,0.0,0.0,0.0,0.0,0.0,0.0,0.0,0.0,0.0,0.0,0.0,0.0,0.0,0.0,0.0,0.0,0.0,0.0,0.0,0.0,0.0,0.0,0.0,0.0,0.0,0.0,0.0,0.0,0.0,0.0,0.0,0.0,0.0,0.0,0.0,0.0,0.0,0.0,0.0,0.0,0.0,0.0,0.0,0.0,0.0,0.0,0.0,0.0,0.0,0.0,0.0,0.0,0.0,0.0,0.0,0.0,0.0,0.0,0.0,0.0,0.0,0.0,0.0,0.0,0.0,0.0,0.0,0.0,0.0,0.0,0.0,0.0,0.0,0.0,0.0,0.0,0.0,0.0,0.0,0.0,0.0,0.0,0.0,0.0,0.0,0.0,0.0,0.0,0.0,0.0,0.0,0.0,0.0,0.0,0.0,0.0,0.0,0.0,0.0,0.0,0.0,0.0,0.0,0.0,0.0,0.0,0.0,0.0,0.0,0.0,0.0,0.0,0.0,0.0,0.0,0.0,0.0,0.0,0.0,0.0,0.0,0.0,0.0,0.0,0.0,0.0,0.0,0.0,0.0,0.0,0.0,0.0,0.0,0.0,0.0,0.0,0.0,0.0,0.0,0.0,0.0,0.0,0.0,0.0,0.0,0.0,0.0,0.0,0.0,0.0,0.0,0.0,0.0,0.0,0.0,0.0,0.0,0.0,0.0,0.0,0.0,0.0,0.0,0.0]}],[{"header":{"parameterUnit":"kt","parameterCategory":2,"dx":1,"dy":1,"la1":29.587661999999998,"la2":31.0,"lo1":-88.76705300000003,"lo2":-86.6583820000003,"nx":115,"ny":88,"refTime":"2022-10-09T06:00:00:Z","depth":0,"parameterNumber":2,"parameterNumberName":"V-component_of_WINDS"},"data":[11.5712,11.5712,11.5712,11.5712,11.5712,11.5712,11.5712,11.5712,11.5712,11.5712,11.5712,11.5712,11.5712,11.5712,11.5712,11.5712,11.5712,11.5712,11.5712,11.5712,11.5712,11.5712,11.5712,11.5712,11.5712,11.5516,11.5333,11.5381,11.5088,11.4942,11.4991,11.4844,11.4893,11.46,11.3831,11.3771,11.3527,11.3234,11.2892,11.2904,11.2721,11.2136,11.2038,11.1625,11.1552,11.048,10.9634,10.9117,10.8217,10.7548,10.6959,10.6866,10.6772,10.6679,10.6642,10.6548,10.6632,10.6632,10.6585,10.6585,10.6539,10.6632,10.6585,10.6679,10.6726,10.6726,10.6679,10.6492,10.6128,10.5146,10.4325,10.4232,10.1729,9.5278,9.0791,8.7841,8.541,8.5009,8.4929,8.4929,8.4929,8.4929,8.4929,8.4929,8.4929,8.4929,8.4929,8.4929,8.4929,8.4929,8.4929,8.4929,8.4929,8.4929,8.4929,8.4929,8.4929,8.4929,8.4929,8.4929,8.4929,8.4929,8.4929,8.4929,8.4929,8.4929,8.4929,8.4929,8.4929,8.4929,8.4929,8.4929,8.4929,8.4929,8.4929,11.5663,11.5712,11.5625,11.5712,11.5712,11.5712,11.5712,11.5712,11.5712,11.5712,11.5712,11.5712,11.5712,11.5712,11.5712,11.5712,11.5712,11.5712,11.5712,11.5712,11.5712,11.5528,11.5528,11.5565,11.5333,11.5088,11.4649,11.4368,11.427,11.3734,11.3331,11.299,11.2941,11.2892,11.2795,11.2697,11.2502,11.216,11.2062,11.2306,11.1636,11.0793,10.9813,10.8779,10.7987,10.7192,10.643,10.5847,10.5409,10.5136,10.5333,10.538,10.538,10.5473,10.538,10.5427,10.551,10.538,10.5286,10.538,10.5286,10.5146,10.4959,10.4959,10.5006,10.5053,10.5053,10.5006,10.5006,10.4386,10.3422,10.226,9.9001,9.4699,9.161,8.8513,8.657,8.4969,8.4929,8.4929,8.4929,8.4929,8.4929,8.4929,8.4929,8.4929,8.4929,8.4929,8.4929,8.4929,8.4929,8.4929,8.4929,8.4929,8.4929,8.4929,8.4929,8.4929,8.4929,8.4929,8.4929,8.4929,8.4929,8.4929,8.4929,8.4929,8.4929,8.4929,8.4929,8.4929,8.4929,8.4929,8.4929,8.4929,8.4929,11.4796,11.4856,11.543,11.5712,11.5712,11.5712,11.5712,11.5712,11.5712,11.5712,11.5712,11.5712,11.5712,11.5712,11.5712,11.5712,11.5712,11.5663,11.5479,11.5614,11.5663,11.5235,11.4905,11.471,11.4563,11.3966,11.3392,11.3246,11.3185,11.2648,11.2404,11.2648,11.255,11.2306,11.1587,11.1538,11.1294,11.0842,11.0598,11.031,10.972,10.9642,10.8986,10.8318,10.771,10.7327,10.6402,10.5714,10.5132,10.4731,10.4622,10.4585,10.4585,10.4585,10.4585,10.4585,10.4585,10.4585,10.4632,10.4726,10.4726,10.4772,10.4632,10.4679,10.4585,10.4585,10.4585,10.4585,10.4585,10.3182,10.2251,10.061,9.748,9.393,9.0674,8.8118,8.6249,8.4969,8.4929,8.4929,8.4929,8.4929,8.4929,8.4929,8.4929,8.4929,8.4929,8.4929,8.4929,8.4929,8.4929,8.4929,8.4929,8.4929,8.4929,8.4929,8.4929,8.4929,8.4929,8.4929,8.4929,8.4929,8.4929,8.4929,8.4929,8.4929,8.4929,8.4929,8.4929,8.4929,8.4929,8.4929,8.4929,8.4929,8.4929,11.3734,11.3819,11.46,11.4893,11.4931,11.4893,11.4991,11.5284,11.504,11.4844,11.4893,11.4844,11.4833,11.4649,11.46,11.4638,11.4735,11.4454,11.4844,11.4747,11.4686,11.4161,11.3831,11.3722,11.338,11.2746,11.2453,11.2502,11.2111,11.1733,11.1636,11.1672,11.1526,11.1148,11.0513,11.0465,11.0221,10.9768,10.9635,10.9337,10.9051,10.9022,10.8925,10.8354,10.7997,10.7602,10.6835,10.6149,10.546,10.495,10.4721,10.4585,10.4585,10.4585,10.4585,10.4585,10.4585,10.4585,10.4585,10.4585,10.4585,10.4585,10.4585,10.4585,10.4585,10.4585,10.4585,10.4585,10.3954,10.2288,10.064,9.8768,9.6417,9.2695,8.9066,8.7166,8.5328,8.5047,8.4929,8.4929,8.4929,8.4929,8.4929,8.4929,8.4929,8.4929,8.4929,8.4929,8.4929,8.4929,8.4929,8.4929,8.4929,8.4929,8.4929,8.4929,8.4929,8.4929,8.4929,8.4929,8.4929,8.4929,8.4929,8.4929,8.4929,8.4929,8.4929,8.4929,8.4929,8.4929,8.4929,8.4929,8.4929,8.4929,8.4929,11.2648,11.2697,11.2746,11.2941,11.2831,11.2941,11.3429,11.4075,11.3234,11.2843,11.2941,11.2843,11.3039,11.3283,11.3234,11.3185,11.3283,11.3283,11.3331,11.2843,11.3234,11.3039,11.2795,11.2648,11.2355,11.2453,11.2258,11.1574,11.0855,11.0452,11.0061,10.9524,10.9768,10.9866,10.9684,10.9635,10.9538,10.928,10.9245,10.8947,10.896,10.896,10.8889,10.814,10.7853,10.7638,10.6835,10.6221,10.5714,10.5376,10.5049,10.4622,10.4585,10.4585,10.4585,10.4585,10.4585,10.4585,10.4585,10.4585,10.4585,10.4585,10.4585,10.4585,10.4585,10.4585,10.4585,10.4585,10.422,10.2731,9.9444,9.7139,9.3969,9.0204,8.7722,8.617,8.5047,8.5047,8.4929,8.4929,8.4929,8.4929,8.4929,8.4929,8.4929,8.4929,8.4929,8.4929,8.4929,8.4929,8.4929,8.4929,8.4929,8.4929,8.4929,8.4929,8.4929,8.4929,8.4929,8.4929,8.4929,8.4929,8.4929,8.4929,8.4929,8.4929,8.4929,8.4929,8.4929,8.4929,8.4929,8.4929,8.4929,8.4929,8.4929,11.1489,11.1587,11.2258,11.255,11.255,11.255,11.2306,11.2026,11.1684,11.1928,11.2502,11.2502,11.255,11.2453,11.2404,11.2404,11.2404,11.2306,11.2355,11.2306,11.2648,11.2026,11.1636,11.144,11.1197,11.066,11.0416,11.0549,10.9977,10.9427,10.928,10.928,10.928,10.928,10.928,10.928,10.928,10.9245,10.9103,10.864,10.8354,10.8175,10.759,10.6907,10.6619,10.6474,10.6113,10.5423,10.5049,10.4903,10.4877,10.4585,10.4585,10.4585,10.4585,10.4585,10.4585,10.4585,10.4585,10.4585,10.4585,10.4585,10.4585,10.4585,10.4585,10.4398,10.4398,10.4269,10.3924,10.2713,9.8987,9.5273,9.145,8.7723,8.6372,8.5051,8.4891,8.4891,8.4891,8.4891,8.4929,8.4929,8.4929,8.4929,8.4929,8.4929,8.4929,8.4929,8.4929,8.4929,8.4929,8.4929,8.4929,8.4929,8.4929,8.4929,8.4929,8.4929,8.4929,8.4929,8.4929,8.4929,8.4929,8.4929,8.4929,8.4929,8.4929,8.4929,8.4929,8.4929,8.4929,8.4929,8.4929,8.4929,8.4929,11.0367,11.0465,11.1245,11.1623,11.1587,11.1574,11.1184,11.0465,11.0367,11.0757,11.1587,11.1574,11.1379,11.1623,11.1623,11.1489,11.1526,11.1623,11.1623,11.1526,11.1233,11.0953,11.0575,11.0318,10.9928,10.9538,10.9427,10.9476,10.9329,10.928,10.928,10.928,10.928,10.928,10.928,10.928,10.9018,10.8876,10.8818,10.814,10.7566,10.7494,10.7123,10.6655,10.6438,10.6402,10.6149,10.5532,10.5122,10.4867,10.4731,10.4585,10.4585,10.4585,10.4585,10.4585,10.4539,10.4539,10.4585,10.4585,10.4585,10.4585,10.4585,10.4539,10.4248,10.4061,10.3874,10.35,10.3096,10.1025,9.7768,9.4558,9.1182,8.7753,8.5133,8.4146,8.3866,8.398,8.4399,8.4475,8.4891,8.4891,8.4929,8.4929,8.4929,8.4929,8.4929,8.4929,8.4929,8.4929,8.4929,8.4929,8.4929,8.4929,8.4929,8.4929,8.4929,8.4929,8.4929,8.4929,8.4929,8.4929,8.4929,8.4929,8.4929,8.4929,8.4929,8.4929,8.4929,8.4929,8.4929,8.4929,8.4929,8.4929,8.4929,10.9294,10.9294,10.9294,10.9476,10.9391,10.9622,10.9524,10.9378,10.9378,10.9427,10.944,10.9622,10.9768,10.9573,10.9524,10.9622,10.972,10.972,10.972,10.972,10.9964,10.972,10.9524,10.944,10.9476,10.9329,10.928,10.928,10.928,10.928,10.928,10.928,10.928,10.928,10.9209,10.9103,10.8782,10.828,10.8018,10.7218,10.6441,10.6549,10.6095,10.5795,10.5735,10.5771,10.5591,10.5314,10.5144,10.4985,10.4752,10.4508,10.4492,10.4539,10.4585,10.4492,10.4352,10.4258,10.4212,10.4341,10.4352,10.4025,10.4212,10.3967,10.3583,10.3396,10.3255,10.2881,10.268,9.983,9.6834,9.3857,9.0793,8.7219,8.4051,8.3465,8.3071,8.3373,8.383,8.421,8.4587,8.4891,8.4929,8.4929,8.4929,8.4929,8.4929,8.4929,8.4929,8.4929,8.4929,8.4929,8.4929,8.4929,8.4929,8.4929,8.4929,8.4929,8.4929,8.4929,8.4929,8.4929,8.4929,8.4929,8.4929,8.4929,8.4929,8.4929,8.4929,8.4929,8.4929,8.4929,8.4929,8.4929,8.4929,10.928,10.928,10.928,10.928,10.928,10.928,10.928,10.928,10.928,10.928,10.928,10.928,10.928,10.928,10.928,10.928,10.928,10.928,10.928,10.928,10.928,10.928,10.928,10.928,10.928,10.928,10.928,10.928,10.928,10.928,10.928,10.928,10.928,10.9232,10.8992,10.8624,10.8232,10.7669,10.6773,10.607,10.5249,10.4714,10.4145,10.3836,10.3693,10.3693,10.3456,10.3267,10.3041,10.297,10.2791,10.2648,10.2612,10.2612,10.2659,10.2659,10.2659,10.2741,10.295,10.3101,10.2812,10.245,10.2659,10.2472,10.2367,10.211,10.2088,10.235,10.2835,9.964,9.5559,9.3679,8.994,8.5097,8.2925,8.2886,8.2726,8.3373,8.3868,8.4096,8.4398,8.4739,8.4929,8.4929,8.4929,8.4929,8.4929,8.4929,8.4929,8.4929,8.4929,8.4929,8.4929,8.4929,8.4929,8.4929,8.4929,8.4929,8.4929,8.4929,8.4929,8.4929,8.4929,8.4929,8.4929,8.4929,8.4929,8.4929,8.4929,8.4929,8.4929,8.4929,8.4929,8.4929,8.4929,10.928,10.928,10.928,10.928,10.928,10.928,10.928,10.928,10.928,10.928,10.928,10.928,10.928,10.928,10.928,10.928,10.928,10.928,10.928,10.928,10.928,10.928,10.928,10.928,10.928,10.928,10.928,10.928,10.928,10.928,10.928,10.928,10.9232,10.9085,10.8531,10.7917,10.7042,10.6507,10.5779,10.4593,10.3434,10.3033,10.2609,10.1948,10.1948,10.1995,10.2041,10.2124,10.2053,10.2006,10.2017,10.1899,10.1853,10.1853,10.1806,10.1759,10.1712,10.1666,10.1817,10.0552,10.0394,9.953,9.8819,9.8416,9.9143,9.9498,9.9799,9.9753,9.8461,9.6439,9.3578,9.1706,8.9432,8.4554,8.2461,8.2422,8.265,8.3297,8.3792,8.402,8.4398,8.4815,8.4929,8.4929,8.4929,8.4929,8.4929,8.4929,8.4929,8.4929,8.4929,8.4929,8.4929,8.4929,8.4929,8.4929,8.4929,8.4929,8.4929,8.4929,8.4929,8.4929,8.4929,8.4929,8.4929,8.4929,8.4929,8.4929,8.4929,8.4929,8.4929,8.4929,8.4929,8.4929,8.4929,10.9183,10.9196,10.9232,10.9183,10.8939,10.9134,10.9134,10.9036,10.9085,10.9134,10.9232,10.928,10.928,10.928,10.928,10.928,10.928,10.928,10.928,10.928,10.928,10.928,10.928,10.928,10.928,10.928,10.928,10.928,10.928,10.928,10.928,10.928,10.8757,10.8177,10.7362,10.6471,10.5326,10.4234,10.4596,10.3404,10.2338,10.2032,10.1668,10.1199,10.1058,10.0964,10.0964,10.0964,10.0964,10.0964,10.1011,10.1058,10.1058,10.1151,10.1151,10.1198,10.1291,10.1385,10.1325,9.7765,9.6913,9.6894,9.672,9.5993,9.5367,9.4352,9.4508,9.6892,9.4741,9.27,9.0482,8.9082,8.7681,8.5128,8.3162,8.246,8.2726,8.3221,8.3602,8.3868,8.4475,8.4929,8.4929,8.4929,8.4929,8.4929,8.4929,8.4929,8.4929,8.4929,8.4929,8.4929,8.4929,8.4929,8.4929,8.4929,8.4929,8.4929,8.4929,8.4929,8.4929,8.4929,8.4929,8.4929,8.4929,8.4929,8.4929,8.4929,8.4929,8.4929,8.4929,8.4929,8.4929,8.4929,8.4929,10.8158,10.8255,10.8903,10.8402,10.7119,10.707,10.7461,10.806,10.8158,10.8499,10.928,10.928,10.928,10.928,10.9232,10.9183,10.9134,10.9183,10.9232,10.928,10.928,10.928,10.928,10.9183,10.9085,10.928,10.928,10.9134,10.9036,10.9232,10.9085,10.8597,10.7795,10.5778,10.4124,10.2644,10.3006,10.362,10.3389,10.1684,10.1172,10.0353,9.9608,9.9516,9.9388,9.9388,9.9365,9.969,9.9644,9.9713,9.962,9.9573,9.9526,9.948,9.9445,9.9433,9.9433,9.9433,9.9329,9.8134,9.7763,9.6785,9.6067,9.6063,9.761,9.7731,9.4024,9.475,9.4004,9.2279,8.7576,8.6928,8.5838,8.4592,8.2735,8.2802,8.303,8.3448,8.3714,8.3944,8.4399,8.4929,8.4929,8.4929,8.4929,8.4929,8.4929,8.4929,8.4929,8.4929,8.4929,8.4929,8.4929,8.4929,8.4929,8.4929,8.4929,8.4929,8.4929,8.4929,8.4929,8.4929,8.4929,8.4929,8.4929,8.4929,8.4929,8.4929,8.4929,8.4929,8.4929,8.4929,8.4929,8.4929,8.4929,10.7119,10.7168,10.7754,10.7314,10.6128,10.6128,10.6519,10.7021,10.707,10.7509,10.7998,10.8095,10.8011,10.8011,10.8011,10.8207,10.8611,10.8646,10.8939,10.9134,10.9134,10.8988,10.8695,10.8548,10.8367,10.8011,10.7998,10.8046,10.8109,10.7851,10.8011,10.7572,10.6303,10.411,10.2881,10.2227,10.103,10.1224,10.0789,9.9663,9.9003,9.7371,9.7036,9.6839,9.6724,9.6724,9.7048,9.7924,9.8407,9.8604,9.865,9.8697,9.8744,9.8697,9.8697,9.8697,9.8744,9.8744,9.8582,9.8569,9.789,9.7186,9.4688,9.271,9.1836,9.1898,9.1494,9.1991,9.0029,8.7878,8.4913,8.4577,8.4312,8.3087,8.2689,8.3183,8.36,8.4056,8.4399,8.4437,8.4739,8.4929,8.4929,8.4929,8.4929,8.4929,8.4929,8.4929,8.4929,8.4929,8.4929,8.4929,8.4929,8.4929,8.4929,8.4929,8.4929,8.4929,8.4929,8.4929,8.4929,8.4929,8.4929,8.4929,8.4929,8.4929,8.4929,8.4929,8.4929,8.4929,8.4929,8.4929,8.4929,8.4929,8.4929,10.5947,10.5898,10.5884,10.5849,10.5752,10.5933,10.5849,10.5996,10.603,10.6128,10.6386,10.6275,10.6421,10.6323,10.6533,10.6875,10.7523,10.7558,10.8046,10.8597,10.8939,10.8255,10.7816,10.7461,10.7168,10.6484,10.6582,10.6568,10.6275,10.6338,10.5898,10.5614,10.4039,10.3822,10.2241,9.9821,9.8215,9.6266,9.8421,9.7833,9.6143,9.5574,9.5588,9.4969,9.4547,9.4256,9.4477,9.7117,9.851,9.851,9.851,9.851,9.851,9.851,9.851,9.851,9.851,9.851,9.851,9.8338,9.7082,9.3763,9.1091,8.954,9.0474,8.4885,8.3462,8.7296,8.7148,8.437,8.2972,8.2424,8.297,8.2499,8.2689,8.3221,8.379,8.4323,8.4513,8.4815,8.4929,8.4929,8.4929,8.4929,8.4929,8.4929,8.4929,8.4929,8.4929,8.4929,8.4929,8.4929,8.4929,8.4929,8.4929,8.4929,8.4929,8.4929,8.4929,8.4929,8.4929,8.4929,8.4929,8.4929,8.4929,8.4929,8.4929,8.4929,8.4929,8.4929,8.4929,8.4929,8.4929,8.4929,8.4929,10.4351,10.3634,10.3667,10.3634,10.3634,10.3634,10.4107,10.4741,10.4824,10.5312,10.5933,10.603,10.6079,10.6128,10.603,10.6094,10.6484,10.6568,10.6763,10.6861,10.6909,10.6861,10.6582,10.6484,10.6372,10.6177,10.5801,10.5835,10.5459,10.4741,10.3878,10.3518,10.2019,9.9651,9.7244,9.6191,9.4893,9.2152,9.5298,9.6006,9.5378,9.6261,9.6689,9.6978,9.7325,9.7394,9.7463,9.8338,9.851,9.851,9.851,9.851,9.851,9.851,9.851,9.851,9.851,9.851,9.851,9.8476,9.8131,9.7221,9.5354,9.3189,9.3728,9.4582,9.3526,8.7305,8.621,8.4027,8.2159,8.1284,8.1702,8.212,8.2537,8.3221,8.379,8.3868,8.402,8.4399,8.4741,8.4777,8.4777,8.4853,8.4891,8.4891,8.4929,8.4929,8.4929,8.4929,8.4929,8.4929,8.4929,8.4929,8.4929,8.4929,8.4929,8.4929,8.4929,8.4929,8.4929,8.4929,8.4929,8.4929,8.4929,8.4929,8.4929,8.4929,8.4929,8.4929,8.4929,8.4929,8.4929,8.4929,8.4929,10.339,10.282,10.282,10.282,10.282,10.282,10.3161,10.3634,10.3731,10.4073,10.4595,10.4644,10.4692,10.4595,10.4692,10.4936,10.5278,10.5361,10.564,10.6094,10.6177,10.5933,10.5542,10.5361,10.5019,10.4692,10.4692,10.4873,10.44,10.3439,10.282,10.2667,10.1143,9.8722,9.9274,9.595,9.3594,9.2215,9.1511,9.1547,9.1476,9.1832,9.2267,9.2311,9.3551,9.3939,9.4898,9.6481,9.851,9.851,9.851,9.851,9.851,9.851,9.8476,9.8476,9.8441,9.8373,9.8373,9.851,9.8441,9.8304,9.7152,9.6724,9.5923,9.341,8.9402,8.5798,8.536,8.3739,8.094,8.0525,8.0829,8.1246,8.1778,8.2423,8.2955,8.3146,8.3488,8.402,8.4437,8.4323,8.4246,8.4286,8.4286,8.4286,8.4284,8.4284,8.436,8.4549,8.4701,8.4815,8.4853,8.4929,8.4929,8.4929,8.4929,8.4929,8.4929,8.4929,8.4929,8.4929,8.4929,8.4929,8.4929,8.4929,8.4929,8.4929,8.4929,8.4929,8.4929,8.4929,8.4929,8.4929,8.4929,10.282,10.282,10.282,10.282,10.282,10.282,10.282,10.2868,10.2917,10.282,10.3064,10.2917,10.3015,10.3064,10.3015,10.3439,10.396,10.4253,10.4644,10.5215,10.5361,10.4888,10.4351,10.4171,10.378,10.3405,10.3112,10.282,10.3015,10.3064,10.2686,10.1731,10.1042,10.0757,9.7554,9.4087,9.5218,9.31,8.8275,8.5544,8.5541,8.6091,8.6348,8.6897,8.8383,9.008,9.1019,9.3939,9.6376,9.6805,9.7359,9.7924,9.805,9.82,9.8373,9.7636,9.7463,9.7394,9.6943,9.7117,9.7429,9.6943,9.5633,9.4291,9.3269,9.0051,8.5908,8.1012,8.1162,8.1012,8.0522,8.0145,8.0449,8.0829,8.1057,8.1512,8.212,8.2385,8.2727,8.3221,8.3222,8.3298,8.3562,8.364,8.364,8.364,8.3562,8.3602,8.3678,8.3942,8.4132,8.4474,8.4625,8.4853,8.4929,8.4929,8.4929,8.4929,8.4929,8.4929,8.4929,8.4929,8.4929,8.4929,8.4929,8.4929,8.4929,8.4929,8.4929,8.4929,8.4929,8.4929,8.4929,8.4929,8.4929,10.282,10.282,10.282,10.282,10.282,10.282,10.282,10.282,10.282,10.282,10.282,10.282,10.282,10.282,10.2868,10.2951,10.3064,10.3161,10.339,10.3683,10.3683,10.3503,10.3195,10.3097,10.3064,10.282,10.282,10.282,10.282,10.2753,10.1379,10.0045,9.6863,9.4413,9.1824,8.9576,8.5945,8.4623,8.292,8.3625,8.5544,8.7262,8.8238,8.8528,8.8896,8.9035,8.889,9.1091,9.1698,9.2374,9.3516,9.4828,9.5214,9.7186,9.6132,9.2161,9.1162,9.1091,9.184,9.3233,9.4828,9.4863,9.4116,9.3904,9.2622,8.9799,8.6604,8.4475,8.3288,8.2359,8.0409,8.0107,8.0183,8.0373,8.0449,8.0601,8.1208,8.1588,8.193,8.2006,8.1892,8.212,8.2613,8.2727,8.2727,8.2727,8.2727,8.2727,8.2765,8.3145,8.3561,8.4018,8.436,8.4625,8.4929,8.4891,8.4929,8.4929,8.4929,8.4929,8.4929,8.4929,8.4929,8.4929,8.4929,8.4929,8.4929,8.4929,8.4929,8.4929,8.4929,8.4929,8.4929,8.4929,8.4929,10.282,10.282,10.282,10.282,10.282,10.282,10.282,10.282,10.282,10.282,10.282,10.282,10.282,10.282,10.282,10.282,10.282,10.282,10.282,10.282,10.282,10.282,10.2868,10.282,10.282,10.282,10.282,10.282,10.2786,10.2518,10.163,9.9316,9.654,9.4026,9.1297,8.6755,8.5231,8.4406,8.3099,8.269,8.4177,8.5047,8.5438,8.5746,8.612,8.6897,8.7298,8.8057,8.9107,8.9396,9.0768,9.1448,9.2018,9.2693,9.248,9.0115,8.9468,8.936,8.972,9.0446,9.1626,9.1626,9.1591,9.1626,9.0876,8.8926,8.6165,8.4472,8.3697,8.1687,8.0334,8.0145,8.0107,8.0107,8.0107,8.0297,8.0563,8.0677,8.0905,8.1095,8.1208,8.1512,8.1815,8.1815,8.1853,8.1853,8.1854,8.1892,8.1853,8.2309,8.284,8.3257,8.3714,8.4208,8.4815,8.4891,8.4929,8.4929,8.4929,8.4929,8.4929,8.4929,8.4929,8.4929,8.4929,8.4929,8.4929,8.4929,8.4929,8.4929,8.4929,8.4929,8.4929,8.4929,8.4929,10.282,10.282,10.282,10.282,10.282,10.282,10.282,10.282,10.282,10.282,10.282,10.282,10.282,10.282,10.282,10.282,10.282,10.282,10.282,10.282,10.282,10.282,10.282,10.282,10.2719,10.2719,10.2619,10.2451,10.225,10.1779,10.0432,9.9295,9.6378,9.3605,9.1264,8.9071,8.5269,8.4634,8.3351,8.2357,8.274,8.301,8.2857,8.2626,8.3591,8.4095,8.4682,8.6324,8.7699,8.773,8.8202,8.8135,8.7699,8.7517,8.7517,8.6897,8.6787,8.6531,8.6897,8.7803,8.842,8.8456,8.8456,8.8462,8.7772,8.5724,8.3919,8.2881,8.1537,8.0258,8.0107,8.0107,8.0107,8.0107,8.0107,8.0107,8.0107,8.0183,8.0259,8.0449,8.0715,8.1057,8.1057,8.1057,8.1057,8.1057,8.1095,8.1095,8.1057,8.1436,8.1929,8.2461,8.2994,8.3714,8.4474,8.4474,8.4815,8.4777,8.4929,8.4929,8.4929,8.4929,8.4929,8.4929,8.4929,8.4853,8.4891,8.4929,8.4929,8.4929,8.4929,8.4929,8.4929,8.4929,8.4929,10.282,10.282,10.282,10.282,10.282,10.282,10.282,10.282,10.282,10.282,10.282,10.282,10.282,10.282,10.282,10.282,10.282,10.282,10.282,10.282,10.282,10.282,10.282,10.2753,10.2619,10.2082,10.2149,10.1562,10.1157,10.0649,9.8336,9.3965,9.2409,9.0364,8.5958,8.3455,8.3503,8.3705,8.297,8.2578,8.2612,8.2612,8.2536,8.2158,8.2434,8.2164,8.2353,8.2267,8.1952,8.1612,8.3919,8.3623,8.2323,8.1461,8.1461,8.1648,8.2014,8.2196,8.264,8.3868,8.5158,8.5283,8.5242,8.5242,8.473,8.2842,8.1499,8.0823,8.0673,8.0107,8.0107,8.0107,8.0107,8.0107,8.0107,8.0107,8.0107,8.0107,8.0031,8.0031,8.0259,8.0487,8.0449,8.0449,8.0335,8.0297,8.0297,8.0297,8.0259,8.0487,8.0981,8.1437,8.1854,8.2537,8.3145,8.3335,8.4399,8.4627,8.4929,8.4929,8.4929,8.4663,8.436,8.4587,8.4625,8.4701,8.4663,8.4436,8.4511,8.4929,8.4815,8.4398,8.4549,8.4891,8.4474,10.282,10.282,10.282,10.282,10.282,10.282,10.282,10.282,10.282,10.282,10.282,10.282,10.282,10.282,10.282,10.282,10.282,10.282,10.282,10.282,10.282,10.282,10.282,10.2753,10.2719,10.2436,10.2351,10.1109,9.9602,9.8289,9.5972,9.184,8.944,8.6851,8.463,8.3125,8.2737,8.2994,8.3145,8.3373,8.3714,8.379,8.3676,8.3069,8.2385,8.1892,8.1853,8.1474,8.1095,8.0905,8.1118,8.0728,7.9572,7.9043,7.8852,7.874,7.8778,7.874,7.8852,8.0036,8.0957,8.0805,8.1237,8.1391,8.099,8.0818,8.0069,8.0107,8.0031,8.0069,8.0107,8.0069,8.0107,8.0107,8.0107,8.0107,7.9993,7.9614,7.9348,7.9424,7.9727,7.9917,8.0107,8.0183,8.0145,7.9879,7.9879,7.9841,7.9841,7.9803,8.0183,8.0335,8.0753,8.1208,8.1778,8.2499,8.3412,8.3714,8.4094,8.4398,8.4322,8.4056,8.3713,8.3485,8.3333,8.3637,8.3942,8.3599,8.3447,8.3713,8.3788,8.3637,8.3441,8.3116,8.2811,10.282,10.282,10.282,10.282,10.282,10.282,10.282,10.282,10.282,10.282,10.282,10.282,10.282,10.282,10.282,10.282,10.282,10.282,10.282,10.282,10.282,10.282,10.282,10.282,10.2619,10.225,10.2317,10.0534,9.783,9.5961,9.3798,9.0429,8.7519,8.5734,8.5152,8.351,8.3145,8.3868,8.398,8.4284,8.4701,8.4777,8.4511,8.4018,8.341,8.2993,8.2764,8.2346,8.1853,8.1133,8.0221,7.9685,7.893,7.8286,7.7981,7.7866,7.7678,7.7602,7.76,7.7824,7.7637,7.8084,7.8615,7.8513,7.8551,7.912,7.9424,7.9538,7.9538,7.9348,7.9348,7.9462,7.9386,7.931,7.9348,7.9424,7.9386,7.8893,7.8514,7.8627,7.9044,7.9537,7.95,7.9348,7.9386,7.95,7.9462,7.95,7.9424,7.931,7.9272,7.9158,7.9462,7.9614,8.0145,8.0677,8.1436,8.193,8.2841,8.341,8.3297,8.3069,8.2878,8.2612,8.2233,8.2536,8.2916,8.2688,8.265,8.2574,8.2574,8.2764,8.2564,8.1395,8.0814,10.282,10.282,10.282,10.282,10.2722,10.2771,10.2576,10.2771,10.2673,10.2722,10.2771,10.2771,10.282,10.282,10.282,10.282,10.282,10.282,10.282,10.282,10.282,10.282,10.2786,10.2753,10.2183,10.1326,10.0968,9.8473,9.5413,9.4291,9.1409,8.7556,8.6204,8.5157,8.4284,8.392,8.4096,8.4625,8.4663,8.4777,8.4777,8.4777,8.4625,8.4398,8.4132,8.3866,8.3221,8.2309,8.1398,8.1285,8.1095,8.0032,7.8817,7.8666,7.821,7.764,7.7336,7.7298,7.745,7.7298,7.7412,7.7374,7.7488,7.7678,7.7716,7.7905,7.8095,7.8133,7.783,7.8019,7.8057,7.7905,7.8019,7.8057,7.7867,7.7866,7.7828,7.7754,7.7678,7.7716,7.7754,7.783,7.7792,7.7792,7.7905,7.8512,7.8398,7.8399,7.8399,7.8437,7.8436,7.8322,7.8285,7.8247,7.8589,7.9044,7.9766,8.0411,8.1512,8.1854,8.174,8.136,8.155,8.1625,8.1056,8.1094,8.1512,8.1853,8.2081,8.1735,8.0242,8.1042,8.1611,7.9213,7.727,10.1926,10.1877,10.1276,10.1032,10.1032,10.1032,10.1032,10.1129,10.1633,10.1926,10.2072,10.256,10.282,10.282,10.282,10.282,10.282,10.282,10.2771,10.2771,10.2771,10.2722,10.2671,10.2336,10.1933,10.134,10.0934,9.7601,9.3286,9.2046,8.8888,8.4853,8.3929,8.3898,8.3678,8.421,8.4625,8.4853,8.4929,8.4741,8.4323,8.4286,8.4096,8.3523,8.3447,8.3371,8.3031,8.2309,8.1702,8.1133,8.0297,7.9538,7.8741,7.7831,7.711,7.6842,7.6347,7.6119,7.6081,7.6119,7.6119,7.6195,7.6577,7.6729,7.6842,7.7298,7.7526,7.7488,7.7526,7.7526,7.7526,7.7526,7.7526,7.7374,7.6689,7.6119,7.6081,7.6537,7.6729,7.688,7.7184,7.7564,7.7564,7.7564,7.7564,7.7488,7.7374,7.7412,7.7412,7.7564,7.764,7.7754,7.7792,7.7678,7.7904,7.8361,7.9006,7.9273,8.0032,7.9917,7.9462,7.8702,7.9196,7.9766,7.9614,7.95,7.9462,7.9614,8.0221,7.9915,7.7937,7.7286,7.669,7.5143,7.3472,10.1682,10.1585,10.0869,10.0349,10.0137,10.0137,10.0039,9.9844,10.0544,10.0837,10.0983,10.1682,10.1877,10.1975,10.1926,10.2024,10.1877,10.1926,10.2072,10.2316,10.217,10.2024,10.1924,10.151,10.1162,10.0747,9.9847,9.6572,9.0807,8.9669,8.6758,8.1934,8.1898,8.2311,8.3297,8.3904,8.4244,8.4244,8.4284,8.3942,8.3486,8.345,8.3069,8.246,8.2498,8.246,8.2422,8.2422,8.2005,8.0981,7.969,7.9044,7.8666,7.7679,7.6882,7.6387,7.5741,7.5359,7.5169,7.5093,7.5093,7.5129,7.5663,7.5855,7.5929,7.6537,7.6841,7.688,7.6917,7.6841,7.6842,7.6804,7.6804,7.6729,7.5891,7.5169,7.5245,7.5549,7.5893,7.5967,7.6425,7.6691,7.6729,7.6729,7.6765,7.6765,7.6729,7.6691,7.6539,7.6577,7.6499,7.6766,7.6956,7.6993,7.7145,7.7602,7.7943,7.8134,7.8095,7.8018,7.741,7.6955,7.7564,7.8172,7.8399,7.8551,7.8247,7.7981,7.8172,7.8741,7.7473,7.691,7.5242,7.1588,6.9962,10.2707,10.2722,10.2609,10.1715,10.0885,10.0788,10.0235,9.9698,9.9795,9.9844,9.9893,10.0137,10.0137,10.0039,10.0284,10.0235,9.9942,10.0186,10.0593,10.0771,10.0446,10.0088,10.0104,10.0055,9.9549,9.883,9.7926,9.4103,8.8411,8.7219,8.4449,8.0939,8.0639,8.1057,8.2384,8.2536,8.2764,8.2802,8.2726,8.2649,8.2536,8.2498,8.2384,8.2309,8.2233,8.2233,8.2157,8.2157,8.1588,8.0411,8.0069,7.9538,7.8931,7.8666,7.7717,7.6501,7.6197,7.5703,7.5245,7.5093,7.5018,7.5018,7.5131,7.5093,7.5207,7.5397,7.5511,7.5473,7.5435,7.5359,7.5359,7.5397,7.5321,7.5207,7.5018,7.5015,7.5053,7.5093,7.5245,7.5207,7.5131,7.5207,7.5435,7.5397,7.5397,7.5397,7.5435,7.5511,7.5511,7.5625,7.5321,7.5397,7.5663,7.5739,7.5967,7.6385,7.6423,7.6501,7.6347,7.6157,7.5739,7.6043,7.6577,7.707,7.745,7.76,7.7524,7.7297,7.7298,7.657,7.6536,7.7418,7.4686,6.9599,6.6786,9.9779,9.9682,9.9047,9.8543,9.825,9.8201,9.8006,9.7762,9.8299,9.9031,9.96,9.9698,10.0039,10.0446,9.9991,9.9746,9.9698,9.9698,9.9325,9.8612,9.8481,9.8741,9.9,9.8967,9.8446,9.7135,9.4752,9.1432,8.7616,8.5543,8.3295,8.1208,8.0829,8.136,8.2309,8.2422,8.2422,8.2422,8.2384,8.2157,8.1777,8.1702,8.1436,8.1019,8.0943,8.0981,8.0981,8.0943,8.0639,8.0259,8.0107,7.9955,7.9614,7.9006,7.8476,7.7679,7.6844,7.6083,7.5777,7.5207,7.5018,7.5018,7.5018,7.5018,7.5018,7.5018,7.5018,7.5018,7.498,7.5018,7.5053,7.5053,7.4752,7.4226,7.4185,7.4486,7.4942,7.5018,7.498,7.4942,7.4942,7.5018,7.5018,7.5018,7.5018,7.5018,7.5018,7.5018,7.5018,7.5018,7.5056,7.5093,7.5018,7.5018,7.5018,7.5018,7.5018,7.4866,7.479,7.4676,7.479,7.5248,7.559,7.6121,7.6385,7.6461,7.6689,7.6499,7.6242,7.4067,7.2968,7.3112,7.218,6.7268,6.4564,9.8511,9.8445,9.7713,9.7256,9.6883,9.6852,9.6688,9.6573,9.7567,9.825,9.877,9.9405,9.9665,9.9616,9.9421,9.8837,9.8449,9.9081,9.8515,9.7369,9.7544,9.7739,9.7625,9.7384,9.6993,9.5809,9.2432,8.9378,8.6992,8.409,8.1723,8.0483,8.0297,8.0905,8.155,8.1663,8.1702,8.1702,8.1702,8.1474,8.0943,8.0905,8.0677,8.0145,8.0107,7.9917,7.969,7.9424,7.931,7.9234,7.931,7.931,7.9196,7.8703,7.8248,7.7869,7.6804,7.6045,7.5514,7.4833,7.4486,7.4258,7.422,7.4258,7.4223,7.4182,7.4182,7.422,7.4258,7.4258,7.4258,7.4258,7.3954,7.3388,7.3315,7.3577,7.3992,7.4144,7.4258,7.4258,7.422,7.4258,7.422,7.4182,7.4106,7.4106,7.4144,7.4334,7.4524,7.4524,7.4638,7.498,7.5018,7.5018,7.5018,7.5018,7.4562,7.403,7.3843,7.3729,7.4147,7.4567,7.483,7.5096,7.5207,7.5359,7.5625,7.5663,7.5625,7.4266,7.2427,7.0485,6.8537,6.6203,6.3676,9.96,9.9454,9.9649,9.864,9.7762,9.7632,9.7242,9.6671,9.7437,9.7437,9.7242,9.8608,9.8398,9.721,9.7685,9.7073,9.6289,9.753,9.7675,9.6806,9.6741,9.6437,9.584,9.514,9.5075,9.5275,9.1297,8.8382,8.6317,8.2992,8.0147,7.8344,7.8817,7.9652,8.0145,8.0335,8.0221,8.0297,8.0335,8.0221,8.0107,8.0221,8.0145,8.0069,7.9917,7.9538,7.8779,7.8095,7.7792,7.7716,7.7716,7.7602,7.7754,7.7716,7.7224,7.6653,7.6273,7.5402,7.4188,7.3884,7.3539,7.3084,7.2666,7.278,7.2856,7.278,7.278,7.2818,7.278,7.2704,7.2742,7.259,7.2476,7.2514,7.2549,7.2552,7.2666,7.259,7.2552,7.2739,7.278,7.259,7.259,7.278,7.2894,7.2856,7.2856,7.3046,7.3615,7.3694,7.4071,7.46,7.46,7.441,7.4714,7.4866,7.3846,7.3018,7.2801,7.3084,7.3577,7.3732,7.3919,7.3899,7.3974,7.292,7.311,7.2339,7.2767,7.4408,7.3062,7.1269,6.8021,6.4707,6.2449,9.8103,9.7549,9.7469,9.7256,9.6932,9.6901,9.6737,9.6493,9.6786,9.7127,9.7325,9.6976,9.6882,9.6835,9.6597,9.586,9.4996,9.5444,9.5636,9.5284,9.4548,9.4216,9.4071,9.3864,9.3576,9.328,9.2489,9.0089,8.6356,8.3696,8.1407,7.9344,7.95,7.9803,7.9993,8.0107,8.0107,8.0107,8.0107,8.0069,8.0107,8.0107,8.0107,7.9917,7.8931,7.8209,7.7943,7.7716,7.7526,7.7526,7.7526,7.7526,7.7526,7.7526,7.7412,7.7108,7.6539,7.5931,7.5362,7.4302,7.3543,7.3277,7.2784,7.2514,7.2514,7.2514,7.2514,7.2514,7.2514,7.2514,7.2325,7.1489,7.1072,7.1633,7.1713,7.1903,7.2435,7.2476,7.2476,7.24,7.24,7.2438,7.2514,7.2476,7.2438,7.2514,7.2514,7.2552,7.2856,7.2894,7.3046,7.3236,7.3426,7.3463,7.2476,7.2091,7.1384,7.1375,7.1266,7.2247,7.2894,7.286,7.2867,7.2745,7.2054,7.0869,6.9753,6.8766,7.0294,7.2984,7.1754,6.8901,6.6107,6.2936,6.0245,9.5486,9.5193,9.5224,9.5224,9.5224,9.5224,9.5224,9.5273,9.5694,9.6005,9.6204,9.6345,9.6174,9.584,9.4582,9.4151,9.4471,9.463,9.4805,9.4933,9.4121,9.339,9.2955,9.2515,9.2338,9.2245,9.1972,8.9206,8.4468,8.158,7.9765,7.8848,7.9006,7.9196,7.9158,7.9196,7.9158,7.9158,7.9158,7.9158,7.912,7.9158,7.9006,7.8664,7.7373,7.6651,7.6651,7.6615,7.6689,7.6651,7.6615,7.6651,7.6651,7.6651,7.6651,7.6613,7.6083,7.5628,7.521,7.4033,7.3125,7.2818,7.2025,7.1565,7.1603,7.1603,7.1603,7.1565,7.1603,7.1603,7.1375,7.0659,7.0203,7.073,7.0877,7.1067,7.1451,7.1603,7.1603,7.1603,7.1569,7.1603,7.1489,7.1565,7.1569,7.1569,7.1603,7.1717,7.1979,7.2059,7.2245,7.24,7.2408,7.1637,6.9543,6.8568,6.8534,6.8568,6.8709,6.8677,6.9207,6.8934,6.9225,6.8851,7.1116,7.0426,6.9139,6.8339,6.9465,7.1011,6.7809,6.5123,6.3063,6.1348,5.8578,9.2265,9.3125,9.3144,9.3271,9.3174,9.3223,9.3223,9.3388,9.4266,9.4119,9.3766,9.5998,9.6024,9.3516,9.1842,9.2078,9.4042,9.4339,9.4703,9.5203,9.475,9.3756,9.2266,9.1314,9.1439,9.2087,9.0322,8.6741,8.1928,7.7753,7.5654,7.6423,7.7298,7.764,7.7678,7.7716,7.7638,7.7716,7.7716,7.764,7.7602,7.7562,7.7032,7.6311,7.5473,7.5169,7.5167,7.5056,7.5093,7.5056,7.5056,7.5018,7.498,7.4942,7.4904,7.4904,7.4904,7.4562,7.3694,7.2932,7.2207,7.1481,7.0616,6.9976,7.0051,6.9938,6.9938,6.9938,6.9938,6.9895,6.9895,6.9634,6.971,6.9786,6.9895,6.9938,6.9976,7.0165,7.0013,7.0089,7.0203,7.0279,7.0127,7.0013,7.0165,7.0203,7.0089,7.0189,7.0631,7.0819,7.0779,7.106,7.0693,6.9472,6.3226,6.2987,6.2577,6.2782,6.3775,6.2301,6.3223,6.4117,6.4459,6.5361,6.6926,6.7828,6.8112,6.8149,6.7974,6.6125,6.2725,6.203,6.0737,5.9448,5.7545,9.3692,9.3174,9.3125,9.3125,9.3125,9.3125,9.3125,9.3113,9.3041,9.2858,9.2542,9.233,9.1486,9.024,9.0346,9.0678,9.1242,9.1009,9.1182,9.1668,9.1119,9.0975,9.1252,9.1626,9.2047,9.2324,9.2103,9.0374,8.7031,8.2471,7.9082,7.7437,7.7448,7.7526,7.7526,7.7526,7.7526,7.7526,7.7526,7.7526,7.7374,7.6385,7.5587,7.5397,7.5167,7.5018,7.5018,7.5018,7.5018,7.5018,7.4375,7.4071,7.4033,7.3501,7.316,7.3198,7.3232,7.3046,7.2856,7.2131,7.1523,7.1291,6.9966,6.9168,6.9022,6.8528,6.8452,6.8946,6.8496,6.8186,6.8148,6.8116,6.8116,6.8186,6.8794,6.9135,6.9173,6.9672,6.9938,7.0013,6.9824,7.0013,6.9976,6.9976,6.9976,6.9976,6.9942,6.963,6.7767,6.737,6.663,6.4631,6.4392,6.3295,6.186,6.07,6.1212,6.1212,6.0801,6.0764,6.1686,6.2027,6.216,6.1103,6.0596,6.0978,6.1764,6.083,6.0173,5.8244,5.7262,5.7189,5.8115,5.6803,5.5405,9.1563,9.0509,9.046,9.0605,9.0727,9.0549,9.0642,9.1078,9.0957,9.0807,9.0367,8.8272,8.7009,8.6444,8.7056,8.7961,8.8928,8.8272,8.8943,9.0647,8.9725,8.9771,9.0706,9.1018,9.1314,9.167,8.9898,8.8248,8.6076,8.1555,7.8294,7.6717,7.6537,7.6501,7.6501,7.6537,7.6537,7.6537,7.6537,7.6501,7.6349,7.5172,7.3852,7.2717,7.2315,7.2166,7.2131,7.2166,7.2764,7.3887,7.3501,7.3201,7.3163,7.278,7.2514,7.2514,7.2514,7.2514,7.2476,7.1789,7.1367,7.1367,7.008,6.9135,6.8794,6.83,6.8034,6.818,6.7497,6.7155,6.7427,6.7465,6.7427,6.7503,6.7921,6.8262,6.8262,6.868,6.8951,6.8984,6.8984,6.8913,6.8989,6.9255,6.9629,6.9938,7.0013,6.9545,6.7878,6.6403,6.5054,6.3054,5.9183,5.7354,5.6678,5.7034,5.7119,5.7216,5.7473,5.7657,5.7689,5.8319,5.8907,5.7689,5.8966,5.9142,5.6865,5.7306,5.7755,5.6235,5.5444,5.5216,5.5771,5.4656,5.3749,8.7788,8.6631,8.6672,8.6805,8.7256,8.6715,8.7009,8.7792,8.8331,8.8213,8.7372,8.4573,8.3356,8.3205,8.3298,8.4651,8.6725,8.6162,8.7569,9.0286,8.9444,8.9351,9.002,8.9491,8.9631,8.9917,8.5999,8.4051,8.3233,7.8572,7.5831,7.5442,7.5124,7.5093,7.5056,7.5056,7.5091,7.5018,7.4901,7.4825,7.4714,7.3995,7.2076,6.9014,6.8406,6.7875,6.7597,6.7561,6.9058,7.1791,7.1959,7.2055,7.2328,7.2287,7.2249,7.2211,7.2249,7.2287,7.2211,7.1637,7.1215,7.1177,7.0312,6.9482,6.8902,6.8794,6.8414,6.7579,6.6775,6.6623,6.7237,6.7161,6.7047,6.6978,6.7199,6.7351,6.7351,6.7389,6.7427,6.7427,6.7655,6.7465,6.7731,6.8224,6.8908,6.9406,6.9012,6.809,6.663,6.4794,6.3386,6.2439,5.6977,5.1639,5.1229,5.1155,5.2138,5.2011,5.2093,5.2755,5.3455,5.4642,5.5529,5.4428,5.6198,5.7922,5.7262,5.8215,5.8769,5.5923,5.5176,5.5176,5.2606,5.2003,5.2202,8.7487,8.5371,8.5342,8.5381,8.5507,8.5363,8.5449,8.5554,8.5255,8.4821,8.4327,8.4001,8.3563,8.3205,8.3176,8.3497,8.4035,8.3936,8.4311,8.5131,8.5468,8.6143,8.7094,8.7825,8.8572,8.9319,8.9129,8.7718,8.552,8.2944,8.0585,7.8307,7.6109,7.5018,7.5018,7.5018,7.5018,7.4942,7.3726,7.3046,7.3046,7.2894,7.1363,6.8508,6.8085,6.6966,6.4824,6.4719,6.6021,6.8779,6.8513,6.9178,7.1392,7.0958,7.0545,7.0545,7.0545,7.0545,7.0507,7.0355,7.0279,7.0274,6.9553,6.8984,6.8832,6.8794,6.8414,6.7573,6.6775,6.6319,6.6471,6.5984,6.5498,6.5536,6.6098,6.6509,6.6554,6.7085,6.7427,6.7427,6.7427,6.7389,6.7465,6.7655,6.7845,6.7713,6.6158,6.3055,5.9282,5.7946,5.7409,5.6503,5.3646,5.0722,5.054,5.0682,5.0739,5.0739,5.0944,5.1086,5.1155,5.1442,5.1482,5.1632,5.2858,5.3567,5.3134,5.3851,5.4221,5.3888,5.3187,5.2572,5.1503,5.1228,5.0853,8.5305,8.3604,8.3537,8.334,8.3115,8.359,8.3923,8.3988,8.2775,8.2057,8.1801,8.2039,8.2057,8.1772,8.1772,8.2053,8.2474,8.2503,8.2989,8.3848,8.4333,8.5349,8.672,8.6907,8.7747,8.8946,8.6838,8.4975,8.3621,8.0257,7.7766,7.6227,7.4675,7.3843,7.3843,7.3878,7.3878,7.3843,7.192,7.0929,7.0894,6.9636,6.7458,6.4409,6.3773,6.27,6.1072,6.0714,6.1922,6.4808,6.5834,6.7085,6.871,6.9505,7.0013,7.0013,7.0013,7.0013,7.0013,7.0013,7.0013,6.9976,6.9596,6.9211,6.8832,6.8414,6.818,6.8034,6.6965,6.6243,6.6243,6.5453,6.4898,6.4898,6.5377,6.5674,6.5718,6.6098,6.6295,6.6326,6.6295,6.6257,6.6257,6.6668,6.6927,6.6706,6.4938,6.194,5.7924,5.4525,5.2201,5.2034,5.0831,4.9855,4.9721,4.9886,5.0085,5.0114,5.0341,5.0511,5.054,5.0574,5.0574,5.0568,5.0864,5.1058,5.1121,5.1171,5.1143,5.1114,5.0659,5.0494,5.0517,5.0147,4.9635,8.2616,8.1608,8.156,8.1284,8.0812,8.1709,8.2369,8.2596,8.0884,8.0107,8.0107,8.0107,8.0107,8.0107,8.0107,8.0575,8.1398,8.1398,8.2305,0.0,8.393,8.4958,8.675,8.605,8.6552,8.7549,8.2535,8.0168,8.011,7.5652,7.3126,7.3164,7.2682,7.2514,7.2514,7.2514,7.2362,7.2139,7.0152,6.8938,6.8516,6.6146,6.3211,5.9763,5.8585,5.7682,5.7167,5.6491,5.7584,6.0623,6.3192,6.4754,6.5123,6.7341,6.8869,6.9041,6.9036,6.9239,6.9563,6.9634,6.9634,6.9634,6.9634,6.9255,6.849,6.7877,6.7769,6.8452,6.7155,6.6243,6.6205,6.5453,6.4898,6.4898,6.4898,6.4898,6.4936,6.4974,6.5012,6.5012,6.4898,6.4974,6.5057,6.5208,6.5272,6.5103,6.2475,6.0675,5.737,5.2833,4.921,4.8791,4.8791,4.8791,4.8962,4.918,4.9403,4.9426,4.9886,5.0147,5.0147,5.0114,5.0147,5.0261,5.0313,5.0341,5.0261,4.9858,4.9772,4.9607,4.9185,4.899,4.9465,4.8872,4.8364,8.1813,8.0414,8.0414,8.0312,8.0275,8.0387,8.0547,8.0575,0.0,0.0,0.0,8.0107,8.0107,8.0107,8.0107,8.0201,8.0341,8.0369,8.0528,8.0827,8.0902,8.151,8.2726,8.3381,8.3207,8.2229,8.2645,8.1851,7.989,7.7294,7.6022,7.5787,7.3671,7.2514,7.2514,7.2514,7.1831,7.0473,7.0011,6.8673,6.6371,6.5757,6.3152,5.8216,5.7374,5.6125,5.4297,5.3582,5.4811,5.8154,5.889,6.0004,6.1861,6.251,6.3281,6.4433,6.455,6.5492,6.769,6.7921,6.7883,6.785,6.7883,6.7541,6.6807,6.7161,6.7503,6.7655,6.6883,6.6243,6.6243,6.5453,6.4898,6.4898,6.4898,6.4898,6.4898,6.4898,6.486,6.4898,6.4898,6.4898,6.4867,6.3251,6.1788,6.1257,5.8081,5.4289,5.3512,5.1042,4.8791,4.8791,4.8791,4.8791,4.8791,4.8872,4.8933,4.8957,4.9043,4.9104,4.9104,4.9104,4.9104,4.9185,4.9465,4.9488,4.918,4.9266,4.9465,4.8986,4.8449,4.816,4.8587,4.7591,4.6709,8.0837,0.0,8.0107,8.0107,0.0,8.0107,7.8639,7.6218,7.6275,7.6246,7.6332,7.7574,7.8113,7.8198,7.9529,8.0107,8.0107,8.0107,8.0107,8.0051,7.9258,7.9878,8.1622,8.1341,8.1068,8.0663,8.0215,7.8983,7.6829,7.4473,7.3321,7.3321,7.1962,7.119,7.119,7.1228,7.0844,7.0013,6.882,6.752,6.6063,6.3225,6.038,5.7779,0.0,0.0,0.0,0.0,0.0,0.0,0.0,0.0,0.0,0.0,0.0,6.1708,6.1806,6.2399,6.3681,6.3812,6.411,6.4731,6.4785,6.4122,6.2556,6.4365,6.5535,6.5387,6.5535,6.5605,6.5567,6.5194,6.4777,6.439,6.4352,6.4511,6.4784,6.4587,6.4473,6.4815,6.4898,6.4898,6.4898,6.2571,6.098,6.0605,5.6119,5.2812,5.2457,5.0469,4.8762,4.8791,4.8791,4.8791,4.8791,4.8791,4.8791,4.8791,4.8791,4.8791,4.8791,4.8791,4.8791,4.8791,4.8701,4.8611,4.8303,4.7929,4.7612,4.7335,4.6794,4.6595,4.7139,4.6566,4.6082,7.8667,7.8667,7.8667,7.8667,7.8621,7.8281,7.5825,7.2028,7.1999,7.2028,7.2216,7.4327,7.5248,7.5448,7.7625,7.8892,7.9314,7.8864,7.8921,7.9276,7.754,7.7915,7.9782,7.8994,7.8709,7.8791,7.7028,7.5137,7.3235,7.1026,7.0013,7.0013,7.0013,7.0013,7.0013,0.0,0.0,0.0,6.8134,6.6624,6.5356,6.0789,5.7899,5.6918,5.4044,0.0,5.2487,5.2366,5.2053,5.1611,5.3724,0.0,0.0,0.0,0.0,0.0,0.0,0.0,0.0,0.0,0.0,0.0,5.9811,5.8911,5.7628,5.9939,6.1528,6.1598,6.2516,6.3244,6.3672,6.3621,6.3533,6.3494,6.3365,6.3382,6.3644,6.317,6.2771,6.3077,6.3079,6.319,6.2815,6.0971,5.9253,5.8718,5.5002,5.2133,5.1842,5.0077,4.8795,4.8791,4.8791,4.8791,4.8791,4.8791,4.8791,4.8791,4.8791,4.8791,4.8791,4.8791,4.8791,4.8762,4.8364,4.7993,4.768,4.6854,4.6196,4.5767,4.5281,4.5023,4.5414,4.5589,4.5824,7.3444,7.3487,7.3487,7.3487,7.3315,7.1922,7.0922,7.0328,7.03,7.03,7.0328,7.1467,7.1966,7.2038,7.2983,7.4648,7.6532,7.4474,7.4648,7.6487,7.4286,7.3366,7.3745,7.5093,7.4592,7.2651,7.3789,7.3025,7.0537,7.0141,7.0013,7.0013,7.0013,7.0013,7.0013,7.0013,7.0013,6.9976,6.9654,6.7051,6.2031,6.1174,5.8624,5.4268,5.3042,5.2515,5.2487,5.1939,5.1598,5.1513,5.1316,5.0952,5.0286,5.0203,5.072,0.0,5.2114,0.0,0.0,0.0,0.0,0.0,0.0,0.0,0.0,5.3137,5.3882,5.5123,5.5878,5.7157,5.9276,5.8875,5.9627,6.2331,6.2036,6.0968,5.9679,5.9415,5.8566,5.6517,5.679,5.7106,5.7264,5.5156,5.375,5.3782,5.1359,4.9467,4.9292,4.8997,4.8734,4.8791,4.8791,4.8791,4.8791,4.8791,4.8791,4.8791,4.8791,4.8791,4.8791,4.8791,4.8791,4.8762,4.8653,4.8221,4.7136,4.6791,4.6279,4.5222,4.4969,4.4788,4.4447,4.4658,4.5025,7.1094,7.1137,7.1066,6.9481,6.6954,6.6211,6.589,6.5861,6.589,6.589,6.5901,6.632,6.7208,6.8596,7.0323,7.1738,7.2678,7.1581,7.1967,7.3345,7.0843,7.0697,7.2506,7.2531,7.1845,7.0635,7.1976,7.1221,6.8701,6.9097,6.9325,6.933,6.9748,6.952,6.8609,6.9097,6.9292,6.9292,6.8189,6.5526,6.1383,5.9597,5.7491,5.4946,5.2965,5.1769,5.1427,5.0767,5.0318,5.0044,4.9384,4.8725,4.8099,4.7851,4.8027,0.0,0.0,0.0,0.0,0.0,0.0,0.0,0.0,0.0,0.0,0.0,4.8741,5.1847,5.2806,5.3743,5.48,5.5308,5.6029,5.7086,5.7063,5.6796,5.6188,5.6013,5.5533,5.4603,5.5028,5.5466,5.5404,5.3563,5.2257,5.2225,4.9646,4.7803,4.8072,4.8221,4.8396,4.8705,4.8791,4.8791,4.8791,4.8791,4.8791,4.8791,4.8791,4.8791,4.8791,4.8791,4.8791,4.8734,4.8193,4.7509,4.6965,4.6029,4.5101,4.4569,4.4641,4.461,4.4063,4.4155,4.4246,6.8232,6.819,6.7761,6.5449,6.198,6.2018,6.198,6.1951,6.198,6.198,6.1951,6.198,6.302,6.4916,6.6993,6.8364,6.907,6.8516,6.892,6.9962,6.7496,6.7655,7.0044,6.9228,6.8779,6.8865,6.9624,6.9119,6.7529,6.7958,6.83,6.849,6.8908,6.8452,6.7269,6.8034,6.849,6.849,6.6298,6.402,6.173,5.8221,5.5772,5.4701,5.2465,5.0944,5.0176,4.9664,4.9038,4.8364,4.7566,4.6879,4.6393,4.6139,0.0,0.0,0.0,0.0,0.0,0.0,0.0,0.0,0.0,4.1991,4.4865,0.0,4.4511,0.0,4.9265,5.0071,5.0674,5.1498,0.0,0.0,5.2459,5.2563,5.2312,5.2166,5.1928,5.1659,5.2215,5.2607,5.2637,5.1489,5.057,5.0205,4.8148,4.6831,4.7333,4.7524,4.7794,4.8193,4.8278,4.8242,4.8083,4.8107,4.7985,4.7883,4.7851,4.7879,4.7851,4.7846,4.7916,4.799,4.7253,4.6693,4.6592,4.5452,4.4345,4.3635,4.382,4.4033,4.3577,4.3607,4.3546,6.3169,6.3083,6.1548,6.064,6.028,6.028,6.0242,6.028,6.0251,6.028,6.0251,6.028,6.0394,6.0631,6.1529,0.0,6.6456,6.4186,6.4478,6.6548,6.4156,6.3146,6.3438,6.4034,6.4648,6.535,6.5388,6.6133,6.7313,6.6775,6.6851,6.7503,6.6889,6.6541,6.6395,6.7123,6.7541,6.7477,6.488,6.3456,6.3162,5.7921,5.3826,5.1075,5.0762,5.009,4.9023,4.8876,4.8278,4.7022,4.5795,4.5082,4.5025,0.0,0.0,0.0,0.0,0.0,0.0,0.0,0.0,0.0,0.0,0.0,0.0,0.0,0.0,0.0,4.3097,0.0,4.7045,4.6692,0.0,0.0,0.0,4.9109,4.7573,4.737,4.6695,4.4891,0.0,0.0,4.5694,4.6606,4.6794,4.5589,4.5779,4.6194,4.6845,4.6873,4.6968,4.6987,4.699,4.68,4.634,4.6244,4.6081,4.5574,4.5213,4.5395,4.5455,4.5427,4.5559,4.6156,4.608,4.5987,4.5989,4.57,4.5008,4.2593,4.2237,4.2237,4.2183,4.2607,4.2912,6.0498,5.9472,5.8799,5.856,5.856,5.856,5.8533,5.856,5.8495,5.856,5.8533,5.8533,5.8533,5.856,5.8875,0.0,0.0,0.0,6.0618,6.2493,6.1529,6.1609,6.2588,6.2892,6.3205,6.3479,6.3479,6.385,6.4527,6.4686,6.439,6.3714,0.0,0.0,6.1802,6.4522,6.4408,6.1408,6.0933,5.9972,5.8322,5.4382,5.1534,5.0005,4.9635,4.9071,4.8221,4.7452,4.6623,4.571,4.4798,4.4173,0.0,0.0,0.0,0.0,0.0,0.0,0.0,0.0,0.0,0.0,0.0,3.8586,3.8248,0.0,0.0,0.0,4.0122,4.1237,4.2304,4.308,0.0,0.0,0.0,0.0,0.0,0.0,0.0,4.1866,4.324,4.4084,4.3384,4.3693,4.4115,4.4309,4.4245,4.4443,4.5024,0.0,4.5224,4.5632,4.5679,4.5584,4.533,4.5537,4.5551,4.5004,4.5235,4.5616,4.5997,4.6092,4.6155,4.632,4.6161,4.5729,4.5351,4.4033,4.2657,4.1751,4.1518,4.1369,4.1011,4.1454,4.1785,5.8636,0.0,0.0,0.0,0.0,5.7534,5.7534,5.7534,5.7534,5.7534,5.7534,5.7534,0.0,0.0,0.0,0.0,0.0,0.0,5.8153,5.933,5.933,6.0004,6.1106,6.1144,6.1229,6.1457,6.1486,6.16,6.1866,6.1951,6.1352,6.0185,0.0,0.0,0.0,0.0,6.0275,5.6792,5.6841,5.6094,5.4153,5.1436,4.9687,4.9062,4.853,4.7936,4.731,4.6165,4.5281,4.4656,4.386,0.0,0.0,0.0,0.0,0.0,0.0,0.0,0.0,0.0,0.0,0.0,0.0,0.0,0.0,0.0,0.0,0.0,0.0,0.0,3.8465,3.9652,4.0268,0.0,0.0,0.0,0.0,0.0,0.0,0.0,0.0,0.0,4.1118,4.1205,4.179,0.0,0.0,4.2557,4.3065,4.3311,4.3546,4.3833,4.4149,0.0,0.0,4.4156,4.439,4.3671,4.407,4.4619,4.5089,4.5065,4.5022,4.5158,4.4714,4.4111,4.354,4.2101,4.0986,4.07,4.0671,4.0495,4.011,4.0471,4.0781,0.0,0.0,0.0,0.0,0.0,0.0,0.0,0.0,5.7496,5.7458,0.0,5.742,0.0,0.0,0.0,0.0,0.0,5.7458,0.0,0.0,5.7648,5.7648,5.7762,5.7762,5.8115,5.8771,5.8847,5.9264,5.9948,5.8533,0.0,0.0,0.0,0.0,0.0,0.0,5.5245,5.4942,5.315,5.2108,5.1916,4.9912,4.8535,4.7876,4.7249,4.6592,4.5938,4.5312,4.4658,4.4002,4.2837,0.0,0.0,0.0,0.0,0.0,0.0,0.0,0.0,0.0,0.0,0.0,0.0,0.0,0.0,0.0,0.0,0.0,0.0,0.0,0.0,3.6125,0.0,0.0,0.0,0.0,0.0,0.0,0.0,0.0,0.0,0.0,3.8141,3.888,3.9814,4.047,0.0,0.0,0.0,0.0,4.2052,4.1472,4.2286,4.2398,4.0697,4.135,4.1694,4.0625,0.0,0.0,4.1238,4.0807,4.0783,4.1317,4.103,4.0398,4.0454,4.0319,4.0031,3.9499,3.9384,3.9348,3.9315,3.9797,4.0058,0.0,0.0,0.0,0.0,0.0,0.0,0.0,0.0,0.0,5.4772,0.0,5.4227,0.0,0.0,0.0,0.0,0.0,0.0,0.0,0.0,5.6645,5.6975,5.7534,5.7534,5.7686,0.0,5.7952,5.7279,0.0,0.0,0.0,0.0,0.0,0.0,0.0,0.0,5.3517,4.9326,5.0493,5.0392,4.8657,4.7903,4.7424,4.7164,4.6965,4.6367,4.5283,4.4599,4.4002,0.0,0.0,0.0,0.0,0.0,0.0,0.0,0.0,0.0,0.0,0.0,0.0,0.0,0.0,0.0,0.0,0.0,0.0,0.0,0.0,0.0,0.0,0.0,3.5549,0.0,0.0,0.0,0.0,0.0,0.0,0.0,0.0,0.0,3.7391,3.7847,3.866,3.9675,3.9785,3.9834,4.0055,0.0,0.0,0.0,0.0,0.0,0.0,0.0,3.8842,4.0021,3.9393,3.9307,4.0881,4.0709,4.0556,4.1121,0.0,0.0,3.8822,3.8571,3.8514,3.8285,3.8511,3.8669,3.8306,3.8981,3.9474,0.0,0.0,0.0,0.0,0.0,0.0,0.0,0.0,0.0,5.2227,5.166,0.0,0.0,0.0,0.0,0.0,0.0,0.0,0.0,0.0,0.0,0.0,5.5836,5.6166,0.0,0.0,0.0,0.0,0.0,0.0,0.0,0.0,0.0,0.0,0.0,0.0,4.9795,4.5621,4.785,4.8356,4.6601,4.6769,4.6737,4.6538,4.6507,4.6026,4.4942,0.0,0.0,0.0,0.0,0.0,0.0,0.0,0.0,0.0,0.0,0.0,0.0,0.0,0.0,0.0,0.0,0.0,0.0,0.0,0.0,0.0,0.0,0.0,0.0,0.0,3.3733,0.0,0.0,0.0,0.0,0.0,0.0,0.0,0.0,0.0,0.0,0.0,3.7225,3.841,3.8545,3.8648,3.8837,3.9018,3.903,0.0,0.0,0.0,0.0,0.0,0.0,0.0,0.0,0.0,0.0,0.0,0.0,0.0,0.0,3.8884,3.7936,3.7741,3.7741,3.7741,0.0,0.0,0.0,0.0,0.0,0.0,0.0,0.0,0.0,0.0,0.0,0.0,0.0,0.0,0.0,0.0,0.0,0.0,4.9774,0.0,0.0,0.0,0.0,0.0,0.0,0.0,0.0,0.0,0.0,0.0,0.0,0.0,0.0,0.0,0.0,0.0,0.0,0.0,0.0,0.0,0.0,4.4095,4.3974,4.5231,4.5857,4.5883,4.6453,4.6481,4.5881,4.5824,4.5509,4.4883,0.0,0.0,0.0,0.0,0.0,0.0,0.0,0.0,0.0,0.0,0.0,0.0,0.0,0.0,0.0,0.0,0.0,0.0,0.0,0.0,0.0,0.0,0.0,0.0,0.0,0.0,3.0196,3.1005,3.2355,0.0,0.0,0.0,0.0,0.0,0.0,0.0,0.0,0.0,0.0,3.6663,3.687,3.7496,3.8041,3.811,3.7621,3.8389,3.8641,3.7611,3.7781,3.7455,0.0,0.0,0.0,0.0,0.0,0.0,0.0,0.0,0.0,0.0,0.0,0.0,0.0,0.0,0.0,0.0,0.0,0.0,0.0,0.0,0.0,0.0,0.0,0.0,0.0,0.0,0.0,0.0,0.0,0.0,0.0,0.0,0.0,0.0,0.0,0.0,0.0,0.0,0.0,0.0,0.0,0.0,0.0,0.0,0.0,0.0,0.0,0.0,0.0,0.0,0.0,0.0,0.0,0.0,4.4745,4.3975,4.3947,4.4345,4.5198,4.494,4.4912,4.5198,4.4741,4.44,0.0,0.0,0.0,0.0,0.0,0.0,0.0,0.0,0.0,0.0,0.0,0.0,0.0,0.0,0.0,0.0,0.0,0.0,0.0,0.0,0.0,0.0,0.0,0.0,0.0,0.0,0.0,0.0,3.0803,3.1374,3.2305,0.0,0.0,0.0,0.0,0.0,0.0,0.0,0.0,0.0,0.0,3.4502,3.4672,3.5078,3.5317,3.5171,3.3952,3.2891,3.2598,3.1176,3.0568,3.1587,0.0,0.0,0.0,0.0,0.0,0.0,0.0,0.0,0.0,0.0,0.0,0.0,0.0,0.0,0.0,0.0,0.0,0.0,0.0,0.0,0.0,0.0,0.0,0.0,0.0,0.0,0.0,0.0,0.0,0.0,0.0,0.0,0.0,0.0,0.0,0.0,0.0,0.0,0.0,0.0,0.0,0.0,0.0,0.0,0.0,0.0,0.0,0.0,0.0,0.0,0.0,0.0,0.0,4.36,4.2865,4.3036,4.3491,4.4174,4.3793,4.3615,4.3874,4.3644,4.3357,0.0,0.0,0.0,0.0,0.0,0.0,0.0,0.0,0.0,0.0,0.0,0.0,0.0,0.0,0.0,0.0,0.0,0.0,0.0,0.0,0.0,0.0,0.0,0.0,0.0,0.0,0.0,0.0,2.983,3.0349,3.0233,0.0,0.0,0.0,0.0,0.0,0.0,0.0,0.0,0.0,0.0,3.1636,3.1994,3.2205,0.0,0.0,3.1299,3.0322,3.0322,2.8855,2.7991,2.8898,2.7502,0.0,0.0,0.0,0.0,0.0,0.0,0.0,0.0,0.0,0.0,0.0,0.0,0.0,0.0,0.0,0.0,0.0,0.0,0.0,0.0,0.0,0.0,0.0,0.0,0.0,0.0,0.0,0.0,0.0,0.0,0.0,0.0,0.0,0.0,0.0,0.0,0.0,0.0,0.0,0.0,0.0,0.0,0.0,0.0,0.0,0.0,0.0,0.0,0.0,0.0,0.0,0.0,0.0,4.1189,4.2325,4.2951,4.3094,4.2901,4.2577,4.2165,4.2577,4.222,0.0,0.0,0.0,0.0,0.0,0.0,0.0,0.0,0.0,0.0,0.0,0.0,0.0,0.0,0.0,0.0,0.0,0.0,0.0,0.0,0.0,0.0,0.0,0.0,0.0,0.0,0.0,0.0,0.0,0.0,0.0,0.0,0.0,0.0,0.0,0.0,0.0,0.0,0.0,0.0,0.0,2.8479,2.9329,2.9496,2.9635,0.0,0.0,2.9853,2.9774,2.9253,2.8344,2.6615,0.0,0.0,0.0,0.0,0.0,0.0,0.0,0.0,0.0,0.0,0.0,0.0,0.0,0.0,0.0,0.0,0.0,0.0,0.0,0.0,0.0,0.0,0.0,0.0,0.0,0.0,0.0,0.0,0.0,0.0,0.0,0.0,0.0,0.0,0.0,0.0,0.0,0.0,0.0,0.0,0.0,0.0,0.0,0.0,0.0,0.0,0.0,0.0,0.0,0.0,0.0,0.0,0.0,0.0,4.0603,4.049,4.1051,4.2325,4.1529,4.1217,4.1438,4.1576,0.0,0.0,0.0,0.0,0.0,0.0,0.0,0.0,0.0,0.0,0.0,0.0,0.0,0.0,0.0,0.0,0.0,0.0,0.0,0.0,0.0,0.0,0.0,0.0,0.0,0.0,0.0,2.7807,0.0,0.0,0.0,0.0,0.0,0.0,0.0,0.0,0.0,0.0,0.0,0.0,0.0,0.0,2.6071,2.6451,2.6776,2.711,0.0,0.0,2.4762,2.4779,2.4636,2.4296,0.0,0.0,0.0,0.0,0.0,0.0,0.0,0.0,0.0,0.0,0.0,0.0,0.0,0.0,0.0,0.0,0.0,0.0,0.0,0.0,0.0,0.0,0.0,0.0,0.0,0.0,0.0,0.0,0.0,0.0,0.0,0.0,0.0,0.0,0.0,0.0,0.0,0.0,0.0,0.0,0.0,0.0,0.0,0.0,0.0,0.0,0.0,0.0,0.0,0.0,0.0,0.0,0.0,0.0,3.9407,3.9243,3.9133,3.9685,4.0938,4.0346,4.0035,4.0061,4.0335,3.8934,0.0,0.0,0.0,0.0,0.0,0.0,0.0,0.0,0.0,0.0,0.0,0.0,0.0,0.0,0.0,0.0,0.0,0.0,0.0,0.0,0.0,0.0,0.0,0.0,0.0,0.0,0.0,0.0,0.0,0.0,0.0,0.0,0.0,0.0,0.0,0.0,0.0,0.0,0.0,0.0,0.0,0.0,2.3683,2.3881,0.0,0.0,0.0,2.2433,2.2418,0.0,0.0,0.0,0.0,0.0,0.0,0.0,0.0,0.0,0.0,0.0,0.0,0.0,0.0,0.0,0.0,0.0,0.0,0.0,0.0,0.0,0.0,0.0,0.0,0.0,0.0,0.0,0.0,0.0,0.0,0.0,0.0,0.0,0.0,0.0,0.0,0.0,0.0,0.0,0.0,0.0,0.0,0.0,0.0,0.0,0.0,0.0,0.0,0.0,0.0,0.0,0.0,0.0,0.0,0.0,0.0,0.0,3.7552,3.796,3.8558,3.9184,3.922,3.8905,3.8424,3.9012,3.7527,0.0,0.0,0.0,0.0,0.0,0.0,0.0,0.0,0.0,0.0,0.0,0.0,0.0,0.0,0.0,0.0,0.0,0.0,0.0,0.0,0.0,0.0,0.0,0.0,0.0,0.0,0.0,0.0,0.0,0.0,0.0,0.0,0.0,0.0,0.0,0.0,0.0,0.0,0.0,0.0,0.0,2.0945,2.1335,2.1356,2.1466,0.0,0.0,2.179,2.179,2.179,0.0,0.0,0.0,0.0,0.0,0.0,0.0,0.0,0.0,0.0,0.0,0.0,0.0,0.0,0.0,0.0,0.0,0.0,0.0,0.0,0.0,0.0,0.0,0.0,0.0,0.0,0.0,0.0,0.0,0.0,0.0,0.0,0.0,0.0,0.0,0.0,0.0,0.0,0.0,0.0,0.0,0.0,0.0,0.0,0.0,0.0,0.0,0.0,0.0,0.0,0.0,0.0,0.0,0.0,0.0,0.0,3.6322,3.6429,3.699,3.7987,3.7554,3.7413,3.7731,3.8372,3.6267,0.0,0.0,0.0,0.0,0.0,0.0,0.0,0.0,0.0,0.0,0.0,0.0,0.0,0.0,0.0,0.0,0.0,0.0,0.0,0.0,0.0,0.0,0.0,0.0,0.0,0.0,0.0,0.0,0.0,0.0,0.0,0.0,0.0,0.0,0.0,0.0,0.0,0.0,0.0,0.0,0.0,2.0945,2.1292,2.1356,0.0,0.0,0.0,0.0,2.179,2.179,0.0,0.0,0.0,0.0,0.0,0.0,0.0,0.0,0.0,0.0,0.0,0.0,0.0,0.0,0.0,0.0,0.0,0.0,0.0,0.0,0.0,0.0,0.0,0.0,0.0,0.0,0.0,0.0,0.0,0.0,0.0,0.0,0.0,0.0,0.0,0.0,0.0,0.0,0.0,0.0,0.0,0.0,0.0,0.0,0.0,0.0,0.0,0.0,0.0,0.0,0.0,0.0,0.0,0.0,0.0,0.0,3.6006,3.5611,3.6059,3.7176,3.693,3.6871,3.7132,3.7792,3.5682,0.0,0.0,0.0,0.0,0.0,0.0,0.0,0.0,0.0,0.0,0.0,0.0,0.0,0.0,0.0,0.0,0.0,0.0,0.0,0.0,0.0,0.0,0.0,0.0,0.0,0.0,0.0,0.0,0.0,0.0,0.0,0.0,0.0,0.0,0.0,0.0,0.0,0.0,0.0,0.0,2.0513,2.0639,2.1039,0.0,0.0,0.0,0.0,0.0,0.0,2.1218,2.1238,0.0,0.0,0.0,0.0,0.0,0.0,0.0,0.0,0.0,0.0,0.0,0.0,0.0,0.0,0.0,0.0,0.0,0.0,0.0,0.0,0.0,0.0,0.0,0.0,0.0,0.0,0.0,0.0,0.0,0.0,0.0,0.0,0.0,0.0,0.0,0.0,0.0,0.0,0.0,0.0,0.0,0.0,0.0,0.0,0.0,0.0,0.0,0.0,0.0,0.0,0.0,0.0,0.0,0.0,0.0,3.5787,3.482,3.4999,3.6407,3.6459,3.6537,3.6772,3.7241,3.5199,3.042,0.0,0.0,0.0,0.0,0.0,0.0,0.0,0.0,0.0,0.0,0.0,0.0,0.0,0.0,0.0,0.0,0.0,0.0,0.0,0.0,0.0,0.0,0.0,0.0,0.0,0.0,0.0,0.0,0.0,0.0,0.0,0.0,0.0,0.0,0.0,0.0,0.0,0.0,0.0,2.0203,2.0303,0.0,0.0,0.0,0.0,0.0,0.0,0.0,0.0,2.0634,0.0,0.0,0.0,0.0,0.0,0.0,0.0,0.0,0.0,0.0,0.0,0.0,0.0,0.0,0.0,0.0,0.0,0.0,0.0,0.0,0.0,0.0,0.0,0.0,0.0,0.0,0.0,0.0,0.0,0.0,0.0,0.0,0.0,0.0,0.0,0.0,0.0,0.0,0.0,0.0,0.0,0.0,0.0,0.0,0.0,0.0,0.0,0.0,0.0,0.0,0.0,0.0,0.0,0.0,0.0,0.0,3.2772,3.2744,3.5108,3.5266,3.5732,3.6693,3.685,3.4466,2.9424,0.0,0.0,0.0,0.0,0.0,0.0,0.0,0.0,0.0,0.0,0.0,0.0,0.0,0.0,0.0,0.0,0.0,0.0,0.0,0.0,0.0,0.0,0.0,0.0,0.0,0.0,0.0,0.0,0.0,0.0,0.0,0.0,0.0,0.0,0.0,0.0,0.0,0.0,1.9879,2.0071,0.0,0.0,0.0,0.0,0.0,0.0,0.0,0.0,2.0744,0.0,0.0,0.0,0.0,0.0,0.0,0.0,0.0,0.0,0.0,0.0,0.0,0.0,0.0,0.0,0.0,0.0,0.0,0.0,0.0,0.0,0.0,0.0,0.0,0.0,0.0,0.0,0.0,0.0,0.0,0.0,0.0,0.0,0.0,0.0,0.0,0.0,0.0,0.0,0.0,0.0,0.0,0.0,0.0,0.0,0.0,0.0,0.0,0.0,0.0,0.0,0.0,0.0,0.0,0.0,0.0,0.0,0.0,3.3677,3.4928,3.5007,3.5266,3.5731,3.4682,3.1694,0.0,0.0,0.0,0.0,0.0,0.0,0.0,0.0,0.0,0.0,0.0,0.0,0.0,0.0,0.0,0.0,0.0,0.0,0.0,0.0,0.0,0.0,0.0,0.0,0.0,0.0,0.0,0.0,0.0,0.0,0.0,0.0,0.0,0.0,0.0,0.0,0.0,0.0,0.0,0.0,0.0,0.0,0.0,0.0,0.0,0.0,0.0,0.0,0.0,0.0,0.0,0.0,0.0,0.0,0.0,0.0,0.0,0.0,0.0,0.0,0.0,0.0,0.0,0.0,0.0,0.0,0.0,0.0,0.0,0.0,0.0,0.0,0.0,0.0,0.0,0.0,0.0,0.0,0.0,0.0,0.0,0.0,0.0,0.0,0.0,0.0,0.0,0.0,0.0,0.0,0.0,0.0,0.0,0.0,0.0,0.0,0.0,0.0,0.0,0.0,0.0,0.0,0.0,0.0,0.0,0.0,0.0,0.0,3.4355,3.4799,3.4825,3.4642,3.4323,3.2041,2.8766,0.0,0.0,0.0,0.0,0.0,0.0,0.0,0.0,0.0,0.0,0.0,0.0,0.0,0.0,0.0,0.0,0.0,0.0,0.0,0.0,0.0,0.0,0.0,0.0,0.0,0.0,0.0,0.0,0.0,0.0,0.0,0.0,0.0,0.0,0.0,0.0,0.0,0.0,0.0,0.0,0.0,0.0,0.0,0.0,0.0,0.0,0.0,0.0,1.9921,0.0,0.0,0.0,0.0,0.0,0.0,0.0,0.0,0.0,0.0,0.0,0.0,0.0,0.0,0.0,0.0,0.0,0.0,0.0,0.0,0.0,0.0,0.0,0.0,0.0,0.0,0.0,0.0,0.0,0.0,0.0,0.0,0.0,0.0,0.0,0.0,0.0,0.0,0.0,0.0,0.0,0.0,0.0,0.0,0.0,0.0,0.0,0.0,0.0,0.0,0.0,0.0,0.0,0.0,0.0,0.0,0.0,0.0,0.0,3.2298,3.4229,3.4306,3.3556,3.2009,2.9328,2.6553,0.0,0.0,0.0,0.0,0.0,0.0,0.0,0.0,0.0,0.0,0.0,0.0,0.0,0.0,0.0,0.0,0.0,0.0,0.0,0.0,0.0,0.0,0.0,0.0,0.0,0.0,0.0,0.0,0.0,0.0,0.0,0.0,0.0,0.0,0.0,0.0,0.0,0.0,0.0,0.0,0.0,0.0,0.0,0.0,0.0,0.0,0.0,0.0,0.0,0.0,0.0,0.0,0.0,0.0,0.0,0.0,0.0,0.0,0.0,0.0,0.0,0.0,0.0,0.0,0.0,0.0,0.0,0.0,0.0,0.0,0.0,0.0,0.0,0.0,0.0,0.0,0.0,0.0,0.0,0.0,0.0,0.0,0.0,0.0,0.0,0.0,0.0,0.0,0.0,0.0,0.0,0.0,0.0,0.0,0.0,0.0,0.0,0.0,0.0,0.0,0.0,0.0,0.0,0.0,0.0,0.0,0.0,0.0,3.1032,3.0314,3.1607,3.0718,2.7356,2.6113,2.4235,0.0,0.0,0.0,0.0,0.0,0.0,0.0,0.0,0.0,0.0,0.0,0.0,0.0,0.0,0.0,0.0,0.0,0.0,0.0,0.0,0.0,0.0,0.0,0.0,0.0,0.0,0.0,0.0,0.0,0.0,0.0,0.0,0.0,0.0,0.0,0.0,0.0,0.0,0.0,0.0,0.0,0.0,0.0,0.0,0.0,0.0,0.0,0.0,0.0,0.0,0.0,0.0,0.0,0.0,0.0,0.0,0.0,0.0,0.0,0.0,0.0,0.0,0.0,0.0,0.0,0.0,0.0,0.0,0.0,0.0,0.0,0.0,0.0,0.0,0.0,0.0,0.0,0.0,0.0,0.0,0.0,0.0,0.0,0.0,0.0,0.0,0.0,0.0,0.0,0.0,0.0,0.0,0.0,0.0,0.0,0.0,0.0,0.0,0.0,0.0,0.0,0.0,0.0,0.0,0.0,0.0,0.0,0.0,0.0,2.7533,2.8498,2.7219,2.3398,2.3239,2.2206,0.0,0.0,0.0,0.0,0.0,0.0,0.0,0.0,0.0,0.0,0.0,0.0,0.0,0.0,0.0,0.0,0.0,0.0,0.0,0.0,0.0,0.0,0.0,0.0,0.0,0.0,0.0,0.0,0.0,0.0,0.0,0.0,0.0,0.0,0.0,0.0,0.0,0.0,0.0,0.0,0.0,0.0,0.0,0.0,0.0,0.0,0.0,0.0,0.0,0.0,0.0,0.0,0.0,0.0,0.0,0.0,0.0,0.0,0.0,0.0,0.0,0.0,0.0,0.0,0.0,0.0,0.0,0.0,0.0,0.0,0.0,0.0,0.0,0.0,0.0,0.0,0.0,0.0,0.0,0.0,0.0,0.0,0.0,0.0,0.0,0.0,0.0,0.0,0.0,0.0,0.0,0.0,0.0,0.0,0.0,0.0,0.0,0.0,0.0,0.0,0.0,0.0,0.0,0.0,0.0,0.0,0.0,0.0,0.0,2.7407,2.5488,2.3371,2.1095,2.1016,2.075,0.0,0.0,0.0,0.0,0.0,0.0,0.0,0.0,0.0,0.0,0.0,0.0,0.0,0.0,0.0,0.0,0.0,0.0,0.0,0.0,0.0,0.0,0.0,0.0,0.0,0.0,0.0,0.0,0.0,0.0,0.0,0.0,0.0,0.0,0.0,0.0,0.0,0.0,0.0,0.0,0.0,0.0,0.0,0.0,0.0,0.0,0.0,0.0,0.0,0.0,0.0,0.0,0.0,0.0,0.0,0.0,0.0,0.0,0.0,0.0,0.0,0.0,0.0,0.0,0.0,0.0,0.0,0.0,0.0,0.0,0.0,0.0,0.0,0.0,0.0,0.0,0.0,0.0,0.0,0.0,0.0,0.0,0.0,0.0,0.0,0.0,0.0,0.0,0.0,0.0,0.0,0.0,0.0,0.0,0.0,0.0,0.0,0.0,0.0,0.0,0.0,0.0,0.0,0.0,0.0,0.0,0.0,0.0,0.0,2.3309,2.2461,2.1628,2.0829,2.0802,2.0591,2.025,0.0,0.0,0.0,0.0,0.0,0.0,0.0,0.0,0.0,0.0,0.0,0.0,0.0,0.0,0.0,0.0,0.0,0.0,0.0,0.0,0.0,0.0,0.0,0.0,0.0,0.0,0.0,0.0,0.0,0.0,0.0,0.0,0.0,0.0,0.0,0.0,0.0,0.0,0.0,0.0,0.0,0.0,0.0,0.0,0.0,0.0,0.0,0.0,0.0,0.0,0.0,0.0,0.0,0.0,0.0,0.0,0.0,0.0,0.0,0.0,0.0,0.0,0.0,0.0,0.0,0.0,0.0,0.0,0.0,0.0,0.0,0.0,0.0,0.0,0.0,0.0,0.0,0.0,0.0,0.0,0.0,0.0,0.0,0.0,0.0,0.0,0.0,0.0,0.0,0.0,0.0,0.0,0.0,0.0,0.0,0.0,0.0,0.0,0.0,0.0,0.0,0.0,0.0,0.0,0.0,0.0,0.0,0.0,2.0871,2.0802,2.0802,2.0818,2.0886,2.0744,0.0,0.0,0.0,0.0,0.0,0.0,0.0,0.0,0.0,0.0,0.0,0.0,0.0,0.0,0.0,0.0,0.0,0.0,0.0,0.0,0.0,0.0,0.0,0.0,0.0,0.0,0.0,0.0,0.0,0.0,0.0,0.0,0.0,0.0,0.0,0.0,0.0,0.0,0.0,0.0,0.0,0.0,0.0,0.0,0.0,0.0,0.0,0.0,0.0,0.0,0.0,0.0,0.0,0.0,0.0,0.0,0.0,0.0,0.0,0.0,0.0,0.0,0.0,0.0,0.0,0.0,0.0,0.0,0.0,0.0,0.0,0.0,0.0,0.0,0.0,0.0,0.0,0.0,0.0,0.0,0.0,0.0,0.0,0.0,0.0,0.0,0.0,0.0,0.0,0.0,0.0,0.0,0.0,0.0,0.0,0.0,0.0,0.0,0.0,0.0,0.0,0.0,0.0,0.0,0.0,0.0,0.0,0.0,2.0887,2.0802,2.0802,2.0818,2.0818,2.1134,2.1008,0.0,0.0,0.0,0.0,0.0,0.0,0.0,0.0,0.0,0.0,0.0,0.0,0.0,0.0,0.0,0.0,0.0,0.0,0.0,0.0,0.0,0.0,0.0,0.0,0.0,0.0,0.0,0.0,0.0,0.0,0.0,0.0,0.0,0.0,0.0,0.0,0.0,0.0,0.0,0.0,0.0,0.0,0.0,0.0,0.0,0.0,0.0,0.0,0.0,0.0,0.0,0.0,0.0,0.0,0.0,0.0,0.0,0.0,0.0,0.0,0.0,0.0,0.0,0.0,0.0,0.0,0.0,0.0,0.0,0.0,0.0,0.0,0.0,0.0,0.0,0.0,0.0,0.0,0.0,0.0,0.0,0.0,0.0,0.0,0.0,0.0,0.0,0.0,0.0,0.0,0.0,0.0,0.0,0.0,0.0,0.0,0.0,0.0,0.0,0.0,0.0,0.0,0.0,0.0,0.0,0.0,0.0,0.0,0.0,2.0818,0.0,2.0902,0.0,2.1055,2.0855,0.0,0.0,0.0,0.0,0.0,0.0,0.0,0.0,0.0,0.0,0.0,0.0,0.0,0.0,0.0,0.0,0.0,0.0,0.0,0.0,0.0,0.0,0.0,0.0,0.0,0.0,0.0,0.0,0.0,0.0,0.0,0.0,0.0,0.0,0.0,0.0,0.0,0.0,0.0,0.0,0.0,0.0,0.0,0.0,0.0,0.0,0.0,0.0,0.0,0.0,0.0,0.0,0.0,0.0,0.0,0.0,0.0,0.0,0.0,0.0,0.0,0.0,0.0,0.0,0.0,0.0,0.0,0.0,0.0,0.0,0.0,0.0,0.0,0.0,0.0,0.0,0.0,0.0,0.0,0.0,0.0,0.0,0.0,0.0,0.0,0.0,0.0,0.0,0.0,0.0,0.0,0.0,0.0,0.0,0.0,0.0,0.0,0.0,0.0,0.0,0.0,0.0,0.0,0.0,0.0,0.0,0.0,0.0,0.0,2.0818,2.0802,2.0929,0.0,2.1155,2.0945,0.0,0.0,0.0,0.0,0.0,0.0,0.0,0.0,0.0,0.0,0.0,0.0,0.0,0.0,0.0,0.0,0.0,0.0,0.0,0.0,0.0,0.0,0.0,0.0,0.0,0.0,0.0,0.0,0.0,0.0,0.0,0.0,0.0,0.0,0.0,0.0,0.0,0.0,0.0,0.0,0.0,0.0,0.0,0.0,0.0,0.0,0.0,0.0,0.0,0.0,0.0,0.0,0.0,0.0,0.0,0.0,0.0,0.0,0.0,0.0,0.0,0.0,0.0,0.0,0.0,0.0,0.0,0.0,0.0,0.0,0.0,0.0,0.0,0.0,0.0,0.0,0.0,0.0,0.0,0.0,0.0,0.0,0.0,0.0,0.0,0.0,0.0,0.0,0.0,0.0,0.0,0.0,0.0,0.0,0.0,0.0,0.0,0.0,0.0,0.0,0.0,0.0,0.0,0.0,0.0,0.0,0.0,0.0,0.0,0.0,2.0834,2.0834,2.0866,2.1399,2.1155,0.0,0.0,0.0,0.0,0.0,0.0,0.0,0.0,0.0,0.0,0.0,0.0,0.0,0.0,0.0,0.0,0.0,0.0,0.0,0.0,0.0,0.0,0.0,0.0,0.0,0.0,0.0,0.0,0.0,0.0,0.0,0.0,0.0,0.0,0.0,0.0,0.0,0.0,0.0,0.0,0.0,0.0,0.0,0.0,0.0,0.0,0.0,0.0,0.0,0.0,0.0,0.0,0.0,0.0,0.0,0.0,0.0,0.0,0.0,0.0,0.0,0.0,0.0,0.0,0.0,0.0,0.0,0.0,0.0,0.0,0.0,0.0,0.0,0.0,0.0,0.0,0.0,0.0,0.0,0.0,0.0,0.0,0.0,0.0,0.0,0.0,0.0,0.0,0.0,0.0,0.0,0.0,0.0,0.0,0.0,0.0,0.0,0.0,0.0,0.0,0.0,0.0,0.0,0.0,0.0,0.0,0.0,0.0,0.0,0.0,2.1098,0.0,2.1241,2.1387,2.1071,2.015,0.0,0.0,0.0,0.0,0.0,0.0,0.0,0.0,0.0,0.0,0.0,0.0,0.0,0.0,0.0,0.0,0.0,0.0,0.0,0.0,0.0,0.0,0.0,0.0,0.0,0.0,0.0,0.0,0.0,0.0,0.0,0.0,0.0,0.0,0.0,0.0,0.0,0.0,0.0,0.0,0.0,0.0,0.0,0.0,0.0,0.0,0.0,0.0,0.0,0.0,0.0,0.0,0.0,0.0,0.0,0.0,0.0,0.0,0.0,0.0,0.0,0.0,0.0,0.0,0.0,0.0,0.0,0.0,0.0,0.0,0.0,0.0,0.0,0.0,0.0,0.0,0.0,0.0,0.0,0.0,0.0,0.0,0.0,0.0,0.0,0.0,0.0,0.0,0.0,0.0,0.0,0.0,0.0,0.0,0.0,0.0,0.0,0.0,0.0,0.0,0.0,0.0,0.0,0.0,0.0,0.0,0.0,0.0,0.0,0.0,0.0,2.1161,2.1161,2.0802,0.0,0.0,0.0,0.0,0.0,0.0,0.0,0.0,0.0,0.0,0.0,0.0,0.0,0.0,0.0,0.0,0.0,0.0,0.0,0.0,0.0,0.0,0.0,0.0,0.0,0.0,0.0,0.0,0.0,0.0,0.0,0.0,0.0,0.0,0.0,0.0,0.0,0.0,0.0,0.0,0.0,0.0,0.0,0.0,0.0,0.0,0.0,0.0,0.0,0.0,0.0,0.0,0.0,0.0,0.0,0.0,0.0,0.0,0.0,0.0,0.0,0.0,0.0,0.0,0.0,0.0,0.0,0.0,0.0,0.0,0.0,0.0,0.0,0.0,0.0,0.0,0.0,0.0,0.0,0.0,0.0,0.0,0.0,0.0,0.0,0.0,0.0,0.0,0.0,0.0,0.0,0.0,0.0,0.0,0.0,0.0,0.0,0.0,0.0,0.0,0.0,0.0,0.0,0.0,0.0,0.0,0.0,0.0,0.0,0.0,0.0,2.0866,2.0866,2.0897,0.0,2.0032,0.0,0.0,0.0,0.0,0.0,0.0,0.0,0.0,0.0,0.0,0.0,0.0,0.0,0.0,0.0,0.0,0.0,0.0,0.0,0.0,0.0,0.0,0.0,0.0,0.0,0.0,0.0,0.0,0.0,0.0,0.0,0.0,0.0,0.0,0.0,0.0,0.0,0.0,0.0,0.0,0.0,0.0,0.0,0.0,0.0,0.0,0.0,0.0,0.0,0.0,0.0,0.0,0.0,0.0,0.0,0.0,0.0,0.0,0.0,0.0,0.0,0.0,0.0,0.0,0.0,0.0,0.0,0.0,0.0,0.0,0.0,0.0,0.0,0.0,0.0,0.0,0.0,0.0,0.0,0.0,0.0,0.0,0.0,0.0,0.0,0.0,0.0,0.0,0.0,0.0,0.0,0.0,0.0,0.0,0.0,0.0,0.0,0.0,0.0,0.0,0.0,0.0,0.0,0.0,0.0,0.0,0.0,0.0,0.0,0.0,0.0,0.0,2.1455,2.1391,2.1019,0.0,0.0,0.0,0.0,0.0,0.0,0.0,0.0,0.0,0.0,0.0,0.0,0.0,0.0,0.0,0.0,0.0,0.0,0.0,0.0,0.0,0.0,0.0,0.0,0.0,0.0,0.0,0.0,0.0,0.0,0.0,0.0,0.0,0.0,0.0,0.0,0.0,0.0,0.0,0.0,0.0,0.0,0.0,0.0,0.0,0.0,0.0,0.0,0.0,0.0,0.0,0.0,0.0,0.0,0.0,0.0,0.0,0.0,0.0,0.0,0.0,0.0,0.0,0.0,0.0,0.0,0.0,0.0,0.0,0.0,0.0,0.0,0.0,0.0,0.0,0.0,0.0,0.0,0.0,0.0,0.0,0.0,0.0,0.0,0.0,0.0,0.0,0.0,0.0,0.0,0.0,0.0,0.0,0.0,0.0,0.0,0.0,0.0,0.0,0.0,0.0,0.0,0.0,0.0,0.0,0.0,0.0,0.0,0.0,0.0,2.1103,2.113,2.1277,2.1292,2.1103,0.0,0.0,0.0,0.0,0.0,0.0,0.0,0.0,0.0,0.0,0.0,0.0,0.0,0.0,0.0,0.0,0.0,0.0,0.0,0.0,0.0,0.0,0.0,0.0,0.0,0.0,0.0,0.0,0.0,0.0,0.0,0.0,0.0,0.0,0.0,0.0,0.0,0.0,0.0,0.0,0.0,0.0,0.0,0.0,0.0,0.0,0.0,0.0,0.0,0.0,0.0,0.0,0.0,0.0,0.0,0.0,0.0,0.0,0.0,0.0,0.0,0.0,0.0,0.0,0.0,0.0,0.0,0.0,0.0,0.0,0.0,0.0,0.0,0.0,0.0,0.0,0.0,0.0,0.0,0.0,0.0,0.0,0.0,0.0,0.0,0.0,0.0,0.0,0.0,0.0,0.0,0.0,0.0,0.0,0.0,0.0,0.0,0.0,0.0,0.0,0.0,0.0,0.0,0.0,0.0,0.0,0.0,0.0,0.0,0.0,0.0,0.0,0.0,0.0,2.0713,0.0,0.0,0.0,0.0,0.0,0.0,0.0,0.0,0.0,0.0,0.0,0.0,0.0,0.0,0.0,0.0,0.0,0.0,0.0,0.0,0.0,0.0,0.0,0.0,0.0,0.0,0.0,0.0,0.0,0.0,0.0,0.0,0.0,0.0,0.0,0.0,0.0,0.0,0.0,0.0,0.0,0.0,0.0,0.0,0.0,0.0,0.0,0.0,0.0,0.0,0.0,0.0,0.0,0.0,0.0,0.0,0.0,0.0,0.0,0.0,0.0,0.0,0.0,0.0,0.0,0.0,0.0,0.0,0.0,0.0,0.0,0.0,0.0,0.0,0.0,0.0,0.0,0.0,0.0,0.0,0.0,0.0,0.0,0.0,0.0,0.0,0.0,0.0,0.0,0.0,0.0,0.0,0.0,0.0,0.0,0.0,0.0,0.0,0.0,0.0,0.0,0.0,0.0,0.0,0.0,0.0,0.0,0.0,0.0,0.0,0.0,0.0,0.0,0.0,0.0,0.0,0.0,0.0,0.0,0.0,0.0,0.0,0.0,0.0,0.0,0.0,0.0,0.0,0.0,0.0,0.0,0.0,0.0,0.0,0.0,0.0,0.0,0.0,0.0,0.0,0.0,0.0,0.0,0.0,0.0,0.0,0.0,0.0,0.0,0.0,0.0,0.0,0.0,0.0,0.0,0.0,0.0,0.0,0.0,0.0,0.0,0.0,0.0,0.0,0.0,0.0,0.0,0.0,0.0,0.0,0.0,0.0,0.0,0.0,0.0,0.0,0.0,0.0,0.0,0.0,0.0,0.0,0.0,0.0,0.0,0.0,0.0,0.0,0.0,0.0,0.0,0.0,0.0,0.0,0.0,0.0,0.0,0.0,0.0,0.0,0.0,0.0,0.0,0.0,0.0,0.0,0.0,0.0,0.0,0.0,0.0,0.0,0.0,0.0,0.0,0.0,0.0,0.0,0.0,0.0,0.0,0.0,0.0,0.0,0.0,0.0,0.0,0.0,0.0,0.0,0.0,0.0,0.0,0.0,0.0,0.0,0.0,0.0,0.0,0.0,0.0,0.0,0.0,0.0,0.0,0.0,0.0,0.0,0.0,0.0,0.0,0.0,0.0,0.0,0.0,0.0,0.0,0.0,0.0,0.0,0.0,0.0,0.0,0.0,0.0,0.0,0.0,0.0,0.0,0.0,0.0,0.0,0.0,0.0,0.0,0.0,0.0,0.0,0.0,0.0,0.0,0.0,0.0,0.0,0.0,0.0,0.0,0.0,0.0,0.0,0.0,0.0,0.0,0.0,0.0,0.0,0.0,0.0,0.0,0.0,0.0,0.0,0.0,0.0,0.0,0.0,0.0,0.0,0.0,0.0,0.0,0.0,0.0,0.0,0.0,0.0,0.0,0.0,0.0,0.0,0.0,0.0,0.0,0.0,0.0,0.0,0.0,0.0,0.0,0.0,0.0,0.0,0.0,0.0,0.0,0.0,0.0,0.0,0.0,0.0,0.0,0.0,0.0,0.0,0.0,0.0,0.0,0.0,0.0,0.0,0.0,0.0,0.0,0.0,0.0,0.0,0.0,0.0,0.0,0.0,0.0,0.0,0.0,0.0,0.0,0.0,0.0,0.0,0.0,0.0,0.0,0.0,0.0,0.0,0.0,0.0,0.0,0.0,0.0,0.0,0.0,0.0,0.0,0.0,0.0,0.0,0.0,0.0,0.0,0.0,0.0,0.0,0.0,0.0,0.0,0.0,0.0,0.0,0.0,0.0,0.0,0.0,0.0,0.0,0.0,0.0,0.0,0.0,0.0,0.0,0.0,0.0,0.0,0.0,0.0,0.0,0.0,0.0,0.0,0.0,0.0,0.0,0.0,0.0,0.0,0.0,0.0,0.0,0.0,0.0,0.0,0.0,0.0,0.0,0.0,0.0,0.0,0.0,0.0,0.0,0.0,0.0,0.0,0.0,0.0,0.0,0.0,0.0,0.0,0.0,0.0,0.0,0.0,0.0,0.0,0.0,0.0,0.0,0.0,0.0,0.0,0.0,0.0,0.0,0.0,0.0,0.0,0.0,0.0,0.0,0.0,0.0,0.0,0.0,0.0,0.0,0.0,0.0,0.0,0.0,0.0,0.0,0.0,0.0,0.0,0.0,0.0,0.0,0.0,0.0,0.0,0.0,0.0,0.0,0.0,0.0,0.0,0.0,0.0,0.0,0.0,0.0,0.0,0.0,0.0,0.0,0.0,0.0,0.0,0.0,0.0,0.0,0.0,0.0,0.0,0.0,0.0,0.0,0.0,0.0,0.0,0.0,0.0,0.0,0.0,0.0,0.0,0.0,0.0,0.0,0.0,0.0,0.0,0.0,0.0,0.0,0.0,0.0,0.0,0.0,0.0,0.0,0.0,0.0,0.0,0.0,0.0,0.0,0.0,0.0,0.0,0.0,0.0,0.0,0.0,0.0,0.0,0.0,0.0,0.0,0.0,0.0,0.0,0.0,0.0,0.0,0.0,0.0,0.0,0.0,0.0,0.0,0.0,0.0,0.0,0.0,0.0,0.0,0.0,0.0,0.0,0.0,0.0,0.0,0.0,0.0,0.0,0.0,0.0,0.0,0.0,0.0,0.0,0.0,0.0,0.0,0.0,0.0,0.0,0.0,0.0,0.0,0.0,0.0,0.0,0.0,0.0,0.0,0.0,0.0,0.0,0.0,0.0,0.0,0.0,0.0,0.0,0.0,0.0,0.0,0.0,0.0,0.0,0.0,0.0,0.0,0.0,0.0,0.0,0.0,0.0,0.0,0.0,0.0,0.0,0.0,0.0,0.0,0.0,0.0,0.0,0.0,0.0,0.0,0.0,0.0,0.0,0.0,0.0,0.0,0.0,0.0,0.0,0.0,0.0,0.0,0.0,0.0,0.0,0.0,0.0,0.0,0.0,0.0,0.0,0.0,0.0,0.0,0.0,0.0,0.0,0.0,0.0,0.0,0.0,0.0,0.0,0.0,0.0,0.0,0.0,0.0,0.0,0.0,0.0,0.0,0.0,0.0,0.0,0.0,0.0,0.0,0.0,0.0,0.0,0.0,0.0,0.0,0.0,0.0,0.0,0.0,0.0,0.0,0.0,0.0,0.0,0.0,0.0,0.0,0.0,0.0,0.0,0.0,0.0,0.0,0.0,0.0,0.0,0.0,0.0,0.0,0.0,0.0,0.0,0.0,0.0,0.0,0.0,0.0,0.0,0.0,0.0,0.0,0.0,0.0,0.0,0.0,0.0,0.0,0.0,0.0,0.0,0.0,0.0,0.0,0.0,0.0,0.0,0.0,0.0,0.0,0.0,0.0,0.0,0.0,0.0,0.0,0.0,0.0,0.0,0.0,0.0,0.0,0.0,0.0,0.0,0.0,0.0,0.0,0.0,0.0,0.0,0.0,0.0,0.0,0.0,0.0,0.0,0.0,0.0,0.0,0.0,0.0,0.0,0.0,0.0,0.0,0.0,0.0,0.0,0.0,0.0,0.0,0.0,0.0,0.0,0.0,0.0,0.0,0.0,0.0,0.0,0.0,0.0,0.0,0.0,0.0,0.0,0.0,0.0,0.0,0.0,0.0,0.0,0.0,0.0,0.0,0.0,0.0,0.0,0.0,0.0,0.0,0.0,0.0,0.0,0.0,0.0,0.0,0.0,0.0,0.0,0.0,0.0,0.0,0.0,0.0,0.0,0.0,0.0,0.0,0.0,0.0,0.0,0.0,0.0,0.0,0.0,0.0,0.0,0.0,0.0,0.0,0.0,0.0,0.0,0.0,0.0,0.0,0.0,0.0,0.0,0.0,0.0,0.0,0.0,0.0,0.0,0.0,0.0,0.0,0.0,0.0,0.0,0.0,0.0,0.0,0.0,0.0,0.0,0.0,0.0,0.0,0.0,0.0,0.0,0.0,0.0,0.0,0.0,0.0,0.0,0.0,0.0,0.0,0.0,0.0,0.0,0.0,0.0,0.0,0.0,0.0,0.0,0.0,0.0,0.0,0.0,0.0,0.0,0.0,0.0,0.0,0.0,0.0,0.0,0.0,0.0,0.0,0.0,0.0,0.0,0.0,0.0,0.0,0.0,0.0,0.0,0.0,0.0,0.0,0.0,0.0,0.0,0.0,0.0,0.0,0.0,0.0,0.0,0.0,0.0,0.0,0.0,0.0,0.0,0.0,0.0,0.0,0.0,0.0,0.0,0.0,0.0,0.0,0.0,0.0,0.0,0.0,0.0,0.0,0.0,0.0,0.0,0.0,0.0,0.0,0.0,0.0,0.0,0.0,0.0,0.0,0.0,0.0,0.0,0.0,0.0,0.0,0.0,0.0,0.0,0.0,0.0,0.0,0.0,0.0]}]]]